[[{"header":{"parameterUnit":"m.s-1","parameterCategory":1,"la1":30.6,"la2":28.766,"lo1":-90.7593,"lo2":-88.6598,"dy":0.0162,"dx":0.0183,"nx":116,"ny":114,"refTime":"2023-07-01T18:00:00:Z","depth":0,"parameterNumber":2,"parameterNumberName":"U-component_of_WINDS"},"data":[0.0,0.0,0.0,0.0,0.0,0.0,0.0,0.0,0.0,0.0,0.0,0.0,0.0,0.0,0.0,0.0,0.0,0.0,0.0,0.0,0.0,0.0,0.0,0.0,0.0,0.0,0.0,0.0,0.0,0.0,0.0,0.0,0.0,0.0,0.0,0.0,0.0,0.0,0.0,0.0,0.0,0.0,0.0,0.0,0.0,0.0,0.0,0.0,0.0,0.0,0.0,0.0,0.0,0.0,0.0,0.0,0.0,0.0,0.0,0.0,0.0,0.0,0.0,0.0,0.0,0.0,0.0,0.0,0.0,0.0,0.0,0.0,0.0,0.0,0.0,0.0,0.0,0.0,0.0,0.0,0.0,0.0,0.0,0.0,0.0,0.0,0.0,0.0,0.0,0.0,0.0,0.0,0.0,0.0,0.0,0.0,0.0,0.0,0.0,0.0,0.0,0.0,0.0,0.0,0.0,0.0,0.0,0.0,0.0,0.0,0.0,0.0,0.0,0.0,0.0,0.0,0.0,0.0,0.0,0.0,0.0,0.0,0.0,0.0,0.0,0.0,0.0,0.0,0.0,0.0,0.0,0.0,0.0,0.0,0.0,0.0,0.0,0.0,0.0,0.0,0.0,0.0,0.0,0.0,0.0,0.0,0.0,0.0,0.0,0.0,0.0,0.0,0.0,0.0,0.0,0.0,0.0,0.0,0.0,0.0,0.0,0.0,0.0,0.0,0.0,0.0,0.0,0.0,0.0,0.0,0.0,0.0,0.0,0.0,0.0,0.0,0.0,0.0,0.0,0.0,0.0,0.0,0.0,0.0,0.0,0.0,0.0,0.0,0.0,0.0,0.0,0.0,0.0,0.0,0.0,0.0,0.0,0.0,0.0,0.0,0.0,0.0,0.0,0.0,0.0,0.0,0.0,0.0,0.0,0.0,0.0,0.0,0.0,0.0,0.0,0.0,0.0,0.0,0.0,0.0,0.0,0.0,0.0,0.0,0.0,0.0,0.0,0.0,0.0,0.0,0.0,0.0,0.0,0.0,0.0,0.0,0.0,0.0,0.0,0.0,0.0,0.0,0.0,0.0,0.0,0.0,0.0,0.0,0.0,0.0,0.0,0.0,0.0,0.0,0.0,0.0,0.0,0.0,0.0,0.0,0.0,0.0,0.0,0.0,0.0,0.0,0.0,0.0,0.0,0.0,0.0,0.0,0.0,0.0,0.0,0.0,0.0,0.0,0.0,0.0,0.0,0.0,0.0,0.0,0.0,0.0,0.0,0.0,0.0,0.0,0.0,0.0,0.0,0.0,0.0,0.0,0.0,0.0,0.0,0.0,0.0,0.0,0.0,0.0,0.0,0.0,0.0,0.0,0.0,0.0,0.0,0.0,0.0,0.0,0.0,0.0,0.0,0.0,0.0,0.0,0.0,0.0,0.0,0.0,0.0,0.0,0.0,0.0,0.0,0.0,0.0,0.0,0.0,0.0,0.0,0.0,0.0,0.0,0.0,0.0,0.0,0.0,0.0,0.0,0.0,0.0,0.0,0.0,0.0,0.0,0.0,0.0,0.0,0.0,0.0,0.0,0.0,0.0,0.0,0.0,0.0,0.0,0.0,0.0,0.0,0.0,0.0,0.0,0.0,0.0,0.0,0.0,0.0,0.0,0.0,0.0,0.0,0.0,0.0,0.0,0.0,0.0,0.0,0.0,0.0,0.0,0.0,0.0,0.0,0.0,0.0,0.0,0.0,0.0,0.0,0.0,0.0,0.0,0.0,0.0,0.0,0.0,0.0,0.0,0.0,0.0,0.0,0.0,0.0,0.0,0.0,0.0,0.0,0.0,0.0,0.0,0.0,0.0,0.0,0.0,0.0,0.0,0.0,0.0,0.0,0.0,0.0,0.0,0.0,0.0,0.0,0.0,0.0,0.0,0.0,0.0,0.0,0.0,0.0,0.0,0.0,0.0,0.0,0.0,0.0,0.0,0.0,0.0,0.0,0.0,0.0,0.0,0.0,0.0,0.0,0.0,0.0,0.0,0.0,0.0,0.0,0.0,0.0,0.0,0.0,0.0,0.0,0.0,0.0,0.0,0.0,0.0,0.0,0.0,0.0,0.0,0.0,0.0,0.0,0.0,0.0,0.0,0.0,0.0,0.0,0.0,0.0,0.0,0.0,0.0,0.0,0.0,0.0,0.0,0.0,0.0,0.0,0.0,0.0,0.0,0.0,0.0,0.0,0.0,0.0,0.0,0.0,0.0,0.0,0.0,0.0,0.0,0.0,0.0,0.0,0.0,0.0,0.0,0.0,0.0,0.0,0.0,0.0,0.0,0.0,0.0,0.0,0.0,0.0,0.0,0.0,0.0,0.0,0.0,0.0,0.0,0.0,0.0,0.0,0.0,0.0,0.0,0.0,0.0,0.0,0.0,0.0,0.0,0.0,0.0,0.0,0.0,0.0,0.0,0.0,0.0,0.0,0.0,0.0,0.0,0.0,0.0,0.0,0.0,0.0,0.0,0.0,0.0,0.0,0.0,0.0,0.0,0.0,0.0,0.0,0.0,0.0,0.0,0.0,0.0,0.0,0.0,0.0,0.0,0.0,0.0,0.0,0.0,0.0,0.0,0.0,0.0,0.0,0.0,0.0,0.0,0.0,0.0,0.0,0.0,0.0,0.0,0.0,0.0,0.0,0.0,0.0,0.0,0.0,0.0,0.0,0.0,0.0,0.0,0.0,0.0,0.0,0.0,0.0,0.0,0.0,0.0,0.0,0.0,0.0,0.0,0.0,0.0,0.0,0.0,0.0,0.0,0.0,0.0,0.0,0.0,0.0,0.0,0.0,0.0,0.0,0.0,0.0,0.0,0.0,0.0,0.0,0.0,0.0,0.0,0.0,0.0,0.0,0.0,0.0,0.0,0.0,0.0,0.0,0.0,0.0,0.0,0.0,0.0,0.0,0.0,0.0,0.0,0.0,0.0,0.0,0.0,0.0,0.0,0.0,0.0,0.0,0.0,0.0,0.0,0.0,0.0,0.0,0.0,0.0,0.0,0.0,0.0,0.0,0.0,0.0,0.0,0.0,0.0,0.0,0.0,0.0,0.0,0.0,0.0,0.0,0.0,0.0,0.0,0.0,0.0,0.0,0.0,0.0,0.0,0.0,0.0,0.0,0.0,0.0,0.0,0.0,0.0,0.0,0.0,0.0,0.0,0.0,0.0,0.0,0.0,0.0,0.0,0.0,0.0,0.0,0.0,0.0,0.0,0.0,0.0,0.0,0.0,0.0,0.0,0.0,0.0,0.0,0.0,0.0,0.0,0.0,0.0,0.0,0.0,0.0,0.0,0.0,0.0,0.0,0.0,0.0,0.0,0.0,0.0,0.0,0.0,0.0,0.0,0.0,0.0,0.0,0.0,0.0,0.0,0.0,0.0,0.0,0.0,0.0,0.0,0.0,0.0,0.0,0.0,0.0,0.0,0.0,0.0,0.0,0.0,0.0,0.0,0.0,0.0,0.0,0.0,0.0,0.0,0.0,0.0,0.0,0.0,0.0,0.0,0.0,0.0,0.0,0.0,0.0,0.0,0.0,0.0,0.0,0.0,0.0,0.0,0.0,0.0,0.0,0.0,0.0,0.0,0.0,0.0,0.0,0.0,0.0,0.0,0.0,0.0,0.0,0.0,0.0,0.0,0.0,0.0,0.0,0.0,0.0,0.0,0.0,0.0,0.0,0.0,0.0,0.0,0.0,0.0,0.0,0.0,0.0,0.0,0.0,0.0,0.0,0.0,0.0,0.0,0.0,0.0,0.0,0.0,0.0,0.0,0.0,0.0,0.0,0.0,0.0,0.0,0.0,0.0,0.0,0.0,0.0,0.0,0.0,0.0,0.0,0.0,0.0,0.0,0.0,0.0,0.0,0.0,0.0,0.0,0.0,0.0,0.0,0.0,0.0,0.0,0.0,0.0,0.0,0.0,0.0,0.0,0.0,0.0,0.0,0.0,0.0,0.0,0.0,0.0,0.0,0.0,0.0,0.0,0.0,0.0,0.0,0.0,0.0,0.0,0.0,0.0,0.0,0.0,0.0,0.0,0.0,0.0,0.0,0.0,0.0,0.0,0.0,0.0,0.0,0.0,0.0,0.0,0.0,0.0,0.0,0.0,0.0,0.0,0.0,0.0,0.0,0.0,0.0,0.0,0.0,0.0,0.0,0.0,0.0,0.0,0.0,0.0,0.0,0.0,0.0,0.0,0.0,0.0,0.0,0.0,0.0,0.0,0.0,0.0,0.0,0.0,0.0,0.0,0.0,0.0,0.0,0.0,0.0,0.0,0.0,0.0,0.0,0.0,0.0,0.0,0.0,0.0,0.0,0.0,0.0,0.0,0.0,0.0,0.0,0.0,0.0,0.0,0.0,0.0,0.0,0.0,0.0,0.0,0.0,0.0,0.0,0.0,0.0,0.0,0.0,0.0,0.0,0.0,0.0,0.0,0.0,0.0,0.0,0.0,0.0,0.0,0.0,0.0,0.0,0.0,0.0,0.0,0.0,0.0,0.0,0.0,0.0,0.0,0.0,0.0,0.0,0.0,0.0,0.0,0.0,0.0,0.0,0.0,0.0,0.0,0.0,0.0,0.0,0.0,0.0,0.0,0.0,0.0,0.0,0.0,0.0,0.0,0.0,0.0,0.0,0.0,0.0,0.0,0.0,0.0,0.0,0.0,0.0,0.0,0.0,0.0,0.0,0.0,0.0,0.0,0.0,0.0,0.0,0.0,0.0,0.0,0.0,0.0,0.0,0.0,0.0,0.0,0.0,0.0,0.0,0.0,0.0,0.0,0.0,0.0,0.0,0.0,0.0,0.0,0.0,0.0,0.0,0.0,0.0,0.0,0.0,0.0,0.0,0.0,0.0,0.0,0.0,0.0,0.0,0.0,0.0,0.0,0.0,0.0,0.0,0.0,0.0,0.0,0.0,0.0,0.0,0.0,0.0,0.0,0.0,0.0,0.0,0.0,0.0,0.0,0.0,0.0,0.0,0.0,0.0,0.0,0.0,0.0,0.0,0.0,0.0,0.0,0.0,0.0,0.0,0.0,0.0,0.0,0.0,0.0,0.0,0.0,0.0,0.0,0.0,0.0,0.0,0.0,0.0,0.0,0.0,0.0,0.0,0.0,0.0,0.0,0.0,0.0,0.0,0.0,0.0,0.0,0.0,0.0,0.0,0.0,0.0,0.0,0.0,0.0,0.0,0.0,0.0,0.0,0.0,0.0,0.0,0.0,0.0,0.0,0.0,0.0,0.0,0.0,0.0,0.0,0.0,0.0,0.0,0.0,0.0,0.0,0.0,0.0,0.0,0.0,0.0,0.0,0.0,0.0,0.0,0.0,0.0,0.0,0.0,0.0,0.0,0.0,0.0,0.0,0.0,0.0,0.0,0.0,0.0,0.0,0.0,0.0,0.0,0.0,0.0,0.0,0.0,0.0,0.0,0.0,0.0,0.0,0.0,0.0,0.0,0.0,0.0,0.0,0.0,0.0,0.0,0.0,0.0,0.0,0.0,0.0,0.0,0.0,0.0,0.0,0.0,0.0,0.0,0.0,0.0,0.0,0.0,0.0,0.0,0.0,0.0,0.0,0.0,0.0,0.0,0.0,0.0,0.0,0.0,0.0,0.0,0.0,0.0,0.0,0.0,0.0,0.0,0.0,0.0,0.0,0.0,0.0,0.0,0.0,0.0,0.0,0.0,0.0,0.0,0.0,0.0,0.0,0.0,0.0,0.0,0.0,0.0,0.0,0.0,0.0,0.0,0.0,0.0,0.0,0.0,0.0,0.0,0.0,0.0,0.0,0.0,0.0,0.0,0.0,0.0,0.0,0.0,0.0,0.0,0.0,0.0,0.0,0.0,0.0,0.0,0.0,0.0,0.0,0.0,0.0,0.0,0.0,0.0,0.0,0.0,0.0,0.0,0.0,0.0,0.0,0.0,0.0,0.0,0.0,0.0,0.0,0.0,0.0,0.0,0.0,0.0,0.0,0.0,0.0,0.0,0.0,0.0,0.0,0.0,0.0,0.0,0.0,0.0,0.0,0.0,0.0,0.0,0.0,0.0,0.0,0.0,0.0,0.0,0.0,-1.9712,-1.8541,0.0,0.0,0.0,0.0,0.0,0.0,0.0,0.0,0.0,0.0,0.0,0.0,0.0,0.0,0.0,0.0,0.0,0.0,0.0,0.0,0.0,0.0,0.0,0.0,0.0,0.0,0.0,0.0,0.0,0.0,0.0,0.0,0.0,0.0,0.0,0.0,0.0,0.0,0.0,0.0,0.0,0.0,0.0,0.0,0.0,0.0,0.0,0.0,0.0,0.0,0.0,0.0,0.0,0.0,0.0,0.0,0.0,0.0,0.0,0.0,0.0,0.0,0.0,0.0,0.0,0.0,0.0,0.0,0.0,0.0,0.0,0.0,0.0,0.0,0.0,0.0,0.0,0.0,0.0,0.0,0.0,0.0,0.0,0.0,0.0,0.0,0.0,0.0,0.0,0.0,0.0,0.0,0.0,0.0,0.0,0.0,0.0,0.0,0.0,0.0,0.0,0.0,0.0,0.0,0.0,0.0,0.0,0.0,0.0,0.0,0.0,0.0,0.0,0.0,-2.1341,-2.0259,0.0,0.0,0.0,0.0,0.0,0.0,0.0,0.0,0.0,0.0,0.0,0.0,0.0,0.0,0.0,0.0,0.0,0.0,0.0,0.0,0.0,0.0,0.0,0.0,0.0,0.0,0.0,0.0,0.0,0.0,0.0,0.0,0.0,0.0,0.0,0.0,0.0,0.0,0.0,0.0,0.0,0.0,0.0,0.0,0.0,0.0,0.0,0.0,0.0,0.0,0.0,0.0,0.0,0.0,0.0,0.0,0.0,0.0,0.0,0.0,0.0,0.0,0.0,0.0,0.0,0.0,0.0,0.0,0.0,0.0,0.0,0.0,0.0,0.0,0.0,0.0,0.0,0.0,0.0,0.0,0.0,0.0,0.0,0.0,0.0,0.0,0.0,0.0,0.0,0.0,0.0,0.0,0.0,0.0,0.0,0.0,0.0,0.0,0.0,0.0,0.0,0.0,0.0,0.0,0.0,0.0,0.0,0.0,-2.3161,-2.3462,-2.3552,-2.4834,-2.4909,-2.3915,-2.2317,-2.1674,-2.1734,-2.0886,0.0,0.0,0.0,0.0,0.0,0.0,0.0,0.0,0.0,0.0,0.0,0.0,0.0,0.0,0.0,0.0,0.0,0.0,0.0,0.0,0.0,-1.1714,-1.2725,-1.2135,-1.3367,-1.4197,0.0,0.0,0.0,0.0,0.0,0.0,0.0,0.0,0.0,0.0,0.0,0.0,-1.9011,-1.9192,-1.9122,-1.8766,-1.7754,0.0,0.0,0.0,0.0,0.0,0.0,0.0,0.0,0.0,0.0,0.0,0.0,0.0,0.0,0.0,0.0,0.0,0.0,0.0,0.0,0.0,0.0,0.0,0.0,0.0,0.0,0.0,0.0,0.0,0.0,0.0,0.0,0.0,0.0,0.0,0.0,0.0,0.0,0.0,0.0,0.0,0.0,0.0,-1.492,-1.6313,0.0,0.0,0.0,0.0,0.0,0.0,0.0,0.0,0.0,0.0,0.0,0.0,0.0,-2.1867,-2.2622,-2.3128,-2.3798,-2.4615,-2.4771,-2.4651,-2.4366,-2.4901,-2.4896,-2.4413,-2.4151,0.0,-2.2509,-2.1748,0.0,0.0,0.0,0.0,0.0,0.0,0.0,0.0,0.0,0.0,0.0,0.0,0.0,0.0,0.0,0.0,0.0,0.0,0.0,0.0,0.0,-1.2615,-1.3431,-1.4071,-1.5111,-1.5606,-1.5298,0.0,0.0,0.0,0.0,0.0,0.0,0.0,0.0,0.0,-1.785,-1.8741,-1.9138,-1.9538,-1.9959,-2.0323,-1.9344,-1.8389,-1.7527,-1.7537,0.0,0.0,0.0,0.0,0.0,0.0,0.0,0.0,0.0,0.0,0.0,0.0,0.0,0.0,0.0,0.0,0.0,0.0,0.0,0.0,0.0,0.0,0.0,0.0,0.0,0.0,0.0,0.0,0.0,0.0,0.0,0.0,0.0,0.0,0.0,0.0,0.0,0.0,0.0,-1.4786,-1.6119,-1.7507,-1.7523,-1.744,0.0,0.0,0.0,0.0,0.0,0.0,0.0,0.0,0.0,-2.1859,-2.2613,-2.3406,-2.4217,-2.4608,-2.5099,-2.5677,-2.5899,-2.5681,-2.5151,-2.6158,-2.6295,-2.576,-2.6167,-2.6062,-2.5437,-2.3619,-2.287,-2.2757,0.0,0.0,0.0,0.0,-2.1082,-2.1754,0.0,0.0,0.0,0.0,0.0,0.0,0.0,0.0,0.0,0.0,0.0,0.0,-1.2951,-1.3507,-1.4283,-1.5613,-1.6353,-1.6568,-1.6134,-1.7108,0.0,0.0,0.0,0.0,0.0,0.0,0.0,-1.7412,-1.9359,-2.005,-1.9614,-2.0421,-2.1143,-2.1687,-2.1293,-2.0006,-1.817,-1.8332,-1.7995,0.0,0.0,0.0,0.0,0.0,0.0,0.0,0.0,0.0,0.0,0.0,0.0,0.0,0.0,0.0,0.0,0.0,0.0,0.0,0.0,0.0,0.0,0.0,0.0,0.0,0.0,0.0,0.0,0.0,0.0,0.0,0.0,0.0,0.0,0.0,0.0,0.0,0.0,-1.6751,-1.7853,-1.9368,-1.9148,-1.8799,0.0,0.0,0.0,0.0,0.0,0.0,-2.1688,-2.2251,-2.2751,-2.3221,-2.4251,-2.4969,-2.5386,-2.6337,-2.6786,-2.6766,-2.7339,-2.7196,-2.6505,-2.7691,-2.7895,-2.7334,-2.7875,-2.8094,-2.791,-2.539,-2.4563,-2.4795,-2.3543,-2.3191,-2.3393,-2.3242,-2.3435,-2.3919,0.0,0.0,0.0,0.0,0.0,0.0,0.0,0.0,0.0,0.0,0.0,-1.1409,-1.2173,-1.4245,-1.5637,-1.5784,-1.6476,-1.6892,-1.6934,-1.6354,-1.6003,-1.5969,0.0,0.0,0.0,0.0,0.0,-1.8248,-1.9056,-2.0153,-2.1482,-2.2534,-2.3065,-2.3135,-2.3855,-2.3513,-2.228,-2.0542,-1.9919,-2.0026,0.0,0.0,0.0,0.0,0.0,0.0,0.0,0.0,0.0,0.0,0.0,0.0,0.0,0.0,0.0,0.0,0.0,0.0,0.0,0.0,0.0,0.0,0.0,0.0,0.0,0.0,0.0,0.0,0.0,0.0,0.0,0.0,0.0,0.0,0.0,0.0,0.0,0.0,0.0,-2.3009,-2.2218,0.0,0.0,0.0,0.0,-2.1904,-2.1971,-2.2506,-2.3697,-2.3731,-2.3932,-2.4401,-2.623,-2.6877,-2.614,-2.8742,-2.9468,-2.831,-2.9474,-2.96,-2.8842,-2.9231,-2.9213,-2.8891,-2.8925,-2.8942,-2.8756,-2.6454,-2.6379,-2.7546,-2.5946,-2.5997,-2.6903,-2.6579,-2.6201,-2.5932,0.0,0.0,0.0,0.0,0.0,0.0,0.0,0.0,0.0,-1.1091,-1.1557,-1.2518,-1.438,-1.5172,-1.6049,-1.7239,-1.7427,-1.734,-1.702,-1.7763,-1.8006,0.0,0.0,0.0,0.0,0.0,-1.8839,-1.9719,-2.0668,-2.1643,-2.2629,-2.3029,-2.372,-2.4676,-2.4488,-2.4852,-2.5449,-2.3271,-2.1379,-1.9861,-2.0039,-1.9753,0.0,0.0,0.0,0.0,0.0,0.0,0.0,0.0,0.0,0.0,0.0,0.0,0.0,0.0,0.0,0.0,0.0,0.0,0.0,0.0,0.0,0.0,0.0,0.0,0.0,0.0,0.0,0.0,0.0,0.0,0.0,0.0,0.0,0.0,0.0,0.0,0.0,-2.2543,-2.2929,0.0,-2.4038,-2.3803,-2.4035,-2.5054,-2.5372,-2.5698,-2.6144,-2.6862,-2.7349,-2.7531,-2.8654,-2.9243,-2.9212,-3.0409,-3.0911,-3.0721,-3.0896,-3.0669,-3.0108,-3.0214,-3.0055,-2.9736,-3.0192,-3.0431,-3.033,-2.9042,-2.8408,-2.8172,-2.7122,-2.7165,-2.7803,-2.7836,-2.7741,-2.7728,0.0,0.0,0.0,0.0,0.0,0.0,0.0,0.0,0.0,-1.1067,-1.1554,-1.2752,-1.5164,-1.5508,-1.6164,-1.7636,-1.7358,-1.7066,-1.6996,-1.7818,-1.8452,0.0,-2.0172,0.0,0.0,-1.9308,-1.9753,-2.0676,-2.1739,-2.2642,-2.3369,-2.375,-2.4495,-2.547,-2.5512,-2.6099,-2.6903,-2.5619,-2.3564,-2.1124,-2.0898,-2.0778,-2.0636,0.0,0.0,0.0,0.0,0.0,0.0,0.0,0.0,0.0,0.0,0.0,0.0,0.0,0.0,0.0,0.0,0.0,0.0,0.0,0.0,0.0,0.0,0.0,0.0,0.0,0.0,0.0,0.0,0.0,0.0,0.0,0.0,0.0,0.0,-2.1489,-2.2845,-2.3869,-2.463,-2.535,-2.6014,-2.6059,-2.643,-2.7307,-2.7766,-2.8127,-2.8375,-2.9139,-2.9571,-2.9571,-3.044,-3.0905,-3.0902,-3.1761,-3.2143,-3.1996,-3.2007,-3.1672,-3.108,-3.1358,-3.1104,-3.0514,-3.1241,-3.1427,-3.1157,-3.0666,-3.0133,-2.952,-2.8495,-2.8456,-2.8999,-2.9148,-2.9143,-2.9179,0.0,0.0,0.0,0.0,0.0,0.0,0.0,-0.9581,-1.034,-1.1005,-1.1127,-1.2008,-1.4311,-1.5239,-1.6029,-1.6842,-1.6157,-1.6048,-1.691,-1.633,-1.7088,0.0,0.0,0.0,-1.8187,-1.9577,-2.058,-2.1084,-2.2136,-2.3022,-2.3779,-2.4868,-2.5429,-2.554,-2.71,-2.7383,-2.6712,-2.7475,-2.6447,-2.4108,-2.1823,-2.1372,-2.1883,0.0,0.0,0.0,0.0,0.0,0.0,0.0,0.0,0.0,0.0,0.0,0.0,0.0,0.0,0.0,0.0,0.0,0.0,0.0,0.0,0.0,0.0,0.0,0.0,0.0,0.0,0.0,0.0,0.0,0.0,0.0,0.0,0.0,-2.2778,-2.3768,-2.5302,-2.7311,-2.752,-2.7659,-2.8122,-2.8186,-2.834,-2.866,-2.9079,-2.9639,-3.0394,-3.0445,-3.0462,-3.048,-3.1621,-3.1848,-3.1074,-3.2931,-3.3282,-3.2101,-3.2907,-3.2798,-3.1877,-3.2692,-3.2393,-3.1309,-3.2022,-3.1938,-3.1258,-3.1241,-3.1481,-3.1702,-3.0179,-3.0058,-3.0751,-3.0681,-3.0411,-3.0243,0.0,0.0,0.0,0.0,0.0,0.0,0.0,-0.954,-1.031,-1.1068,-1.1547,-1.2789,-1.5311,-1.575,-1.6193,-1.7034,-1.5802,-1.5327,-1.615,-1.6551,-1.8167,0.0,0.0,0.0,-2.1298,-2.1234,-2.1767,-2.2969,-2.3509,-2.4157,-2.4943,-2.5252,-2.6017,-2.7155,-2.7603,-2.8007,-2.8326,-2.7952,-2.7431,-2.6605,-2.422,-2.3134,-2.2767,0.0,0.0,0.0,0.0,0.0,0.0,0.0,0.0,0.0,0.0,0.0,0.0,0.0,0.0,0.0,0.0,0.0,0.0,0.0,0.0,0.0,0.0,0.0,0.0,0.0,0.0,0.0,0.0,0.0,0.0,0.0,-2.4192,-2.4874,-2.4416,-2.6372,-2.8097,-2.8658,-2.9186,-3.011,-3.1701,-3.102,-3.1131,-3.2659,-3.2352,-3.243,-3.3224,-3.3549,-3.4,-3.4634,-3.4976,-3.5038,-3.4818,-3.5343,-3.5127,-3.4191,-3.5027,-3.4625,-3.3125,-3.3952,-3.3755,-3.2814,-3.3017,-3.2983,-3.2763,-3.2205,-3.2391,-3.2855,-3.1625,-3.1516,-3.1965,-3.1602,-3.1236,-3.092,0.0,0.0,0.0,0.0,0.0,0.0,0.0,-0.9297,-1.0174,-1.0565,-1.1262,-1.2421,-1.4209,-1.469,-1.5095,-1.5601,-1.5088,-1.5083,-1.5892,-1.7677,0.0,0.0,0.0,-2.046,-2.2237,-2.2191,-2.27,-2.3907,-2.4103,-2.4438,-2.4915,-2.5595,-2.6392,-2.7328,-2.8007,-2.8565,-2.8968,-2.8503,-2.8117,-2.7677,-2.6264,-2.5085,-2.405,-2.28,-2.236,-2.2327,-2.1529,-2.0705,-1.9962,-1.9657,0.0,0.0,0.0,0.0,0.0,0.0,0.0,0.0,0.0,0.0,0.0,0.0,0.0,0.0,0.0,0.0,0.0,0.0,0.0,0.0,0.0,0.0,0.0,0.0,-2.7327,-2.8514,-2.8669,-2.9376,-3.013,-3.0819,-3.1578,-3.2606,-3.4129,-3.3436,-3.346,-3.4803,-3.4307,-3.4306,-3.5157,-3.5418,-3.5789,-3.6285,-3.6303,-3.6303,-3.6303,-3.6303,-3.6046,-3.5555,-3.6064,-3.552,-3.4146,-3.4907,-3.4715,-3.3741,-3.4049,-3.4123,-3.398,-3.3348,-3.3351,-3.3624,0.0,0.0,0.0,0.0,-3.2056,-3.2036,0.0,0.0,0.0,0.0,0.0,0.0,0.0,-0.8968,-1.0013,-0.9847,-1.0615,-1.1482,-1.2255,-1.3021,-1.3476,-1.3493,-1.4327,-1.5212,-1.609,-1.8777,0.0,-1.7492,-2.0206,-2.1805,-2.1923,-2.2721,-2.3492,-2.419,-2.419,-2.4245,-2.4373,-2.5897,-2.6649,-2.6796,-2.8326,-2.906,-2.9133,-2.9042,-2.8638,-2.8062,-2.797,-2.6972,-2.545,-2.4764,-2.4467,-2.4292,-2.3609,-2.286,-2.2095,-2.1387,0.0,0.0,0.0,0.0,0.0,0.0,0.0,0.0,0.0,0.0,0.0,0.0,0.0,0.0,0.0,0.0,0.0,0.0,0.0,0.0,0.0,0.0,0.0,0.0,-3.0864,-3.3041,-3.3954,-3.2552,-3.196,-3.3459,-3.4226,-3.492,-3.5747,-3.5403,-3.5334,-3.5781,-3.54,-3.5518,-3.6376,-3.6431,0.0,0.0,0.0,-3.6615,-3.6707,-3.6615,-3.6523,-3.6431,-3.6523,-3.5991,-3.4942,-3.5702,-3.5441,-3.4399,-3.5117,-3.529,-3.5031,-3.4591,-3.4364,-3.4196,-3.2923,-3.2814,-3.3322,-3.2581,-3.2763,-3.3203,0.0,0.0,0.0,0.0,0.0,0.0,0.0,-0.8973,-1.0016,-0.9968,-1.0646,-1.1631,-1.3014,-1.3269,-1.3377,-1.3493,-1.4482,-1.5666,-1.6961,0.0,-1.7807,-1.9889,-2.0483,-2.139,-2.2731,-2.3566,-2.4043,-2.419,-2.419,-2.453,-2.5191,-2.6153,-2.6961,-2.7603,-2.8565,-2.9354,-2.9934,-2.928,-2.928,-2.9677,-2.9023,-2.7794,-2.6282,-2.5506,-2.4799,-2.4145,-2.3363,-2.2958,-2.282,-2.2772,-2.2978,-2.3156,-2.2607,0.0,0.0,0.0,0.0,0.0,0.0,0.0,0.0,0.0,0.0,0.0,0.0,0.0,0.0,0.0,0.0,0.0,0.0,0.0,0.0,-3.137,-3.2807,-3.4082,-3.5605,-3.5475,-3.5359,-3.5685,-3.5835,-3.6256,-3.7058,-3.6494,-3.6347,-3.7076,-3.6457,-3.6413,-3.7217,-3.7272,-3.786,-3.9148,-3.8579,-3.8542,-3.9203,-3.856,-3.79,-3.729,-3.7936,0.0,-3.572,-3.6552,-3.6369,-3.5358,-3.5931,-3.6145,-3.6095,-3.578,-3.544,-3.4958,-3.3686,-3.3271,-3.3322,-3.2581,-3.2763,-3.3271,0.0,0.0,0.0,0.0,0.0,0.0,0.0,-0.9269,-1.0195,-1.059,-1.1008,-1.1855,-1.3465,-1.3658,-1.3846,-1.4356,-1.4833,-1.5564,0.0,-1.6539,-1.7157,-1.8731,-2.0304,-2.173,-2.2969,-2.3786,-2.419,-2.419,-2.419,-2.442,-2.4824,-2.6025,-2.6814,-2.7255,-2.8455,-2.9445,-3.0155,-2.9335,-2.9464,-3.0099,-2.8888,-2.7915,-2.7108,-2.63,-2.5503,-2.4695,-2.3896,-2.3602,-2.3612,-2.3676,-2.398,-2.4247,-2.3919,-2.3427,-2.2899,0.0,0.0,0.0,0.0,0.0,0.0,0.0,0.0,0.0,0.0,0.0,0.0,0.0,0.0,-2.7308,0.0,0.0,-3.1776,-3.4157,-3.517,-3.6064,-3.7331,-3.7496,-3.7349,-3.696,-3.6905,-3.7217,-3.801,-3.7367,-3.7221,-3.8028,-3.7364,-3.7254,-3.8046,-3.8102,-3.8652,-3.9845,-3.9515,-3.9698,-4.0487,-4.0086,-3.9698,-3.9313,-3.9717,-3.893,-3.719,-3.7969,-3.7691,-3.6598,-3.7116,-3.7484,-3.7668,-3.7166,-3.6682,-3.619,-3.5551,-3.4964,-3.4366,-3.3254,-3.3541,-3.4303,0.0,0.0,0.0,0.0,0.0,0.0,0.0,0.0,-1.0402,-1.1208,-1.1373,-1.2019,-1.3656,-1.4097,-1.4714,-1.5848,-1.5076,0.0,0.0,-1.6454,-1.6693,-1.7117,-2.0008,-2.2056,-2.3042,-2.3713,-2.4118,-2.4266,-2.4266,-2.4237,-2.4226,-2.5695,-2.6479,-2.6714,-2.8176,-2.9388,-3.0282,-2.9432,-2.9446,-2.9906,-2.8408,-2.7728,-2.7532,-2.6741,-2.5993,-2.5293,-2.4513,-2.4118,-2.3997,-2.4182,-2.4228,-2.4236,-2.4431,-2.4149,-2.3719,-2.3634,-2.324,0.0,0.0,0.0,0.0,0.0,0.0,0.0,0.0,0.0,-2.7654,-2.8408,-2.9532,-3.0714,-3.189,-3.3518,-3.5137,-3.6552,-3.7584,-3.8374,-3.8854,-3.8927,-3.8634,-3.7841,-3.7731,-3.7988,-3.8634,-3.8102,-3.7991,-3.8652,-3.8102,-3.8065,-3.8891,-3.8927,-3.9368,-4.0341,-4.0212,-4.0524,-4.1315,-4.1168,-4.1095,-4.1095,-4.1095,-4.027,-3.8783,-3.9386,-3.9017,-3.7941,-3.8455,-3.8866,-3.9135,-3.8519,-3.7899,-3.7341,-3.7341,-3.6746,-3.5727,-3.4312,-3.4541,-3.5312,0.0,0.0,0.0,0.0,0.0,0.0,0.0,0.0,0.0,-1.1288,-1.1395,-1.1978,-1.3463,-1.4533,-1.5981,-1.806,0.0,0.0,-1.7061,-1.5692,-1.5735,-1.7869,-1.9867,-2.1644,-2.3223,-2.3472,-2.3866,-2.4461,-2.4461,-2.4375,-2.4226,-2.5117,-2.601,-2.6916,-2.78,-2.9184,-3.0763,-2.977,-2.9417,-2.9396,-2.8264,-2.7485,-2.6916,-2.6098,-2.5634,-2.5312,-2.4616,-2.385,-2.3254,-2.4107,-2.4303,-2.4357,-2.5245,-2.5099,-2.4598,-2.4695,0.0,-2.3017,-2.3552,-2.331,-2.3439,-2.5719,-2.6367,-2.7421,0.0,0.0,-3.2034,-3.2618,-3.3277,-3.3706,-3.36,-3.5519,-3.7397,-3.8285,-3.9717,-4.0487,-3.9845,-3.9772,-3.946,-3.867,-3.8579,-3.8597,-3.8689,-3.8615,-3.8597,-3.8689,-3.8615,-3.8909,-3.9717,-3.9772,-4.0451,-4.1974,-4.135,-4.1352,-4.2158,-4.1462,-4.1095,-4.1095,-4.1095,-4.0752,-4.0076,-4.0166,-3.9906,-3.9388,-3.9872,-3.9982,-3.98,-3.9708,-3.8937,-3.7825,-3.7825,-3.7488,-3.6856,-3.5566,-3.5313,-3.5464,0.0,0.0,0.0,0.0,0.0,0.0,0.0,0.0,0.0,0.0,-1.1875,-1.278,-1.4402,-1.5911,-1.7365,-1.8773,0.0,0.0,-1.6556,-1.4944,-1.478,-1.6731,-1.8964,-2.0725,-2.1946,-2.2973,-2.3632,-2.3915,-2.4418,-2.4631,-2.458,-2.5358,-2.5969,-2.641,-2.7226,-2.8528,-3.0047,-2.8697,-2.8652,-2.9355,-2.7503,-2.6606,-2.6224,-2.4931,-2.4062,-2.3627,-2.4364,-2.4033,0.0,0.0,-2.4087,-2.4544,-2.4896,-2.5288,-2.5627,-2.5659,-2.5759,0.0,-2.5628,-2.6431,-2.7462,0.0,-2.9597,-3.162,-3.3898,-3.4975,-3.5723,-3.6453,-3.7043,-3.7547,-3.7866,-3.8215,-3.8711,0.0,-3.9703,-3.9588,-3.9258,-3.9203,-3.8891,-3.8102,-3.7991,-3.8193,-3.8652,-3.8707,-3.8707,-3.8707,-3.8707,-3.9056,-3.9845,-3.99,-4.0634,-4.2249,-4.1974,-4.2176,-4.2983,-4.2653,-4.2506,-4.2506,-4.2506,-4.1972,-4.1016,-4.1485,-4.1318,-4.0661,-4.0851,-4.0543,-3.99,-3.99,-3.9292,-3.8366,-3.8366,-3.8048,-3.7453,-3.6177,-3.5864,-3.5972,0.0,0.0,0.0,0.0,0.0,0.0,0.0,0.0,0.0,0.0,0.0,-1.3037,-1.4756,-1.6493,-1.776,0.0,0.0,0.0,0.0,-1.4409,-1.4046,-1.519,-1.7474,-1.9254,-2.0359,-2.1858,-2.2937,-2.358,-2.4198,-2.462,-2.4816,-2.5405,-2.5816,-2.6113,-2.6692,-2.7755,-2.9044,-2.7815,-2.7829,-2.8539,-2.6736,-2.5612,-2.4908,-2.368,-2.2729,-2.223,-2.3644,-2.3551,0.0,0.0,-2.3859,-2.4445,-2.4877,-2.546,-2.6113,-2.6827,-2.7661,-2.8161,-2.7305,-2.8739,0.0,-3.0563,-3.2756,-3.5244,-3.6573,-3.7675,-3.8626,-3.9404,-3.9615,-3.9777,-4.0129,-3.9713,-3.9547,-4.0258,-3.9808,-3.9368,-3.9368,-3.8982,-3.8395,-3.7603,-3.7309,-3.7386,-3.7973,-3.8248,-3.8377,-3.8377,-3.8781,-3.9386,-4.0194,-4.0432,-4.1203,-4.258,-4.2635,-4.291,-4.3496,-4.3515,-4.3515,-4.3515,-4.3515,-4.2992,-4.2069,-4.2649,-4.2576,-4.1978,-4.1978,-4.1447,-4.0561,-4.0561,-3.9955,-3.9056,-3.9276,-3.8994,-3.8336,-3.7414,-3.6779,-3.6309,0.0,0.0,0.0,0.0,0.0,0.0,0.0,0.0,0.0,0.0,0.0,0.0,0.0,0.0,-1.6611,0.0,0.0,0.0,0.0,-1.416,-1.3597,-1.3577,-1.5329,-1.7104,-1.8826,-1.9878,-2.1502,-2.3786,-2.3824,-2.4164,-2.4804,-2.4816,-2.535,-2.6295,-2.6314,-2.6936,-2.7926,-2.7619,-2.7076,-2.639,-2.6106,-2.4633,-2.2601,-2.2544,-2.2158,-2.1701,-2.2342,0.0,-2.1355,-2.3163,-2.367,-2.3858,-2.5753,-2.5789,0.0,-2.8324,-2.9182,-2.9076,-2.8207,0.0,-3.1069,-3.3441,-3.5354,-3.7276,-3.9785,-4.0373,-4.0559,-4.1113,-4.0371,-3.9354,-3.8539,-3.9198,-3.9967,-4.0257,-4.0708,-4.1022,-4.1022,-3.9664,-3.8395,-3.7603,-3.6813,-3.634,-3.6376,-3.7088,-3.7547,-3.7547,-3.898,-4.0212,-4.1022,-4.1809,-4.2598,-4.3441,-4.346,-4.3478,-4.3515,-4.3515,-4.3515,-4.3515,-4.3515,-4.3479,-4.3425,-4.3462,-4.3462,-4.3425,-4.3425,-4.2983,-4.2231,-4.2231,-4.1295,-3.9937,-4.071,-4.0526,-3.9829,-3.9795,-3.8367,-3.6395,0.0,0.0,0.0,0.0,0.0,0.0,0.0,0.0,0.0,0.0,0.0,0.0,0.0,0.0,0.0,0.0,0.0,0.0,0.0,-1.4035,-1.3395,-1.4441,-1.4605,-1.521,-1.6389,-1.7313,-1.8424,-1.9748,-2.0917,-2.1871,-2.2611,-2.3195,-2.3642,-2.3976,-2.3976,-2.4504,-2.5337,-2.4662,-2.4565,-2.4724,-2.3506,-2.2536,-2.1842,-2.1897,-2.1419,-2.0916,0.0,0.0,-2.2362,-2.3487,-2.388,-2.4006,-2.4551,-2.5823,-2.7505,-2.9577,-3.0589,-3.1061,-3.1259,0.0,-3.5875,-3.7247,-3.8842,-4.0604,-4.2566,-4.2604,-4.228,-4.2454,-4.0823,-3.9222,-3.8833,-3.8048,-3.7756,-3.8695,-3.891,-3.9106,-3.9473,-3.9038,-3.8193,-3.6853,-3.6942,-3.6464,-3.4798,-3.5881,-3.6942,-3.7456,-3.8487,-3.9698,-4.1022,-4.1864,-4.2671,-4.3478,-4.3515,-4.3515,-4.3515,-4.3515,-4.3515,-4.3515,-4.3515,-4.3515,-4.3515,-4.3515,-4.3515,-4.3515,-4.3515,-4.3039,-4.2304,-4.2304,-4.168,-4.0726,-4.0985,-4.0693,-4.0092,-4.0092,-3.9142,-3.7771,0.0,0.0,0.0,0.0,0.0,0.0,0.0,0.0,0.0,0.0,0.0,0.0,0.0,0.0,0.0,0.0,0.0,0.0,0.0,0.0,-1.3887,-1.4612,-1.4769,-1.524,-1.6102,-1.6983,-1.7979,-1.9093,-1.9596,-2.0262,-2.107,-2.1008,-2.0997,-2.1032,-2.1301,-2.1747,-2.2245,-2.167,-2.2125,-2.3083,-2.1652,-2.1088,-2.1117,-2.1156,-2.0814,0.0,0.0,0.0,-2.2546,-2.3602,-2.4235,-2.4666,-2.5195,-2.705,-2.9175,-2.9966,-3.1437,-3.2948,-3.3685,-3.6383,-3.9259,-4.0389,-4.1681,-4.2989,-4.4047,-4.3431,-4.2374,-4.147,-3.9621,-3.7899,-3.699,-3.5855,-3.5476,-3.672,-3.6708,-3.696,-3.8166,-3.8096,-3.7732,-3.7217,-3.7364,-3.6997,-3.5679,-3.6523,-3.7129,-3.7088,-3.8872,-4.0322,-4.1058,-4.2139,-4.2965,-4.3478,-4.3515,-4.3515,-4.3515,-4.3515,-4.3515,-4.3515,-4.3515,-4.3515,-4.3515,-4.3515,-4.3515,-4.3515,-4.3515,-4.3221,-4.2727,-4.2727,-4.2249,-4.157,-4.1864,-4.155,-4.0962,-4.0962,-4.0277,-3.9149,0.0,0.0,0.0,0.0,0.0,0.0,0.0,0.0,0.0,0.0,0.0,0.0,0.0,0.0,0.0,0.0,0.0,0.0,0.0,0.0,0.0,-1.4151,-1.561,-1.6836,-1.7652,-1.8484,-1.9706,-2.1338,-1.9724,-1.9382,-2.0192,-1.8582,-1.787,-1.7965,-1.8727,-1.91,-1.9143,-1.9142,-2.0099,-2.1536,-2.0664,-2.0293,-2.0275,-2.0368,0.0,0.0,0.0,0.0,0.0,-2.3573,-2.4716,-2.5781,-2.7567,-2.9311,-3.0544,-2.9833,-3.199,-3.477,-3.5592,-3.8243,-4.1174,-4.2824,-4.3778,-4.4297,-4.4239,-4.2874,-4.0912,-3.845,-3.6936,-3.5405,0.0,0.0,-3.3336,-3.4572,-3.4431,-3.5025,-3.7424,-3.7087,-3.7123,0.0,0.0,0.0,0.0,0.0,-3.823,-3.6597,-4.0065,-4.1919,-4.1187,-4.2653,-4.3515,-4.3515,-4.3515,-4.3515,-4.3515,-4.3515,-4.3515,-4.3515,-4.3515,-4.3515,-4.3515,-4.3515,-4.3515,-4.3515,-4.3515,-4.3515,-4.3515,-4.3515,-4.3039,-4.2433,-4.3185,-4.302,-4.2326,-4.2326,-4.165,-4.0462,0.0,0.0,0.0,0.0,0.0,0.0,0.0,0.0,0.0,0.0,0.0,0.0,0.0,0.0,0.0,0.0,0.0,0.0,0.0,0.0,0.0,0.0,0.0,0.0,0.0,0.0,0.0,-1.7877,-1.8023,-1.8542,-1.9418,-1.961,-1.9711,-1.9743,-1.9949,-2.0409,-2.1005,-2.1007,-2.1264,-2.1595,0.0,-1.9641,-1.8677,0.0,0.0,0.0,0.0,0.0,0.0,0.0,0.0,0.0,0.0,-3.0187,-3.0994,-3.3321,-3.5494,-3.7604,-3.9644,-4.1751,-4.3613,-4.469,-4.4624,-4.4143,-4.3547,-4.1104,-3.8604,-3.7296,-3.4772,-3.2584,0.0,0.0,0.0,-3.4102,-3.4914,0.0,-3.8144,-3.8269,0.0,-3.8652,0.0,-3.9129,-3.8744,-4.0341,-4.0708,-3.9093,-4.0487,-4.1572,-4.1974,-4.2947,-4.3515,-4.3515,-4.3515,-4.3515,-4.3515,-4.3515,-4.3515,-4.3515,-4.3515,-4.3515,-4.3515,-4.3515,-4.3515,-4.3515,-4.3515,-4.3515,-4.3515,-4.3515,-4.3386,-4.3221,-4.3423,-4.3122,-4.2594,-4.2594,-4.2137,-4.1368,0.0,0.0,0.0,0.0,0.0,0.0,0.0,0.0,0.0,0.0,0.0,0.0,0.0,0.0,0.0,0.0,0.0,0.0,0.0,0.0,0.0,0.0,0.0,0.0,0.0,0.0,0.0,0.0,0.0,0.0,-1.8004,-1.7727,-1.781,-1.8216,-1.8575,-1.901,-1.9503,-1.947,0.0,0.0,0.0,0.0,0.0,0.0,0.0,0.0,0.0,0.0,0.0,0.0,0.0,-2.8229,-3.038,-3.1848,-3.3258,-3.5881,0.0,-4.0106,-4.1886,-4.3583,-4.4998,-4.5479,-4.4682,-4.3459,-4.2271,-3.9353,-3.6356,-3.4385,-3.2152,0.0,-2.9443,-2.9589,0.0,0.0,0.0,0.0,-3.6911,-3.7831,-3.863,0.0,-4.0157,0.0,-4.0781,-4.2029,-4.2451,-4.1534,-4.1901,-4.2194,-4.2286,-4.3057,-4.3515,-4.3515,-4.3515,-4.3515,-4.3515,-4.3515,-4.3515,-4.3515,-4.3515,-4.3515,-4.3515,-4.3515,-4.3515,-4.3515,-4.3515,-4.3515,-4.3515,-4.3515,-4.3515,-4.3515,-4.3515,-4.3322,-4.305,-4.305,-4.2694,-4.217,0.0,0.0,0.0,0.0,0.0,0.0,0.0,0.0,0.0,0.0,0.0,0.0,0.0,0.0,0.0,0.0,0.0,0.0,0.0,0.0,0.0,0.0,0.0,0.0,0.0,0.0,0.0,0.0,0.0,0.0,0.0,0.0,0.0,0.0,0.0,0.0,0.0,0.0,0.0,0.0,0.0,0.0,0.0,0.0,0.0,0.0,0.0,0.0,0.0,0.0,-2.7177,-2.9694,-3.1532,-3.3861,-3.626,-3.8007,-4.0142,-4.2194,-4.317,-4.4489,-4.5594,-4.5594,-4.4162,-4.2313,-4.0648,-3.7456,-3.3978,-3.0954,0.0,-2.8448,-2.701,-2.7328,-2.8264,-2.9696,0.0,-3.2935,-3.5134,-3.6814,-3.8659,-4.0852,-4.1187,-4.1864,-4.3349,-4.3515,-4.3515,-4.3515,-4.3515,-4.3185,-4.2506,-4.3112,-4.3515,-4.3515,-4.3515,-4.3515,-4.3515,-4.3515,-4.3515,-4.3515,-4.3515,-4.3515,-4.3515,-4.3515,-4.3515,-4.3515,-4.3515,-4.3515,-4.3515,-4.3515,-4.3515,-4.3515,-4.3515,-4.3515,-4.3515,-4.3515,-4.3214,-4.2883,0.0,0.0,0.0,0.0,0.0,0.0,0.0,0.0,0.0,0.0,0.0,0.0,0.0,0.0,0.0,0.0,0.0,0.0,0.0,0.0,0.0,0.0,0.0,0.0,0.0,0.0,0.0,0.0,-1.7607,0.0,0.0,0.0,0.0,0.0,0.0,0.0,0.0,0.0,0.0,0.0,0.0,0.0,0.0,0.0,0.0,0.0,0.0,0.0,0.0,0.0,-2.7628,-3.0681,-3.3044,-3.5534,-3.8048,-4.0439,-4.1958,-4.3209,-4.4748,-4.5383,-4.5594,-4.5594,-4.3267,-4.0531,-3.8889,-3.4814,0.0,0.0,-2.8193,-2.7219,-2.7544,-2.8288,-2.923,-3.0442,0.0,0.0,0.0,0.0,-3.916,0.0,-4.1682,-4.2451,-4.3423,-4.3515,-4.3515,-4.3515,-4.3515,-4.3441,-4.3313,-4.3423,-4.3515,-4.3515,-4.3515,-4.3515,-4.3515,-4.3515,-4.3515,-4.3515,-4.3515,-4.3515,-4.3515,-4.3515,-4.3515,-4.3515,-4.3515,-4.3515,-4.3515,-4.3515,-4.3515,-4.3515,-4.3515,-4.3515,-4.3515,-4.3515,-4.3444,-4.3375,0.0,0.0,0.0,0.0,0.0,0.0,0.0,0.0,0.0,0.0,0.0,0.0,0.0,0.0,0.0,0.0,0.0,0.0,0.0,0.0,0.0,0.0,0.0,0.0,0.0,-1.6591,-1.6608,-1.661,0.0,-1.7046,-1.7898,-1.7909,-1.8359,-1.9199,-1.9205,-1.9431,0.0,0.0,0.0,0.0,-1.889,0.0,0.0,0.0,0.0,0.0,0.0,0.0,0.0,0.0,-2.7187,-2.9721,-3.2689,-3.6013,-3.9232,-4.1342,-4.2847,-4.4109,-4.5352,-4.564,-4.5498,-4.5037,-4.2027,-3.8775,-3.7179,0.0,0.0,0.0,-2.6943,-2.617,-2.6497,0.0,0.0,0.0,0.0,0.0,0.0,0.0,0.0,0.0,-4.1553,-4.2158,0.0,-4.3515,-4.3515,-4.3515,-4.3515,-4.3515,-4.3515,-4.3515,-4.3515,-4.3515,-4.3515,-4.3515,-4.3515,-4.3515,-4.3515,-4.3515,-4.3515,-4.3515,-4.3515,-4.3515,-4.3515,-4.3515,-4.3515,-4.3515,-4.3515,-4.3515,-4.3515,-4.3515,-4.3515,-4.3515,-4.3515,-4.3515,-4.3515,-4.3515,0.0,0.0,0.0,0.0,0.0,0.0,0.0,0.0,0.0,0.0,0.0,0.0,0.0,0.0,0.0,0.0,0.0,0.0,0.0,0.0,0.0,0.0,0.0,0.0,0.0,0.0,0.0,-1.5097,-1.5115,0.0,0.0,0.0,0.0,0.0,-1.7983,-1.7989,-1.7975,-1.7986,0.0,0.0,0.0,-1.6704,0.0,0.0,0.0,0.0,0.0,0.0,0.0,0.0,-2.6115,-2.8249,-3.093,-3.4995,-3.912,-4.0999,-4.2694,-4.4208,-4.5235,-4.5575,-4.5423,-4.4526,-4.0989,-3.7299,-3.5704,-3.1395,0.0,0.0,-2.5861,-2.5426,-2.5198,0.0,-2.6987,0.0,-2.9109,0.0,0.0,0.0,0.0,0.0,0.0,0.0,-4.3386,-4.3515,-4.3515,-4.3515,-4.3515,-4.3515,-4.3515,-4.3515,-4.3515,-4.3515,-4.3515,-4.3515,-4.3515,-4.3515,-4.3515,-4.3515,-4.3515,-4.3515,-4.3515,-4.3515,-4.3515,-4.3515,-4.3515,-4.3515,-4.3515,-4.3515,-4.3515,-4.3515,-4.3515,-4.3515,-4.3515,-4.3515,-4.3515,-4.3515,0.0,0.0,0.0,0.0,0.0,0.0,0.0,0.0,0.0,0.0,0.0,0.0,0.0,0.0,0.0,0.0,0.0,0.0,0.0,0.0,0.0,0.0,0.0,0.0,0.0,0.0,0.0,-1.4122,-1.4199,0.0,0.0,0.0,0.0,0.0,0.0,-1.7913,-1.7915,-1.7918,0.0,0.0,0.0,0.0,0.0,0.0,0.0,0.0,0.0,0.0,0.0,0.0,0.0,-2.7148,-2.7394,-3.1417,-3.6539,-3.901,0.0,0.0,-4.4201,-4.5195,-4.5541,-4.4548,-4.0527,-3.6414,-3.4863,0.0,0.0,-2.4844,-2.5041,-2.5265,-2.4455,-2.5557,-2.6812,-2.7496,0.0,-3.0758,0.0,0.0,0.0,0.0,0.0,0.0,-4.3512,-4.3515,-4.3515,-4.3515,-4.3515,-4.3515,-4.3515,-4.3515,-4.3515,-4.3515,-4.3515,-4.3515,-4.3515,-4.3515,-4.3515,-4.3515,-4.3515,-4.3515,-4.3515,-4.3515,-4.3515,-4.3515,-4.3515,-4.3515,-4.3515,-4.3515,-4.3515,-4.3515,-4.3515,-4.3515,-4.3515,-4.3515,-4.3515,-4.3515,0.0,0.0,0.0,0.0,0.0,0.0,0.0,0.0,0.0,0.0,0.0,0.0,0.0,0.0,0.0,0.0,0.0,0.0,0.0,0.0,0.0,0.0,0.0,0.0,0.0,0.0,-1.3125,-1.3946,-1.4043,0.0,0.0,0.0,0.0,0.0,0.0,-1.6827,-1.6344,-1.6338,0.0,0.0,0.0,0.0,0.0,0.0,0.0,0.0,0.0,0.0,0.0,0.0,0.0,0.0,-2.5683,-2.7787,0.0,0.0,-3.895,-4.1146,-4.3358,-4.4884,-4.5403,-4.3468,-3.9508,-3.5547,-3.3443,0.0,-2.5099,-2.4487,-2.4173,-2.4022,-2.4119,-2.4236,-2.5048,-2.7312,-2.7268,0.0,-3.2519,0.0,0.0,0.0,-4.0804,0.0,0.0,-4.4169,-4.4169,-4.4169,-4.3927,-4.3804,-4.3804,-4.3614,-4.3515,-4.3515,-4.3515,-4.3515,-4.3515,-4.3515,-4.3515,-4.3515,-4.3515,-4.3515,-4.3515,-4.3515,-4.3515,-4.3515,-4.3515,-4.3515,-4.3515,-4.3515,-4.3515,-4.3515,-4.3515,-4.3515,-4.3515,-4.3515,-4.3515,-4.3515,0.0,0.0,0.0,0.0,0.0,0.0,0.0,0.0,0.0,0.0,0.0,0.0,0.0,0.0,0.0,0.0,0.0,0.0,0.0,0.0,0.0,0.0,0.0,0.0,0.0,0.0,-1.2418,-1.3483,-1.3633,-1.426,0.0,0.0,-1.6216,-1.541,0.0,0.0,0.0,0.0,0.0,0.0,0.0,0.0,0.0,0.0,0.0,0.0,0.0,0.0,0.0,0.0,0.0,0.0,0.0,0.0,0.0,0.0,-3.6266,-3.8725,-4.1051,-4.3022,-4.3888,-4.1552,-3.7937,-3.4305,0.0,0.0,-2.4175,-2.3713,-2.3283,-2.3076,-2.3348,-2.3084,-2.3844,-2.696,0.0,-2.7125,-3.1879,0.0,0.0,0.0,0.0,-4.0363,-4.3209,-4.4165,-4.4593,-4.4593,-4.4332,-4.4136,-4.4016,-4.3772,-4.3614,-4.3496,-4.3515,-4.3515,-4.3515,-4.3515,-4.3515,-4.3515,-4.3515,-4.3515,-4.3515,-4.3515,-4.3515,-4.3515,-4.3515,-4.3515,-4.3515,-4.3515,-4.3515,-4.3515,-4.3515,-4.3515,-4.3515,-4.3515,-4.3515,-4.3515,0.0,0.0,0.0,0.0,0.0,0.0,0.0,0.0,0.0,0.0,0.0,0.0,0.0,0.0,0.0,0.0,0.0,0.0,0.0,0.0,0.0,0.0,0.0,0.0,0.0,0.0,-1.0833,-1.2506,-1.273,-1.366,-1.5315,-1.6254,-1.6201,-1.5334,0.0,0.0,0.0,0.0,0.0,0.0,0.0,0.0,0.0,0.0,0.0,0.0,0.0,0.0,0.0,0.0,0.0,0.0,0.0,0.0,0.0,0.0,-3.2754,-3.5116,-3.6721,-3.907,-4.0618,-3.8786,-3.576,-3.2563,0.0,-2.6766,-2.3827,-2.2169,-2.2447,-2.2737,-2.1881,-2.2378,-2.3732,-2.6298,-2.6636,0.0,-3.122,0.0,0.0,0.0,0.0,-3.9262,-4.0709,-4.3121,-4.4593,-4.4593,-4.4612,-4.4433,-4.4013,-4.4001,-4.3833,-4.3496,-4.3515,-4.3515,-4.3515,-4.3515,-4.3515,-4.3515,-4.3515,-4.3515,-4.3515,-4.3515,-4.3515,-4.3515,-4.3515,-4.3515,-4.3515,-4.3515,-4.3515,-4.3515,-4.3515,-4.3515,-4.3515,-4.3515,-4.3515,-4.3515,0.0,0.0,0.0,0.0,0.0,0.0,0.0,0.0,0.0,0.0,0.0,0.0,0.0,0.0,0.0,0.0,0.0,0.0,0.0,0.0,0.0,0.0,0.0,0.0,0.0,0.0,-1.0724,-1.249,-1.2662,-1.3895,-1.6124,-1.6521,-1.6496,-1.613,-1.6347,-1.559,0.0,0.0,0.0,0.0,0.0,0.0,0.0,0.0,0.0,0.0,0.0,0.0,0.0,0.0,0.0,0.0,0.0,0.0,0.0,0.0,0.0,0.0,-3.3066,-3.5156,-3.6406,-3.5248,-3.279,-3.0155,-2.8202,-2.4648,-2.1776,-2.1792,-2.1044,-2.0679,-2.1538,-2.1382,-2.2142,-2.5305,-2.5784,0.0,0.0,0.0,0.0,-3.673,-4.0795,-4.3598,-4.4029,-4.4814,-4.5283,-4.5283,-4.5074,-4.4781,-4.4433,-4.4419,-4.4121,-4.3513,-4.3515,-4.3515,-4.3515,-4.3515,-4.3515,-4.3515,-4.3515,-4.3515,-4.3515,-4.3515,-4.3515,-4.3515,-4.3515,-4.3515,-4.3515,-4.3515,-4.3515,-4.3515,-4.3515,-4.3515,-4.3515,-4.3515,-4.3515,-4.3515,0.0,0.0,0.0,0.0,0.0,0.0,0.0,0.0,0.0,0.0,0.0,0.0,0.0,0.0,0.0,0.0,0.0,0.0,0.0,0.0,0.0,0.0,0.0,0.0,0.0,-0.9835,-1.075,-1.2503,-1.2961,-1.433,-1.6529,-1.7272,-1.7245,-1.6544,-1.6727,-1.564,0.0,0.0,0.0,0.0,0.0,0.0,-1.4223,0.0,0.0,0.0,0.0,0.0,0.0,0.0,0.0,0.0,0.0,0.0,0.0,0.0,-2.3387,-2.6062,0.0,-3.1411,-3.2604,-3.2058,-3.0238,0.0,0.0,-2.3217,-2.0643,-2.0819,-1.9962,-1.9528,-2.0565,-2.0535,-2.1359,-2.4443,-2.5194,0.0,0.0,0.0,0.0,-3.8082,0.0,-4.4297,-4.4624,-4.5229,-4.5594,-4.5594,-4.541,-4.514,-4.4812,-4.48,-4.4441,-4.371,-4.3677,-4.3629,-4.3515,-4.3515,-4.3515,-4.3515,-4.3515,-4.3515,-4.3515,-4.3515,-4.3515,-4.3515,-4.3515,-4.3515,0.0,-4.3515,-4.3515,-4.3515,-4.3515,-4.3515,-4.3515,-4.3515,-4.3515,-4.3515,0.0,0.0,0.0,0.0,0.0,0.0,0.0,0.0,0.0,0.0,0.0,0.0,0.0,0.0,0.0,0.0,0.0,0.0,0.0,0.0,0.0,0.0,0.0,0.0,0.0,-0.9997,-1.0907,-1.2596,-1.3607,-1.4946,-1.6624,-1.8309,-1.8228,-1.668,-1.7195,-1.5994,-1.3527,-1.2606,-1.2324,-1.2489,-1.2494,-1.2493,0.0,0.0,0.0,0.0,0.0,0.0,0.0,0.0,0.0,0.0,0.0,0.0,0.0,0.0,0.0,0.0,0.0,0.0,0.0,0.0,0.0,0.0,-2.4651,-2.2296,0.0,-1.9453,-1.9244,-1.9206,-1.9191,-1.9903,-2.1294,-2.3716,-2.4783,0.0,0.0,-3.2811,0.0,0.0,-4.1008,-4.2335,-4.3028,-4.4613,-4.5594,-4.5594,-4.5594,-4.5448,-4.5107,-4.5118,-4.4806,-4.4076,-4.4058,-4.3896,-4.3496,-4.3515,-4.3515,-4.3515,-4.3515,-4.3515,-4.3515,-4.3515,-4.3515,-4.3515,-4.3515,-4.3515,-4.3515,-4.3515,-4.3515,-4.3515,-4.3515,-4.3515,-4.3515,-4.3515,-4.3515,-4.3515,0.0,0.0,0.0,0.0,0.0,0.0,0.0,0.0,0.0,0.0,0.0,0.0,0.0,0.0,0.0,0.0,0.0,0.0,0.0,0.0,0.0,0.0,0.0,0.0,0.0,-1.0884,-1.1789,-1.3578,-1.4478,-1.5808,-1.7503,-1.7932,-1.786,-1.734,-1.6826,-1.5448,-1.3437,-1.1935,-1.1715,-1.2354,-1.2358,-1.238,0.0,0.0,0.0,0.0,-1.2756,-1.33,0.0,0.0,0.0,0.0,0.0,0.0,0.0,0.0,-1.8725,-1.979,-2.1478,0.0,-2.393,-2.5204,-2.4255,-2.3093,0.0,-2.0917,-1.8743,0.0,0.0,0.0,-1.9193,-2.0398,-2.1797,-2.3004,0.0,0.0,-2.9038,0.0,0.0,-4.097,-4.3275,-4.4275,-4.3195,-4.4622,-4.5594,-4.5594,-4.5594,-4.5448,-4.5107,-4.5342,-4.5171,-4.4487,-4.472,-4.4414,-4.3515,-4.3515,-4.3515,-4.3515,-4.3515,-4.3515,-4.3515,-4.3515,-4.3515,-4.3515,-4.3515,-4.3515,-4.3515,-4.3515,-4.3515,-4.3515,-4.3515,-4.3515,-4.3515,-4.3515,-4.3515,-4.3515,0.0,0.0,0.0,0.0,0.0,0.0,0.0,0.0,0.0,0.0,0.0,0.0,0.0,0.0,0.0,0.0,0.0,0.0,0.0,0.0,0.0,0.0,0.0,-1.0131,-1.1179,-1.1254,-1.2355,-1.4545,-1.5388,-1.6694,-1.8404,-1.8818,-1.8507,-1.7554,-1.5384,-1.384,-1.2757,-1.1072,-1.0666,-1.1165,-1.1193,0.0,0.0,0.0,0.0,0.0,-1.1686,-1.2157,0.0,-1.2651,-1.35,-1.4597,0.0,0.0,0.0,0.0,-1.8368,-1.933,-2.0608,-2.1648,-2.2668,-2.3979,-2.3348,-2.2526,-2.2983,0.0,0.0,0.0,0.0,0.0,0.0,0.0,0.0,0.0,-2.4587,0.0,0.0,0.0,-3.9113,-4.1559,-4.3396,-4.4399,-4.4254,-4.5064,-4.5594,-4.5594,-4.5594,-4.5513,-4.5342,-4.5504,-4.5362,-4.4849,-4.5019,-4.4651,-4.3742,-4.3726,-4.3726,-4.3726,-4.3726,-4.382,-4.4008,-4.3804,-4.3726,-4.3726,-4.3582,-4.3515,-4.3515,-4.3515,-4.3515,-4.3515,-4.3515,-4.3515,-4.3515,-4.3515,-4.3515,-4.3515,0.0,0.0,0.0,0.0,0.0,0.0,0.0,0.0,0.0,0.0,0.0,0.0,0.0,0.0,0.0,0.0,0.0,0.0,0.0,0.0,0.0,0.0,0.0,-1.0185,-1.14,-1.1678,-1.3013,-1.55,-1.6445,-1.7646,-1.9109,-1.9965,-1.9347,-1.7334,-1.3795,-1.2113,-1.1829,-1.0284,-0.9695,-0.981,-0.986,0.0,0.0,0.0,0.0,0.0,0.0,0.0,0.0,-1.0963,-1.2096,-1.3501,-1.3571,0.0,0.0,0.0,0.0,0.0,-2.0908,-2.2162,-2.3197,-2.4069,-2.3682,-2.3102,-2.31,0.0,0.0,0.0,0.0,0.0,0.0,0.0,0.0,0.0,0.0,0.0,-3.5469,-3.7012,-3.8755,-4.1735,-4.2919,-4.3946,-4.5103,-4.5441,-4.5594,-4.5594,-4.5594,-4.5594,-4.5594,-4.5594,-4.5476,-4.5191,-4.518,-4.4796,-4.3988,-4.3987,-4.4028,-4.4087,-4.4028,-4.4204,-4.458,-4.4266,-4.4087,-4.4058,-4.3726,-4.358,-4.3563,-4.3513,-4.3515,-4.3515,-4.3515,-4.3515,-4.3496,-4.3368,-4.342,-4.358,0.0,0.0,0.0,0.0,0.0,0.0,0.0,0.0,0.0,0.0,0.0,0.0,0.0,0.0,0.0,0.0,0.0,0.0,0.0,0.0,0.0,0.0,-0.9548,-1.0625,-1.2431,-1.3278,-1.4587,-1.6404,-1.7955,-1.8805,-1.903,-1.9859,-1.8908,-1.6388,-1.3559,-1.1872,-1.1103,-1.0176,-0.9787,-0.9802,-0.9753,0.0,0.0,0.0,0.0,0.0,0.0,0.0,0.0,-0.9949,-1.1083,-1.2534,-1.2591,0.0,0.0,0.0,0.0,0.0,-1.9945,-2.1647,-2.3127,-2.399,-2.3653,-2.3104,-2.3092,0.0,0.0,0.0,0.0,0.0,0.0,-2.1631,-2.3306,0.0,0.0,-3.3812,0.0,-4.0072,-4.152,-4.2776,-4.4273,-4.4765,-4.3607,-4.4765,-4.5594,-4.5594,-4.5594,-4.5594,-4.5594,-4.5594,-4.5577,-4.5522,-4.5522,-4.4987,-4.3836,-4.3929,-4.4161,-4.4501,-4.4161,-4.4204,-4.4612,-4.454,-4.4514,-4.4487,-4.4106,-4.3924,-4.3912,-4.3631,-4.3515,-4.3515,-4.3515,-4.3515,-4.3423,-4.2745,-4.3088,-4.3971,0.0,0.0,0.0,0.0,0.0,0.0,0.0,0.0,0.0,0.0,0.0,0.0,0.0,0.0,0.0,0.0,0.0,0.0,0.0,0.0,0.0,-0.961,-0.9978,-1.0945,-1.256,-1.3977,-1.5538,-1.7251,-1.8496,-1.9314,-1.97,-1.9039,-1.7805,-1.6039,-1.3443,-1.1802,-1.09,-1.0139,-0.9772,-0.9743,0.0,0.0,0.0,0.0,0.0,0.0,0.0,0.0,0.0,0.0,-1.0696,-1.216,-1.2261,0.0,0.0,0.0,0.0,0.0,-2.0647,-2.1809,-2.2594,-2.4439,-2.435,-2.3808,-2.3803,0.0,0.0,0.0,0.0,0.0,0.0,0.0,-2.5633,-2.9554,0.0,-3.4901,-3.8188,-3.9311,-4.0468,-4.2241,-4.3519,-4.4311,-4.4438,-4.5161,-4.5594,-4.5594,-4.5594,-4.5594,-4.5594,-4.5152,-4.4893,-4.4893,-4.447,-4.3976,-4.3436,-4.3266,-4.3529,-4.4177,-4.3983,-4.4339,-4.514,-4.4954,-4.4872,-4.4849,-4.4261,-4.4001,-4.3971,-4.3629,-4.3515,-4.3515,-4.3515,-4.3515,-4.3422,-4.2809,-4.3022,-4.367,0.0,0.0,0.0,0.0,0.0,0.0,0.0,0.0,0.0,0.0,0.0,0.0,0.0,0.0,0.0,0.0,0.0,0.0,0.0,0.0,-0.8809,-0.9655,-1.0378,-1.1388,-1.2721,-1.4543,-1.6256,-1.7822,-1.8891,-1.9709,-2.0213,-1.8117,-1.6739,-1.5858,-1.3159,-1.1522,-1.0758,-1.0071,-0.9691,-0.9536,0.0,0.0,0.0,0.0,0.0,0.0,0.0,0.0,0.0,0.0,0.0,0.0,0.0,0.0,0.0,-1.6776,-1.6857,-1.7326,-2.1412,-2.2019,-2.2145,-2.481,-2.5082,-2.4697,-2.4696,-2.4349,0.0,0.0,0.0,0.0,0.0,-2.4843,0.0,-3.3157,-3.464,-3.6157,-3.8888,-3.9268,-4.0142,-4.2491,-4.3315,-4.4119,-4.519,-4.5479,-4.5441,-4.5037,-4.519,-4.521,-4.5017,-4.4374,-4.4028,-4.4028,-4.3412,-4.3008,-4.2797,-4.2498,-4.2775,-4.3634,-4.3543,-4.4029,-4.5009,-4.4949,-4.4906,-4.4874,-4.4361,-4.4132,-4.4121,-4.3679,-4.3404,-4.3239,-4.3507,-4.3422,-4.313,-4.2772,-4.2731,-4.2953,0.0,0.0,0.0,0.0,0.0,0.0,0.0,0.0,0.0,0.0,0.0,0.0,0.0,0.0,0.0,0.0,0.0,0.0,0.0,0.0,-0.8396,-0.8777,-1.0552,-1.2157,-1.3482,-1.5364,-1.6838,-1.7886,-1.9507,-2.0231,-2.0063,-1.7364,-1.6035,-1.5753,-1.2396,-1.0766,-1.0486,-0.9947,-0.946,-0.9069,-0.9238,0.0,0.0,0.0,0.0,0.0,0.0,0.0,0.0,0.0,0.0,0.0,0.0,0.0,-1.5809,-1.6756,-1.707,-1.789,-2.1381,-2.1919,-2.2137,-2.4744,-2.547,0.0,-2.5588,-2.618,0.0,-2.5523,0.0,0.0,0.0,-2.7969,-3.0888,-3.2856,-3.58,-3.8973,-4.2274,-4.2747,-4.3382,-4.5141,-4.5383,-4.5152,-4.4451,-4.5133,-4.496,-4.3393,-4.397,-4.4066,-4.3316,-4.322,-4.3181,-4.3181,-4.3124,-4.272,-4.1904,-4.1849,-4.2291,-4.3156,-4.2766,-4.2824,-4.3297,-4.403,-4.4348,-4.436,-4.45,-4.4553,-4.4501,-4.3791,-4.3057,-4.2485,-4.3537,-4.3245,-4.2203,-4.2172,-4.1859,-4.1703,0.0,0.0,0.0,0.0,0.0,0.0,0.0,0.0,0.0,0.0,0.0,0.0,0.0,0.0,0.0,0.0,0.0,0.0,0.0,0.0,-0.8261,-0.909,-1.0005,-1.1352,-1.3257,-1.5742,-1.7287,-1.7849,-1.9439,-2.0134,-1.9917,-1.7243,-1.5705,-1.5035,-1.2235,-1.0629,-0.9994,-0.9883,-0.9576,-0.9188,-0.9182,-0.9084,0.0,0.0,0.0,0.0,0.0,0.0,0.0,0.0,-1.0736,-1.1848,-1.3279,-1.4547,-1.5807,-1.7259,-1.7403,-1.7727,-2.074,-2.1497,-2.1952,-2.4115,-2.5124,0.0,0.0,-2.7571,-2.74,-2.5969,-2.7213,0.0,0.0,0.0,-3.2813,-3.5041,-3.7334,-3.9649,-4.197,-4.2758,-4.3528,-4.4662,-4.4778,-4.4662,-4.4335,-4.4143,-4.3778,-4.3143,-4.3374,-4.3412,-4.3124,-4.2585,-4.2297,-4.2297,-4.1777,-4.1316,-4.0989,-4.0837,-4.091,-4.1245,-4.1807,-4.2693,-4.3835,-4.3643,-4.4124,-4.5068,-4.4402,-4.4402,-4.4834,-4.3801,-4.3202,-4.294,-4.3159,-4.245,-4.1348,-4.1845,-4.2071,-4.2163,0.0,0.0,0.0,0.0,0.0,0.0,0.0,0.0,0.0,0.0,0.0,0.0,0.0,0.0,0.0,0.0,0.0,0.0,-0.7235,-0.7486,-0.8048,-0.8979,-0.9835,-1.0905,-1.229,-1.506,-1.6793,-1.7356,-1.8939,-1.9648,-1.9466,-1.711,-1.5673,-1.4966,-1.2249,-1.0819,-1.0405,-1.0031,-0.9618,-0.9212,-0.9342,-0.928,0.0,0.0,0.0,0.0,0.0,0.0,0.0,0.0,-1.09,-1.2067,-1.3849,-1.5228,-1.6392,-1.7639,-1.7918,-1.8347,-2.0759,-2.1599,-2.2265,0.0,0.0,0.0,-2.8208,-2.8899,-2.8904,-2.8237,-2.9307,-3.051,-3.1018,0.0,-3.3781,-3.6084,-3.8073,-3.9909,-4.1574,-4.2367,-4.3072,-4.3833,-4.3932,-4.3851,-4.3536,-4.3258,-4.2874,-4.2316,-4.2527,-4.2566,-4.2297,-4.172,-4.1393,-4.1393,-4.0804,-4.0496,-4.0496,-4.0321,-4.0223,-4.0242,-4.1012,-4.1956,-4.2972,-4.2783,-4.347,-4.4769,-4.3798,-4.3884,-4.4606,-4.339,-4.2944,-4.2999,-4.2428,-4.1933,-4.1551,-4.1715,-4.2015,-4.2288,0.0,0.0,0.0,0.0,0.0,0.0,0.0,0.0,0.0,0.0,0.0,0.0,0.0,0.0,0.0,0.0,0.0,0.0,-0.6874,-0.7278,-0.7716,-0.8178,-1.0162,-1.1053,-1.0619,-1.3204,-1.5175,-1.6407,-1.8068,-1.8812,-1.865,-1.6842,-1.5952,-1.5724,-1.2393,-1.1311,-1.1881,-1.0434,-0.9501,-0.9056,-0.9726,-0.9836,-0.9656,0.0,0.0,0.0,0.0,0.0,0.0,0.0,-1.1606,-1.2804,-1.4546,-1.6336,-1.7797,-1.7815,-1.8665,-1.9955,-2.163,-2.2379,0.0,0.0,0.0,0.0,-2.889,-3.0165,-3.1266,-3.2954,-3.2624,-3.2012,-3.2032,-3.2644,-3.3693,-3.5426,-3.7778,-3.9959,-4.1559,-4.1953,-4.2334,-4.3007,-4.3146,-4.2814,-4.187,-4.2566,-4.2354,-4.0612,-4.1277,-4.1393,-4.0516,-4.0477,-4.0496,-4.0496,-4.0496,-4.0496,-4.0496,-4.0496,-4.0496,-4.0496,-4.0496,-4.0356,-4.0148,-4.1274,-4.2277,-4.3069,-4.267,-4.2988,-4.37,-4.2489,-4.2188,-4.2377,-4.1317,-4.1785,-4.2926,-4.1734,-4.1503,-4.1788,0.0,0.0,0.0,0.0,0.0,0.0,0.0,0.0,0.0,0.0,0.0,0.0,0.0,0.0,0.0,0.0,0.0,0.0,-0.6748,-0.7128,-0.7598,-0.8114,-0.8948,-0.9755,-1.0512,-1.2133,-1.4059,-1.6254,-1.7373,-1.7896,-1.7824,-1.6687,-1.5475,-1.4217,-1.2758,-1.1481,-1.0479,-1.069,-1.0194,-0.929,-0.9451,-0.9651,-0.9902,0.0,0.0,0.0,0.0,0.0,0.0,0.0,0.0,0.0,-1.4397,-1.618,-1.7736,-1.8437,-1.896,-1.946,-2.0159,-2.1461,0.0,-2.3404,0.0,0.0,0.0,-2.9251,0.0,0.0,-3.359,-3.3354,-3.4583,-3.5456,-3.6138,-3.661,-3.7782,-3.9004,-4.0101,-4.0781,-4.1265,-4.1459,-4.2005,-4.2009,-4.1113,-4.1169,-4.0573,-3.8873,-3.9546,-3.9662,-3.8796,-3.9323,-3.9669,-3.9669,-4.0208,-4.0496,-4.0496,-4.0321,-4.0213,-4.0213,-4.0213,-4.0612,-4.1294,-4.1022,-4.17,-4.3066,-4.2337,-4.2494,-4.3242,-4.2259,-4.1559,-4.1095,-4.1167,-4.11,-4.1026,-4.1226,-4.136,-4.1389,0.0,0.0,0.0,0.0,0.0,0.0,0.0,0.0,0.0,0.0,0.0,0.0,0.0,0.0,0.0,0.0,0.0,0.0,0.0,-0.7313,-0.79,-0.897,-0.9134,-0.9618,-1.053,-1.1323,-1.267,-1.457,-1.5839,-1.6813,-1.744,-1.6601,-1.5677,-1.4677,-1.3596,-1.2317,-1.0967,-1.1163,-1.0555,-0.9499,-0.9667,-0.9827,-0.999,0.0,0.0,0.0,0.0,0.0,0.0,0.0,0.0,0.0,-1.4859,0.0,-1.7772,-1.9176,-1.9661,-1.998,-2.0989,0.0,0.0,-2.3751,-2.5418,-2.7287,-2.8706,0.0,0.0,0.0,-3.5078,-3.5156,-3.5878,-3.6374,-3.6778,-3.7058,-3.7522,-3.815,-3.8965,-3.9565,-3.9892,-3.9817,-4.0259,-4.0325,-3.9741,-3.958,-3.9126,-3.8072,-3.8488,-3.8546,-3.8027,-3.8507,-3.8931,-3.9284,-3.9438,-3.9823,-4.0496,-3.9687,-3.959,-4.025,-3.9924,-4.03,-4.1277,-4.0746,-4.1258,-4.2547,-4.2019,-4.1893,-4.2027,-4.1508,-4.0969,-4.0577,-4.1232,-4.1197,-4.0824,-4.1322,-4.1503,-4.1406,0.0,0.0,0.0,0.0,0.0,0.0,0.0,0.0,0.0,0.0,0.0,0.0,0.0,0.0,0.0,0.0,0.0,0.0,0.0,0.0,-0.8498,-1.0223,-1.0195,-1.0284,-1.0593,-1.0784,-1.1256,-1.1962,-1.3853,-1.564,-1.7264,-1.6549,-1.6245,-1.6213,-1.4695,-1.3497,-1.2528,-1.174,-1.0712,-0.9662,-1.0126,-1.0175,-0.9991,-1.0551,0.0,0.0,0.0,0.0,0.0,0.0,0.0,0.0,-1.5571,-1.6737,-1.7878,-1.9786,-2.0475,-2.1027,-2.2981,0.0,0.0,-2.5126,-2.6216,0.0,-2.8319,-3.2285,-3.5762,-3.5762,0.0,-3.7148,-3.6289,-3.6124,-3.6355,-3.7015,-3.7175,-3.7433,-3.8118,-3.8373,-3.841,-3.8222,-3.8324,-3.8291,-3.8045,-3.8075,-3.8001,-3.7793,-3.7841,-3.7853,-3.7777,-3.7834,-3.8238,-3.9034,-3.8373,-3.8719,-4.0265,-3.8757,-3.8757,-4.0265,-3.9534,-3.9611,-4.04,-4.0477,-4.0931,-4.1673,-4.1673,-4.1239,-4.0496,-4.0419,-4.0439,-4.0573,-4.1296,-4.1558,-4.1558,-4.1558,-4.1558,-4.145,0.0,0.0,0.0,0.0,0.0,0.0,0.0,0.0,0.0,0.0,0.0,0.0,0.0,0.0,0.0,0.0,0.0,0.0,0.0,0.0,-0.8943,-0.9514,-1.0148,-1.0532,-1.0601,-1.0757,-1.0886,-1.1004,-1.2939,-1.4754,-1.6456,-1.6334,-1.5964,-1.5362,-1.5113,-1.3735,-1.1623,-1.2055,-1.1277,-0.9745,-0.9715,-0.9935,-1.0308,-1.0375,-1.0242,0.0,0.0,0.0,0.0,0.0,0.0,0.0,-1.4915,-1.6288,-1.7728,-1.8904,-1.989,-2.0726,-2.1286,-2.2652,0.0,0.0,-2.668,-2.9178,-3.0116,-3.2226,-3.3965,-3.3965,-3.6289,-3.8047,-3.7187,-3.7577,-3.785,-3.7342,-3.7264,-3.7321,-3.7493,-3.7557,-3.7558,-3.7513,-3.8042,-3.8133,-3.7466,-3.7815,-3.7544,-3.622,-3.6659,-3.6692,-3.6077,-3.6635,-3.7065,-3.7257,-3.7738,-3.8161,-3.8527,-3.818,-3.818,-3.8546,-3.8354,-3.8719,-3.9573,-4.0208,-4.0593,-4.0785,-4.0785,-4.0669,-4.0458,-3.9823,-3.9938,-4.0458,-4.0015,-3.9835,-3.9835,-3.9835,-3.9835,-3.97,0.0,0.0,0.0,0.0,0.0,0.0,0.0,0.0,0.0,0.0,0.0,0.0,0.0,0.0,0.0,0.0,0.0,0.0,0.0,0.0,-0.8533,-0.8986,-1.0366,-1.0787,-1.0047,-1.0535,-1.0772,-1.0754,-1.2183,-1.3994,-1.6158,-1.6226,-1.6517,-1.695,-1.6648,-1.5277,-1.3243,-1.3624,-1.2476,-1.0364,-1.0298,-1.0064,-0.9771,-0.9739,-0.9735,-0.982,-1.0434,0.0,0.0,0.0,0.0,0.0,0.0,0.0,-1.7326,-1.9141,-1.9772,-2.0228,0.0,0.0,0.0,-2.4985,0.0,-2.8498,-2.9408,-3.0956,-3.2207,-3.2207,-3.4941,-3.6953,-3.5664,-3.6484,-3.6934,-3.5644,-3.5781,-3.6055,-3.6055,-3.6055,-3.6055,-3.6055,-3.6031,-3.5823,-3.5376,-3.5618,-3.5406,-3.4429,-3.4712,-3.4731,-3.4276,-3.5045,-3.5699,-3.6115,-3.6558,-3.7199,-3.7988,-3.7199,-3.7219,-3.7988,-3.7584,-3.7834,-3.8719,-3.9938,-4.0285,-3.9938,-3.9938,-3.9688,-3.9258,-3.8854,-3.8911,-3.9258,-3.8834,-3.8681,-3.8681,-3.8681,-3.8681,-3.8604,0.0,0.0,0.0,0.0,0.0,0.0,0.0,0.0,0.0,0.0,0.0,0.0,0.0,0.0,0.0,0.0,0.0,0.0,0.0,0.0,0.0,-0.8994,-1.0616,-1.0907,-0.9663,-1.0526,-1.0863,-1.0585,-1.1599,-1.3393,0.0,-1.6108,-1.7209,-1.8959,-1.8156,-1.6954,-1.5517,-1.5292,-1.3778,-1.1481,-1.1219,-1.0435,-0.9418,-0.9398,-0.9599,-0.991,-0.9997,-1.1141,-1.2621,-1.2656,0.0,0.0,0.0,0.0,-1.7095,-1.9538,-1.9837,-1.9931,0.0,0.0,-2.3269,-2.5843,-2.6675,0.0,-2.7809,-2.9253,-3.0449,-3.0449,-3.3164,-3.5117,-3.3672,-3.457,-3.5078,-3.3633,-3.4004,-3.4473,-3.4473,-3.4473,-3.4473,-3.4473,-3.3848,-3.3377,-3.3317,-3.3306,-3.3225,-3.3055,-3.3021,-3.297,-3.2915,-3.3583,-3.4314,-3.5019,-3.5058,-3.5788,-3.7334,-3.5815,-3.5904,-3.7565,-3.6846,-3.6865,-3.7623,-3.8988,-3.9438,-3.9092,-3.9092,-3.8661,-3.7988,-3.7834,-3.7853,-3.7988,-3.7834,-3.7777,-3.7777,-3.7777,-3.7777,-3.7757,0.0,0.0,0.0,0.0,0.0,0.0,0.0,0.0,0.0,0.0,0.0,0.0,0.0,0.0,0.0,0.0,0.0,0.0,-0.7969,0.0,0.0,-1.0303,-1.0552,-1.0656,-1.0608,-1.1356,-1.1103,-0.9757,-1.1332,0.0,0.0,0.0,0.0,-1.8963,-1.8159,-1.7283,-1.6374,-1.5616,-1.4592,-1.3376,-1.1801,-1.1011,-1.0722,-1.0627,-1.0467,-1.0474,-1.1739,-1.29,-1.3938,-1.4392,-1.5266,0.0,0.0,0.0,-1.7764,-1.8932,-1.9827,-2.0522,0.0,0.0,-2.3994,0.0,-2.6193,-2.6868,0.0,0.0,-2.8652,-2.8652,-3.1367,-3.3672,-3.3437,-3.3594,-3.3672,-3.3437,-3.3496,-3.3574,-3.3574,-3.3574,-3.3574,-3.3574,-3.3476,-3.3398,-3.3398,-3.3323,-3.3296,-3.3262,-3.3091,-3.3006,-3.2991,-3.3035,-3.3122,-3.3237,-3.3256,-3.3718,-3.4706,-3.3737,-3.4122,-3.5827,-3.5712,-3.5712,-3.5846,-3.6077,-3.6911,-3.8161,-3.8161,-3.8104,-3.795,-3.7199,-3.7315,-3.7911,-3.718,-3.6865,-3.6865,-3.6865,-3.6865,-3.6769,0.0,0.0,0.0,0.0,0.0,0.0,0.0,0.0,0.0,0.0,0.0,0.0,0.0,0.0,0.0,-0.6823,-0.7292,-0.7682,-0.793,-0.8408,-0.8946,-0.9514,-0.9686,-0.9838,-1.0015,-1.0408,-1.0276,-0.9601,0.0,0.0,0.0,-1.5613,-1.7802,0.0,0.0,0.0,-1.9364,-1.8051,-1.6672,-1.5269,-1.3487,-1.2981,-1.3185,-1.2119,-1.2207,-1.2938,-1.2973,-1.3596,-1.4478,-1.5085,-1.5875,-1.6742,-1.7505,0.0,0.0,0.0,-1.9531,0.0,-2.1306,-2.2746,-2.4128,0.0,-2.5716,-2.6087,-2.611,-2.6862,-2.7578,-2.7578,-2.916,-3.0547,-3.0547,-3.0937,-3.1269,-3.1269,-3.168,-3.2168,-3.2656,-3.2734,-3.2734,-3.2734,-3.1875,-3.1465,-3.1953,-3.1521,-3.1394,-3.1806,-3.1758,-3.1679,-3.1602,-3.2028,-3.2268,-3.2237,-3.266,-3.3083,-3.3468,-3.3083,-3.3276,-3.4045,-3.4045,-3.4045,-3.4045,-3.4088,-3.5001,-3.6558,-3.6084,-3.6142,-3.6519,-3.5661,-3.5815,-3.6558,-3.6173,-3.6038,-3.6038,-3.6038,-3.6038,-3.5981,0.0,0.0,0.0,0.0,0.0,0.0,0.0,0.0,0.0,0.0,0.0,0.0,0.0,0.0,0.0,0.0,-0.7241,-0.7483,-0.7848,-0.8135,-0.8409,-0.8719,-0.9001,-0.9221,-0.9403,-0.9712,-0.9795,0.0,0.0,0.0,-1.3587,-1.5306,-1.8108,0.0,-2.1693,-2.1706,0.0,0.0,0.0,-1.7468,-1.5926,-1.5527,-1.5693,-1.4545,-1.4866,-1.5864,-1.5277,-1.5442,-1.6046,-1.6512,-1.6988,-1.7504,-1.8001,-1.8139,0.0,0.0,0.0,0.0,0.0,0.0,-2.3511,-2.4662,-2.5039,-2.5188,0.0,0.0,-2.6659,-2.668,-2.7187,-2.7637,-2.7637,-2.8535,-2.9336,-2.9551,-2.9961,-3.0547,-3.1426,-3.1348,-3.1211,-3.1211,-3.0059,-2.9512,-3.0176,-2.9648,-2.9491,-3.0045,-3.0074,-3.0014,-2.9908,-3.0681,-3.1115,-3.105,-3.1833,-3.2372,-3.2583,-3.2795,-3.2795,-3.2602,-3.2602,-3.2602,-3.2605,-3.2439,-3.3174,-3.4556,-3.4101,-3.4251,-3.4788,-3.4141,-3.4257,-3.4865,-3.5077,-3.5173,-3.5173,-3.5173,-3.5173,-3.5173,0.0,0.0,0.0,0.0,0.0,0.0,0.0,0.0,0.0,0.0,0.0,0.0,-0.6922,-0.7042,-0.7096,-0.709,-0.7112,-0.7304,-0.7767,-0.8056,-0.839,-0.8783,-0.8923,0.0,-0.9394,-1.0221,-1.0299,0.0,0.0,0.0,-1.3711,-1.4775,-1.7563,-2.1692,-2.1692,-2.1748,-2.1788,0.0,0.0,0.0,0.0,0.0,0.0,-1.8501,-1.8776,-1.8871,-1.9593,-1.9792,-1.972,-1.962,-1.9476,-1.9332,-1.9182,-1.9077,-1.9082,0.0,0.0,0.0,0.0,-2.1331,0.0,-2.3544,-2.4024,0.0,0.0,0.0,-2.5689,-2.5742,-2.5801,-2.584,-2.584,-2.7226,-2.8633,-2.9473,-2.8945,-2.873,-2.9609,-2.9023,-2.8496,-2.8496,-2.8418,-2.8398,-2.8437,-2.8398,-2.8379,-2.8418,-2.8367,-2.8291,-2.8226,-2.8931,-2.9308,-2.9248,-3.0083,-3.0923,-3.1756,-3.2526,-3.2526,-3.1756,-3.1756,-3.1794,-3.1825,-3.1017,-3.115,-3.2114,-3.2787,-3.3054,-3.3026,-3.2987,-3.2987,-3.3122,-3.393,-3.4263,-3.4263,-3.4263,-3.4263,-3.4263,0.0,0.0,0.0,0.0,0.0,0.0,0.0,0.0,0.0,0.0,0.0,0.0,0.0,-0.8005,-0.7789,-0.7746,-0.7665,-0.768,-0.7861,-0.8392,-0.8661,-0.8551,-0.9089,-0.9377,-0.9329,-1.02,-1.0294,0.0,0.0,-1.1672,-1.2906,-1.4477,-1.662,-1.9291,-2.1534,-2.3184,-2.4234,-2.3103,0.0,0.0,0.0,0.0,0.0,-2.0306,-2.0672,-2.1589,-2.1288,-2.1084,-2.1028,-2.1506,-2.116,-2.0502,-2.0348,-1.9778,-1.9196,0.0,0.0,0.0,0.0,0.0,0.0,-2.2762,-2.3539,-2.4126,-2.4558,-2.5157,-2.5629,-2.5683,-2.5703,-2.5703,-2.5703,-2.6211,-2.6914,-2.7793,-2.7676,-2.7773,-2.8633,-2.8496,-2.8301,-2.8301,-2.7812,-2.7695,-2.8242,-2.7793,-2.7695,-2.8262,-2.828,-2.823,-2.8172,-2.84,-2.8508,-2.84,-2.9197,-3.0025,-3.0865,-3.1199,-3.1201,-3.0936,-3.0972,-3.1006,-3.1024,-3.0753,-3.0781,-3.1086,-3.1342,-3.2021,-3.2924,-3.2351,-3.2429,-3.2987,-3.3859,-3.4205,-3.4205,-3.4205,-3.4545,-3.4872,0.0,0.0,0.0,0.0,0.0,0.0,0.0,0.0,0.0,-0.7912,0.0,0.0,0.0,0.0,-0.8147,-0.8004,-0.7962,-0.794,-0.7961,-0.8467,-0.8664,-0.8434,-0.9208,-0.9615,-0.9575,-1.0467,-1.0601,0.0,0.0,0.0,0.0,-1.3994,-1.5975,-1.8338,-2.1257,-2.3411,0.0,0.0,0.0,-2.3466,0.0,-2.2986,-2.3883,-2.3018,-2.3583,-2.4717,-2.3784,-2.3195,-2.2915,-2.3121,-2.253,-2.1587,-2.1127,-2.0229,0.0,0.0,0.0,0.0,-2.0704,0.0,0.0,0.0,0.0,-2.3283,-2.4033,-2.4672,-2.5246,-2.5624,-2.5703,-2.5703,-2.5703,-2.5683,-2.5955,-2.6855,-2.6758,-2.6875,-2.7734,-2.7617,-2.7422,-2.7422,-2.6914,-2.6797,-2.7363,-2.6894,-2.6797,-2.7383,-2.7422,-2.74,-2.7337,-2.7574,-2.7948,-2.8384,-2.8922,-2.9616,-3.0453,-3.0516,-3.0397,-3.0102,-3.0442,-3.0461,-3.0232,-3.0565,-3.0707,-3.0708,-3.065,-3.12,-3.2102,-3.1507,-3.1583,-3.2179,-3.3314,-3.3609,-3.3391,-3.3667,-3.4122,-3.4423,0.0,0.0,0.0,0.0,0.0,0.0,0.0,0.0,0.0,-0.8445,0.0,0.0,0.0,0.0,0.0,-0.7855,-0.7956,-0.8061,-0.8094,-0.8243,-0.8376,-0.8485,-0.9264,-0.9809,-1.009,-1.1058,-1.1212,0.0,0.0,0.0,0.0,0.0,-1.5709,-1.909,-2.0922,-2.2251,-2.3256,0.0,-2.5225,-2.4548,-2.5371,-2.5722,-2.5835,-2.6658,-2.7498,-2.8103,-2.719,-2.6342,-2.5499,-2.4559,-2.3633,-2.2662,-2.1483,-2.0459,0.0,0.0,0.0,0.0,0.0,0.0,0.0,0.0,0.0,0.0,-2.3699,-2.4166,-2.4464,-2.5447,-2.5683,-2.5683,-2.5683,-2.5636,-2.5902,-2.6816,-2.625,-2.5996,-2.6836,-2.623,-2.5703,-2.5703,-2.5703,-2.5703,-2.5703,-2.5703,-2.5703,-2.5703,-2.5703,-2.5662,-2.5604,-2.6373,-2.7527,-2.9121,-2.9194,-2.9648,-3.0583,-3.0586,-3.0136,-2.9313,-3.0139,-3.0158,-2.9485,-3.0267,-3.0693,-3.082,-3.0708,-3.0597,-3.046,-3.0419,-3.041,-3.0558,-3.2218,-3.2391,-3.1795,-3.2583,-3.2872,-3.2776,0.0,0.0,0.0,0.0,0.0,0.0,0.0,0.0,-1.0015,0.0,0.0,0.0,-1.0997,-1.0615,-0.9854,-0.8565,-0.8838,-0.8801,-0.8142,-0.8541,-0.8654,-0.8302,-0.8959,-0.9553,-1.0023,-1.0357,-1.0505,0.0,0.0,-1.1833,-1.2281,-1.4501,0.0,0.0,-2.1543,-2.3157,-2.4105,-2.5222,0.0,-2.6249,-2.5859,-2.6074,-2.6601,-2.621,-2.621,-2.6386,-2.613,-2.6258,-2.6399,-2.5512,-2.5009,-2.4337,-2.1875,0.0,0.0,0.0,0.0,0.0,-1.9963,0.0,0.0,0.0,0.0,0.0,-2.2045,-2.3188,-2.4221,-2.4544,-2.5125,-2.5556,-2.5556,-2.5545,-2.5619,-2.5866,-2.5755,-2.5735,-2.6015,-2.5859,-2.5703,-2.5703,-2.5703,-2.5703,-2.5703,-2.5703,-2.5703,-2.5703,-2.5703,-2.5683,-2.5662,-2.6443,-2.7372,-2.8446,-2.9049,-2.9751,-3.0583,-3.0068,-2.9679,-2.9445,-2.9102,-2.8822,-2.863,-2.8865,-2.8983,-2.9043,-2.9594,-2.9801,-2.9803,-3.0276,-3.0446,-3.0519,-3.1602,-3.191,-3.1737,-3.1948,-3.241,-3.2776,0.0,0.0,0.0,0.0,0.0,0.0,0.0,-1.0548,-1.1274,0.0,0.0,0.0,-1.1663,-1.147,-1.0964,-0.9955,-1.0104,-0.9997,-0.9388,-0.9621,-0.9484,-0.8818,-0.9483,-0.9875,-0.9912,-1.0337,-1.0689,-1.0963,-1.1925,-1.2696,-1.3295,-1.5261,-1.7382,0.0,0.0,0.0,0.0,0.0,-2.6537,-2.6912,-2.6054,-2.6445,-2.7459,-2.6561,-2.6464,-2.6738,-2.6366,-2.6539,-2.6807,-2.5949,-2.5368,-2.4644,-2.2558,-2.1282,0.0,-2.0117,0.0,0.0,0.0,0.0,0.0,0.0,0.0,0.0,-2.115,-2.2231,-2.3346,-2.4496,-2.5158,-2.5491,-2.5491,-2.5488,-2.5477,-2.5506,-2.552,-2.5552,-2.5637,-2.566,-2.5662,-2.5703,-2.5703,-2.5703,-2.5703,-2.5703,-2.5703,-2.5703,-2.5703,-2.5683,-2.566,-2.6099,-2.6901,-2.8127,-2.8649,-2.9464,-3.0631,-2.9917,-2.9365,-2.8994,-2.8514,-2.8105,-2.7773,-2.8125,-2.8301,-2.832,-2.8804,-2.8988,-2.899,-2.9371,-2.9897,-3.0537,-3.1405,-3.1501,-3.1192,-3.1564,-3.201,-3.2326,0.0,0.0,0.0,0.0,0.0,0.0,0.0,-1.1511,-1.236,0.0,-1.3719,-1.3472,-1.2532,-1.2396,-1.2237,-1.1896,-1.1804,-1.1636,-1.1321,-1.1192,-1.0717,-0.9848,-1.0475,-1.0624,-1.0102,-1.0934,-1.1534,-1.1889,-1.2884,-1.3875,-1.4868,-1.5951,-1.7856,-2.0388,0.0,0.0,0.0,0.0,-2.7062,-2.7085,-2.6308,-2.6912,-2.8194,-2.7321,-2.742,-2.7909,-2.7128,-2.6913,-2.6875,-2.6113,-2.5164,-2.4165,-2.3398,-2.2483,-2.1536,-2.0693,-2.0411,0.0,0.0,0.0,0.0,-1.7824,-1.7571,0.0,-2.0555,-2.1213,-2.1991,-2.4275,-2.4896,-2.501,-2.501,-2.5046,-2.5092,-2.5151,-2.5201,-2.5315,-2.5545,-2.5599,-2.561,-2.5683,-2.5703,-2.5703,-2.5703,-2.5703,-2.5703,-2.5703,-2.5703,-2.5662,-2.5607,-2.5701,-2.6425,-2.7921,-2.8223,-2.9061,-3.0564,-2.9939,-2.916,-2.8301,-2.8203,-2.7695,-2.6875,-2.7656,-2.8008,-2.8027,-2.8105,-2.8122,-2.8062,-2.8179,-2.9051,-3.0421,-3.121,-3.1056,-3.05,-3.1269,-3.1604,-3.1545,-0.7894,0.0,0.0,0.0,0.0,0.0,0.0,-1.3737,-1.3694,-1.5208,-1.6737,-1.7364,-1.6489,-1.6885,-1.6385,-1.4259,-1.4497,-1.4154,-1.2717,-1.2507,-1.2026,-1.1086,-1.1142,-1.1445,-1.1965,-1.2264,-1.2827,-1.3686,-1.4588,-1.5252,-1.5703,-1.731,-1.9188,-2.1297,0.0,0.0,0.0,0.0,-2.741,-2.8037,-2.7867,-2.8005,-2.82,-2.7322,-2.6679,-2.6191,-2.6016,-2.6406,-2.6971,-2.6809,-2.569,-2.4333,-2.4131,-2.3862,-2.3345,-2.1804,-2.1744,-2.1694,-1.942,-1.8778,-1.8673,-1.8437,-1.8383,0.0,-1.9095,-1.9748,-2.0188,-2.0114,-2.1134,-2.2034,-2.2034,-2.2552,-2.3002,-2.3075,-2.3666,-2.4445,-2.5389,-2.5563,-2.5604,-2.5629,-2.5661,-2.5703,-2.5703,-2.5703,-2.5703,-2.5703,-2.5703,-2.5683,-2.5683,-2.6297,-2.6821,-2.7202,-2.8541,-2.9422,-2.9803,-2.9668,-2.916,-2.8281,-2.7598,-2.6797,-2.5957,-2.6133,-2.6211,-2.625,-2.6953,-2.7246,-2.7284,-2.7987,-2.8737,-2.9474,-2.9648,-2.9984,-3.0423,-3.0596,-3.0697,-3.0823,-0.8735,0.0,0.0,0.0,0.0,0.0,0.0,0.0,-1.5451,-1.7131,-1.8628,-1.9531,-1.9508,-1.9026,-1.8166,-1.687,-1.656,-1.6054,-1.5157,-1.4978,-1.449,-1.3539,-1.3015,-1.2749,-1.2747,-1.2809,-1.3339,-1.4295,-1.5604,-1.6584,-1.7281,-1.9057,-2.0704,-2.2191,0.0,0.0,0.0,0.0,-2.8122,-2.883,-2.7982,-2.7654,-2.7557,-2.6679,-2.6074,-2.5703,-2.5703,-2.5976,-2.6347,-2.6345,-2.5775,-2.5047,-2.501,-2.4952,-2.4557,-2.2819,-2.2541,-2.224,-1.961,-1.8563,-1.8185,-1.8089,-1.7677,0.0,0.0,-1.8963,-1.9246,-1.9372,-2.0039,-2.06,-2.06,-2.1265,-2.18,-2.18,-2.2924,-2.3828,-2.3888,-2.4841,-2.5561,-2.5599,-2.566,-2.5703,-2.5703,-2.5703,-2.5703,-2.5703,-2.5703,-2.5703,-2.5703,-2.6072,-2.6493,-2.6886,-2.775,-2.8414,-2.884,-2.8446,-2.8044,-2.7637,-2.6777,-2.6113,-2.5703,-2.5703,-2.5703,-2.5723,-2.6152,-2.6348,-2.6387,-2.6816,-2.7421,-2.8132,-2.8948,-2.9487,-2.9857,-3.0254,-3.0467,-3.061,-1.0269,0.0,0.0,0.0,0.0,0.0,0.0,0.0,-1.7472,-1.9552,-2.067,-2.1536,-2.2217,-2.0841,-1.9777,-1.9592,-1.8812,-1.8327,-1.8265,-1.7987,-1.7493,-1.6724,-1.5795,-1.4896,-1.4064,-1.4204,-1.4587,-1.517,-1.675,-1.8074,-1.9152,-2.062,-2.1934,0.0,0.0,0.0,0.0,0.0,-2.8654,-2.9155,-2.7806,-2.7459,-2.7634,-2.6601,-2.6191,-2.6172,-2.6016,-2.6055,-2.6172,-2.6016,-2.5955,-2.5911,-2.5756,-2.5883,-2.5746,-2.3823,-2.347,-2.305,-2.0089,-1.8779,-1.8154,-1.7848,-1.7146,-1.6906,0.0,0.0,0.0,-1.9361,-1.9618,-1.9717,-1.9692,-2.035,-2.0852,-2.0803,-2.2166,-2.2954,-2.218,-2.3726,-2.4973,-2.5023,-2.5418,-2.5624,-2.5468,-2.5742,-2.5879,-2.5703,-2.5859,-2.5879,-2.5703,-2.5683,-2.5965,-2.6567,-2.6798,-2.721,-2.7877,-2.7413,-2.7103,-2.6992,-2.6289,-2.5859,-2.5703,-2.5703,-2.5703,-2.5703,-2.5703,-2.5703,-2.5703,-2.5703,-2.6071,-2.683,-2.8445,-2.9022,-2.905,-2.9858,-3.0235,-3.0344,-1.2168,-1.2727,0.0,0.0,0.0,0.0,0.0,0.0,-1.9777,-2.3074,-2.427,-2.4901,-2.5113,-2.4251,-2.332,-2.2422,-2.2186,-2.2072,-2.2087,-2.1282,-2.076,-2.0659,-1.9753,-1.8782,-1.7804,-1.8539,-1.8608,-1.796,-1.8914,-1.9949,-2.0996,-2.1196,-2.2277,0.0,-2.4166,0.0,0.0,0.0,-2.831,-2.8417,-2.8235,-2.9075,-3.0283,-2.8628,-2.8005,-2.7909,-2.7129,-2.7344,-2.7891,-2.7109,-2.6855,-2.6717,-2.5931,-2.6753,-2.7496,-2.4983,-2.533,-2.5637,-2.1459,-2.0209,-1.988,-1.8962,-1.8577,-1.8459,-1.8659,0.0,-1.8349,-1.7806,0.0,-1.8652,-1.8597,0.0,0.0,-1.9678,-2.0494,-2.1164,-2.1224,-2.2216,-2.2941,-2.3021,-2.4553,-2.5334,-2.4616,-2.5947,-2.6538,-2.5762,-2.6422,-2.6519,-2.5742,-2.5637,-2.5672,-2.5818,-2.6511,-2.698,-2.7127,-2.7792,-2.7754,-2.6992,-2.6894,-2.6445,-2.5703,-2.5703,-2.5703,-2.5703,-2.5703,-2.5703,-2.5703,-2.5703,-2.5742,-2.5994,-2.7602,-2.8203,-2.8223,-2.8977,-2.9373,-2.9422,-1.294,-1.3496,0.0,0.0,0.0,0.0,0.0,0.0,-2.3053,-2.609,-2.7237,-2.7982,-2.8561,-2.7846,-2.6743,0.0,-2.4654,-2.4115,-2.3589,-2.3207,-2.3197,-2.3653,-2.2829,-2.1879,-2.0914,-2.1173,-2.0921,-2.0082,-2.0928,-2.1586,-2.2074,-2.2657,-2.3351,0.0,-2.4706,0.0,-2.7478,0.0,-2.8798,-2.9707,-2.9247,-3.0088,-3.1297,-2.8572,-2.7558,-2.7558,-2.7695,-2.7656,-2.7578,-2.7715,-2.7421,-2.7107,-2.7752,-2.7772,-2.7322,-2.6226,-2.6068,-2.5635,-2.2785,-2.1984,-2.1852,-2.1356,-2.1128,-2.089,-2.0384,-1.9767,-1.9085,-1.8306,0.0,0.0,0.0,0.0,0.0,0.0,-2.0024,-2.079,-2.0241,-2.1567,-2.2636,-2.2759,-2.3541,-2.4163,-2.4381,-2.5522,-2.6092,-2.5723,-2.6034,-2.6093,-2.5723,-2.5662,-2.5659,-2.5636,-2.5979,-2.6155,-2.6184,-2.6555,-2.6578,-2.625,-2.625,-2.6055,-2.5703,-2.5703,-2.5703,-2.5703,-2.5703,-2.5703,-2.5703,-2.5703,-2.5703,-2.58,-2.6957,-2.7359,-2.739,-2.8135,-2.8482,-2.8547,-1.4391,0.0,0.0,0.0,0.0,0.0,0.0,-2.2582,-2.5323,-2.8465,-2.9031,-2.9652,-3.1012,-3.036,-2.9233,0.0,-2.6731,-2.6036,-2.5646,-2.5389,-2.5622,-2.6435,-2.5892,-2.5016,-2.3818,-2.3481,-2.2911,-2.2072,-2.2407,-2.2727,-2.3021,-2.3769,-2.4358,0.0,0.0,-2.6372,-2.7268,0.0,-2.8798,-2.9681,-2.9129,-2.9758,-3.0814,-2.8573,-2.7715,-2.7793,-2.8437,-2.8398,-2.8125,-2.8516,-2.8242,-2.7889,-2.8925,-2.8534,-2.7674,-2.7421,-2.7088,-2.6345,-2.4344,-2.3812,-2.366,-2.3082,-2.2848,-2.2613,-2.1967,-2.1234,-2.0461,-1.9645,-1.8931,0.0,0.0,0.0,-1.8813,-1.8707,0.0,-2.0364,-1.9366,-2.0567,-2.1661,-2.1991,-2.2593,-2.3332,-2.4274,-2.5382,-2.5934,-2.5721,-2.5917,-2.5957,-2.5703,-2.5703,-2.5682,-2.5633,-2.5632,-2.5632,-2.5632,-2.5632,-2.5658,-2.5703,-2.5703,-2.5703,-2.5703,-2.5703,-2.5703,-2.5703,-2.5703,-2.5703,-2.5723,-2.5957,-2.5918,-2.5781,-2.6585,-2.6866,-2.6892,-2.7394,-2.7758,-2.7985,-1.72,-1.7373,0.0,0.0,0.0,0.0,-2.3739,-2.4164,-2.5748,-3.0061,-2.9231,-2.9217,-3.1778,-3.1227,-3.0322,-2.948,-2.8501,-2.8282,-2.9171,-2.8443,-2.8332,-2.9131,-2.9277,-2.8453,-2.6605,-2.5801,-2.4957,-2.4003,-2.3199,-2.3216,-2.4041,-2.4086,0.0,0.0,-2.6747,-2.7233,-2.8061,-2.8164,-2.7741,-2.7023,-2.7062,-2.7616,-2.8496,-2.9237,-2.9511,-2.9512,-2.9551,-3.0078,-3.0644,-2.9824,-2.9531,-2.9374,-2.8593,-2.8886,-2.9355,-2.8515,-2.8847,-2.8905,-2.6322,-2.5614,-2.5193,-2.3442,-2.2981,-2.2962,-2.2872,-2.2779,-2.2464,-2.1583,-2.1273,-2.0918,-2.0066,-1.9828,-1.9742,-1.9663,-1.9713,0.0,0.0,-1.8696,-1.9147,-1.9992,-2.1741,-2.3273,-2.4209,-2.5843,-2.6544,-2.5765,-2.6472,-2.6596,-2.5742,-2.5703,-2.5703,-2.5703,-2.5703,-2.5703,-2.5703,-2.5703,-2.5703,-2.5703,-2.5703,-2.5703,-2.5703,-2.5703,-2.5703,-2.5703,-2.5703,-2.5703,-2.5762,-2.6602,-2.6465,-2.5781,-2.6589,-2.6891,-2.688,-2.6783,-2.7261,-2.7892,0.0,0.0,0.0,0.0,0.0,-2.2136,-2.4812,-2.614,-2.7576,-2.9585,-3.1357,-3.2736,-3.3549,-3.3899,-3.3275,-3.1267,-3.0782,-3.0237,-2.9449,-2.9619,-2.9904,-3.0206,-3.086,-3.0373,-2.8582,-2.8242,-2.7647,-2.6756,-2.5871,-2.5588,0.0,0.0,0.0,0.0,0.0,-2.7,0.0,0.0,-2.8026,-2.7776,-2.7825,-2.8378,-2.912,-2.8847,-2.9101,-2.9687,-3.0254,-3.0273,-2.998,-2.9707,-2.9218,-2.8691,-2.8398,-2.7715,-2.7187,-2.8047,-2.8105,-2.7812,-2.7498,-2.7849,-2.8003,-2.6809,-2.6915,-2.6995,-2.5815,-2.5075,-2.4381,-2.3481,-2.279,-2.2091,-2.1162,-2.0958,-2.0688,-1.9943,-1.9904,-1.9843,0.0,-1.9648,-2.0079,-2.0967,-2.1638,-2.2411,-2.3344,-2.4486,-2.5319,-2.5666,-2.5939,-2.5967,-2.5703,-2.5703,-2.5703,-2.5703,-2.5703,-2.5703,-2.5703,-2.5703,-2.5703,-2.5703,-2.5703,-2.5703,-2.5703,-2.5703,-2.5703,-2.5703,-2.5703,-2.5994,-2.6529,-2.6803,-2.7096,-2.7389,-2.765,-2.7753,-2.7606,-2.6314,-2.6765,-2.7966,-1.9305,0.0,0.0,0.0,-2.1414,-2.3095,-2.5769,-2.7085,-2.8499,-3.0531,-3.2463,-3.3978,-3.4782,-3.5391,-3.4844,-3.2562,-3.2057,-3.144,-3.0386,-3.048,-3.074,-3.114,-3.1714,-3.1359,-2.9917,-2.9866,-2.9418,-2.8523,-2.7985,-2.7381,0.0,0.0,0.0,0.0,0.0,-2.7592,-2.7329,-2.7979,-2.8033,-2.7707,-2.7806,-2.8163,-2.8613,-2.8047,-2.8945,-3.0449,-3.0098,-3.0019,-2.9961,-2.9355,-2.8965,-2.8711,-2.8398,-2.7539,-2.6855,-2.7969,-2.8125,-2.7988,-2.8222,-2.8945,-2.9394,-2.8525,-2.8697,-2.8767,-2.7628,-2.669,-2.5895,-2.5271,-2.4212,-2.3211,-2.2617,-2.2196,-2.1633,-2.0622,-2.0534,-2.0363,0.0,-1.978,-2.0195,-2.1047,-2.1413,-2.2075,-2.3269,-2.3933,-2.467,-2.5609,-2.5659,-2.5654,-2.5703,-2.5703,-2.5703,-2.5703,-2.5703,-2.5703,-2.5703,-2.5703,-2.5703,-2.5703,-2.5703,-2.5703,-2.5703,-2.5703,-2.5703,-2.5723,-2.5994,-2.6414,-2.694,-2.7528,-2.7911,-2.8168,-2.8187,-2.8195,-2.8024,-2.6489,-2.6846,-2.8073,-2.0297,-1.9951,-1.9693,-2.0657,-2.2158,-2.408,-2.6611,-2.7147,-2.8681,-3.2717,-3.2631,-3.3083,-3.5446,-3.5691,-3.5037,-3.3402,-3.2449,-3.1942,-3.1995,-3.1146,-3.101,-3.1899,-3.1903,-3.149,-3.0616,-3.0672,-3.027,-2.9373,-2.9384,0.0,0.0,0.0,0.0,0.0,-2.9063,0.0,-2.8028,-2.8253,-2.7759,-2.6818,-2.6947,-2.7031,-2.7051,-2.7051,-2.914,-3.1717,-2.9258,-2.9394,-3.0527,-2.8906,-2.8887,-2.9375,-2.8516,-2.8242,-2.8242,-2.8242,-2.8848,-2.9355,-2.8574,-2.9004,-2.9473,-2.8631,-2.8435,-2.8393,-2.8295,-2.7636,-2.7025,-2.6961,-2.5619,-2.4423,-2.436,-2.3556,-2.2576,-2.1661,-2.1488,-2.0894,-1.9293,-1.9165,-1.9527,-2.0336,-2.1164,-2.2307,-2.3948,-2.4222,-2.4649,-2.5526,-2.5666,-2.5694,-2.5703,-2.5703,-2.5703,-2.5703,-2.5703,-2.5703,-2.5703,-2.5703,-2.5703,-2.5703,-2.5703,-2.5703,-2.5703,-2.5703,-2.5703,-2.5742,-2.6507,-2.6882,-2.7071,-2.8612,-2.8834,-2.8212,-2.8248,-2.8212,-2.8048,-2.7241,-2.7497,-2.8196,-2.2343,-2.2245,-2.2773,-2.4952,-2.5113,-2.5427,-2.6796,-2.9165,-3.1154,-3.2207,-3.3823,-3.509,-3.5563,-3.5674,-3.5247,-3.4119,-3.38,-3.3136,-3.1938,-3.2212,-3.1975,-3.0933,-3.1541,-3.149,-3.0616,-3.0669,-3.0587,-3.0349,-2.971,0.0,-2.8719,0.0,0.0,0.0,0.0,-2.8368,-2.8128,-2.882,-2.8252,-2.6876,-2.6969,-2.7383,-2.7968,-2.7969,-2.9316,-3.1034,-2.9726,-2.9141,-2.9004,-2.9199,-2.8984,-2.8476,-2.7617,-2.7324,-2.7324,-2.7324,-2.7949,-2.873,-2.9141,-2.9902,-3.0508,-3.0292,-3.0233,-3.0056,-2.9384,-2.9067,-2.8713,-2.8001,-2.7036,-2.6087,-2.5389,-2.4523,-2.3409,-2.1903,-2.1145,-2.0603,-2.0174,-2.0688,-2.1405,-2.2203,-2.2466,-2.2986,-2.4065,-2.4158,-2.4542,-2.5533,-2.5578,-2.5595,-2.5683,-2.5702,-2.5702,-2.5703,-2.5703,-2.5703,-2.5703,-2.5703,-2.5703,-2.5703,-2.5703,-2.5703,-2.5703,-2.5703,-2.5703,-2.5703,-2.5866,-2.6632,-2.7826,-2.818,-2.8958,-2.9827,-2.9232,-2.8296,-2.7299,-2.7714,-2.8002,-2.8297,-2.4156,-2.4826,-2.5687,-2.6796,-2.7771,-2.859,-2.9146,-3.119,-3.2929,-3.3604,-3.5282,-3.6358,-3.6193,-3.6196,-3.5693,-3.4378,-3.4257,-3.3719,-3.2421,-3.2433,-3.2086,-3.1146,-3.1204,-3.0856,-3.0013,-3.0397,-3.0436,-3.0094,-3.0014,-2.9784,-2.9427,0.0,0.0,0.0,0.0,-2.9305,-2.9269,-2.9788,-2.926,-2.807,-2.8124,-2.8203,0.0,-2.8301,-2.8906,-2.9746,-2.9648,-2.9531,-2.9277,-2.8242,-2.832,-2.8652,-2.7383,-2.7266,-2.7578,-2.7578,-2.8184,-2.8984,-2.9473,-3.0234,-3.0898,-3.0898,-3.0898,-3.0761,-3.0289,-2.9879,-2.9565,-2.9406,-2.8406,-2.7523,-2.7383,-2.63,-2.4745,-2.2647,-2.1618,-2.1069,-2.1073,-2.15,-2.2244,-2.3439,-2.3563,-2.3889,-2.4733,-2.4374,-2.4527,-2.5522,-2.5549,-2.5565,-2.5681,-2.5699,-2.57,-2.5703,-2.6074,-2.6094,-2.5703,-2.6074,-2.6074,-2.5703,-2.5703,-2.5703,-2.5703,-2.5703,-2.5703,-2.5723,-2.6006,-2.6872,-2.8123,-2.8386,-2.925,-3.0332,-2.922,-2.78,-2.6438,-2.6924,-2.7329,-2.7653,-2.5889,-2.7387,-2.8385,-2.7929,-3.0447,-3.2612,-3.2903,-3.3476,-3.4372,-3.5727,-3.6727,-3.7232,-3.71,-3.6968,-3.6267,-3.4668,-3.434,-3.3897,-3.3208,-3.2247,-3.1758,-3.186,-3.0809,-2.9908,-2.9199,-2.9839,-2.9945,-2.9465,-3.0307,-3.0406,0.0,0.0,0.0,0.0,0.0,0.0,0.0,-3.0693,-3.0232,-2.9583,-2.9609,-2.9082,-2.832,-2.8555,-2.8574,-2.8574,-2.9336,-2.9941,-2.998,-2.7285,-2.7656,-2.9023,-2.7754,-2.7773,-2.8301,-2.8301,-2.8926,-2.9609,-2.9609,-3.0234,-3.0898,-3.0898,-3.0801,-3.0723,-3.0722,-3.0136,-2.9804,-3.0565,-2.9528,-2.8706,-2.9453,-2.8133,-2.6155,-2.3815,-2.2794,-2.2292,-2.2285,-2.2388,-2.2945,-2.4315,-2.4608,0.0,-2.5542,-2.4803,-2.4654,-2.553,-2.5549,-2.5561,-2.5693,-2.5694,-2.5698,-2.5702,-2.6426,-2.6523,-2.5879,-2.6504,-2.6504,-2.5879,-2.5742,-2.5703,-2.5703,-2.5703,-2.5703,-2.5722,-2.6367,-2.7126,-2.7967,-2.8531,-2.9239,-2.9803,-2.8445,-2.7007,-2.5683,-2.5703,-2.6148,-2.6638,-2.781,-2.9148,-3.0691,-3.2047,-3.3942,-3.5798,-3.7246,-3.6889,-3.631,-3.5946,-3.7317,-3.8268,-3.8084,-3.7401,-3.6793,-3.6304,-3.5007,-3.4135,-3.4,-3.2557,-3.1717,-3.1725,-3.0188,-2.9253,-2.9126,-2.8666,-2.9064,-3.037,-3.0586,-3.1018,-3.1638,-3.1006,0.0,0.0,0.0,0.0,-3.1682,-3.0312,-2.9652,-2.9511,-2.9588,-2.9082,-2.8457,-2.9902,-3.0,-2.9394,-2.9551,-2.8769,-2.793,-2.9473,-2.8867,-2.7656,-2.8789,-2.8769,-2.8301,-2.8301,-2.8926,-2.9609,-2.9609,-3.0234,-3.0898,-3.0898,-3.0351,-2.9824,-2.9824,-2.9707,-2.9648,-2.9805,-2.959,-2.9414,-2.957,-2.8162,-2.6571,-2.5354,-2.5035,-2.4919,-2.4861,-2.5429,-2.5723,-2.5403,-2.5976,-2.6196,-2.5731,-2.5467,-2.541,-2.5584,-2.558,-2.5623,-2.5698,-2.5696,-2.5698,-2.5703,-2.5859,-2.6191,-2.6777,-2.6211,-2.6211,-2.6758,-2.6035,-2.5703,-2.5703,-2.5703,-2.5703,-2.5703,-2.5712,-2.6223,-2.7037,-2.7045,-2.7198,-2.7398,-2.7134,-2.6441,-2.5611,-2.5683,-2.5757,-2.5917,-3.1567,-3.2537,-3.3779,-3.5135,-3.6753,-3.8301,-3.9642,-3.9822,-3.9351,-3.8139,-3.9101,-3.9667,-3.9089,-3.863,-3.7929,-3.6887,-3.601,-3.5122,-3.4263,-3.3026,-3.2141,-3.1718,-3.0467,-2.9563,-2.9107,-2.8746,-2.924,-3.0611,-3.063,-3.1378,-3.2744,-3.1843,-3.1673,-3.2153,0.0,-3.2366,-3.2647,-3.1379,-3.0844,-3.0808,-3.0428,-3.0019,-2.9746,-3.0586,-3.0644,-3.0273,-3.0273,-2.9434,-2.8398,-2.8769,-2.8633,-2.8418,-2.8809,-2.9258,-2.9648,-2.9648,-2.9941,-3.0273,-3.0273,-3.0586,-3.0898,-3.0898,-3.0586,-3.0273,-3.0273,-3.0273,-3.0273,-3.0273,-3.0273,-3.0137,-2.9687,-2.8534,-2.7377,-2.6421,-2.5894,-2.573,-2.6112,-2.6148,-2.6169,-2.6258,-2.624,-2.6083,-2.5727,-2.5679,-2.5641,-2.5595,-2.5598,-2.5615,-2.5657,-2.5686,-2.5696,-2.5703,-2.6133,-2.6367,-2.6328,-2.6367,-2.6367,-2.6328,-2.5898,-2.5703,-2.5703,-2.5703,-2.5703,-2.5683,-2.5558,-2.5992,-2.6826,-2.7141,-2.7084,-2.6798,-2.6798,-2.6337,-2.566,-2.5683,-2.5976,-2.6382,-3.517,-3.6119,-3.7147,-3.7894,-3.9235,-4.0447,-4.1177,-4.1737,-4.1607,-4.0293,-4.0702,-4.082,-4.0061,-3.9744,-3.8945,-3.7327,-3.6736,-3.5815,-3.4302,-3.3372,-3.2545,-3.1737,-3.0865,-2.9981,-2.9127,-2.8934,-2.9404,-3.0591,-3.0777,-3.173,-3.3365,-3.2871,-3.302,-3.3678,-3.3484,-3.3409,-3.3345,-3.2473,-3.2009,-3.1794,-3.1152,-3.0898,-3.0898,-3.0898,-3.0898,-3.0898,-3.0898,-3.0332,-2.9394,-2.8027,-2.834,-2.9277,-2.8945,-2.9668,-3.0664,-3.0859,-3.0898,-3.0898,-3.0898,-3.0898,-3.0898,-3.0898,-3.0762,-3.0625,-3.0625,-3.0625,-3.0625,-3.0625,-3.0762,-3.0625,-2.9765,-2.9199,-2.8531,-2.7576,-2.6998,-2.6883,-2.7504,-2.6872,-2.6573,-2.7115,-2.6454,-2.5956,-2.5975,-2.5819,-2.5754,-2.588,-2.5706,-2.5613,-2.5621,-2.5833,-2.5966,-2.5976,-2.664,-2.6758,-2.6269,-2.6562,-2.6465,-2.5977,-2.5781,-2.5703,-2.5703,-2.5703,-2.5703,-2.5683,-2.5567,-2.588,-2.6553,-2.7113,-2.7127,-2.6804,-2.6804,-2.6464,-2.5977,-2.5977,-2.6406,-2.7031,-3.7048,-3.8918,-4.0559,-4.0713,-4.1501,-4.2167,-4.2265,-4.1719,-4.1208,-4.0936,-4.1071,-4.1111,-4.0906,-4.0106,-3.9198,-3.8179,-3.6562,-3.5218,-3.4263,-3.3372,-3.2545,-3.1737,-3.0865,-2.9981,-2.9127,-2.8396,-2.8834,-3.0516,-3.1362,-3.2295,-3.332,-3.4096,-3.4497,-3.4536,-3.3755,-3.3396,-3.3333,-3.2475,-3.1677,-3.1015,-3.0937,-3.0898,-3.0898,-3.0898,-3.0898,-3.0898,-3.0898,-3.0332,-2.957,-2.9414,-2.8945,-2.8672,-3.0176,-3.0234,-2.9883,-3.0664,-3.0898,-3.0898,-3.0898,-3.0898,-3.0898,-3.0898,-3.0312,-2.9726,-2.9726,-2.9726,-2.9726,-2.9726,-3.0351,-3.0625,-2.9766,-3.0176,-3.0307,-2.9245,-2.9675,-3.0137,-3.016,-2.9407,-2.868,-2.8142,-2.7316,-2.6802,-2.6875,-2.6152,-2.5994,-2.6713,-2.6044,-2.5632,-2.5681,-2.639,-2.6822,-2.6875,-2.6953,-2.7344,-2.8047,-2.6562,-2.6172,-2.6875,-2.6074,-2.5703,-2.5703,-2.5703,-2.5703,-2.5703,-2.561,-2.5568,-2.5529,-2.5538,-2.6037,-2.6802,-2.6802,-2.6823,-2.6875,-2.6875,-2.6934,-2.7109,-4.0136,-4.1076,-4.1959,-4.2501,-4.2898,-4.3137,-4.3163,-4.2051,-4.1347,-4.1773,-4.1464,-4.0976,-4.0405,-4.032,-3.9544,-3.7642,-3.7197,-3.643,-3.5064,-3.416,-3.3295,-3.2468,-3.1621,-3.0769,-2.991,-2.9563,-3.0018,-3.1274,-3.2225,-3.3146,-3.4033,-3.4403,-3.4286,-3.3712,-3.2905,-3.256,-3.251,-3.1713,-3.1191,-3.0898,-3.0898,-3.0898,-3.0898,-3.0898,-3.0898,-3.0898,-3.0898,-3.0684,-3.0371,-3.0371,-2.9805,-2.9199,-2.9902,-3.0234,-3.0449,-3.0801,-3.0898,-3.0898,-3.0898,-3.0898,-3.0898,-3.0898,-3.0644,-3.0371,-3.0371,-3.0371,-3.0371,-3.0371,-3.0664,-3.0781,-3.0449,-3.0234,-3.0113,-3.008,-2.9925,-2.9975,-3.0438,-2.9377,-2.8462,-2.8225,-2.7001,-2.6405,-2.6953,-2.621,-2.6269,-2.7637,-2.644,-2.5871,-2.6387,-2.6755,-2.697,-2.6991,-2.6992,-2.6914,-2.6738,-2.6055,-2.6133,-2.6992,-2.6113,-2.5977,-2.6484,-2.6484,-2.6737,-2.7198,-2.717,-2.7074,-2.6928,-2.6407,-2.6744,-2.7539,-2.7051,-2.723,-2.7773,-2.7773,-2.8105,-2.8613,-4.2098,-4.2459,-4.2869,-4.3523,-4.3426,-4.3255,-4.3301,-4.1894,-4.1113,-4.1933,-4.1113,-4.0293,-3.9941,-4.0235,-3.9517,-3.7193,-3.7613,-3.718,-3.5238,-3.4776,-3.3968,-3.2602,-3.2237,-3.1519,-3.0423,-3.0404,-3.0714,-3.1388,-3.2329,-3.3104,-3.3713,-3.4,-3.3755,-3.3091,-3.2319,-3.1969,-3.1945,-3.1162,-3.0858,-3.0898,-3.0898,-3.0898,-3.0898,-3.0898,-3.0898,-3.0898,-3.0898,-3.0898,-3.0898,-3.0898,-3.0488,-2.998,-2.998,-3.0391,-3.0898,-3.0898,-3.0898,-3.0898,-3.0898,-3.0898,-3.0898,-3.0898,-3.0898,-3.0898,-3.0898,-3.0898,-3.0898,-3.0898,-3.0898,-3.0898,-3.0898,-3.039,-3.0115,-3.0557,-3.0115,-2.9905,-3.0487,-2.9154,-2.8322,-2.8844,-2.744,-2.6748,-2.7586,-2.6901,-2.6924,-2.8199,-2.6914,-2.6328,-2.6894,-2.7206,-2.7245,-2.701,-2.7246,-2.709,-2.6465,-2.6211,-2.6523,-2.7363,-2.6504,-2.6543,-2.7383,-2.7383,-2.7694,-2.8231,-2.8204,-2.8147,-2.8003,-2.7415,-2.771,-2.8463,-2.7896,-2.8079,-2.8672,-2.8672,-2.9062,-2.9609,-4.2278,-4.2947,-4.3528,-4.3672,-4.2988,-4.2402,-4.2422,-4.0996,-4.0234,-4.1094,-3.9707,-3.8965,-3.9805,-3.9726,-3.891,-3.7154,-3.7613,-3.6911,-3.4379,-3.5007,-3.4365,-3.1814,-3.2468,-3.2102,-3.0442,-3.0404,-3.0404,-3.0423,-3.1364,-3.1821,-3.184,-3.2775,-3.3207,-3.3164,-3.2283,-3.1943,-3.1947,-3.1067,-3.0771,-3.0898,-3.0898,-3.0898,-3.0898,-3.0898,-3.0898,-3.0898,-3.0898,-3.0898,-3.0898,-3.0898,-3.0898,-3.0879,-3.0879,-3.0898,-3.0898,-3.0898,-3.0898,-3.0898,-3.0898,-3.0898,-3.0898,-3.0898,-3.0898,-3.0898,-3.0898,-3.0898,-3.0898,-3.0898,-3.0898,-3.0898,-3.0898,-3.0898,-3.0838,-3.072,-3.0695,-3.0695,-3.0693,-2.9268,-2.8786,-3.0371,-2.9091,-2.839,-2.9197,-2.8544,-2.812,-2.8291,-2.7479,-2.6992,-2.6991,-2.7747,-2.7822,-2.7031,-2.7832,-2.8281,-2.8262,-2.7402,-2.7422,-2.8262,-2.7402,-2.7441,-2.8281,-2.8281,-2.8281,-2.8301,-2.8232,-2.8201,-2.8197,-2.8119,-2.8636,-2.9471,-2.9472,-2.9524,-2.957,-2.957,-2.959,-2.9609,-4.1966,-4.2409,-4.2708,-4.2735,-4.2555,-4.2226,-4.168,-4.0117,-3.9336,-4.0195,-3.8281,-3.7147,-3.7975,-3.8455,-3.8019,-3.6271,-3.6723,-3.6546,-3.518,-3.4795,-3.3987,-3.2583,-3.2237,-3.1538,-3.0423,-3.0404,-3.0404,-3.0404,-3.1344,-3.2081,-3.2617,-3.2353,-3.2213,-3.2134,-3.1306,-3.0973,-3.1035,-3.0799,-3.0771,-3.0898,-3.0898,-3.0898,-3.0898,-3.0898,-3.0898,-3.0898,-3.0898,-3.0898,-3.0898,-3.0898,-3.0898,-3.0898,-3.0898,-3.0898,-3.0898,-3.0898,-3.0898,-3.0898,-3.0898,-3.0898,-3.0898,-3.0898,-3.0898,-3.0898,-3.0898,-3.0898,-3.0898,-3.0898,-3.0898,-3.0898,-3.0898,-3.041,-2.9979,-2.99,-2.9385,-2.8994,-2.8994,-2.8016,-2.7527,-2.808,-2.7141,-2.6809,-2.7647,-2.6965,-2.7428,-2.9769,-2.8535,-2.7722,-2.7817,-2.8105,-2.8144,-2.7889,-2.8164,-2.8301,-2.8301,-2.8027,-2.832,-2.918,-2.8301,-2.834,-2.9199,-2.9199,-2.9512,-3.0078,-3.0057,-2.9992,-2.9917,-2.9988,-3.0475,-3.1149,-3.0659,-3.0839,-3.1367,-3.1367,-3.1367,-3.1445,-4.1394,-4.1621,-4.1752,-4.1794,-4.1886,-4.168,-4.084,-3.9512,-3.8809,-3.9336,-3.74,-3.6279,-3.7116,-3.7248,-3.6856,-3.5764,-3.6296,-3.6365,-3.5558,-3.468,-3.3821,-3.2949,-3.2122,-3.1288,-3.0423,-3.0404,-3.0404,-3.0404,-3.0992,-3.1527,-3.2023,-3.1835,-3.157,-3.1218,-3.1334,-3.1097,-3.0625,-3.0981,-3.1053,-3.0898,-3.0898,-3.0898,-3.0898,-3.0898,-3.0898,-3.0898,-3.0898,-3.0898,-3.0898,-3.0898,-3.1113,-3.1328,-3.0996,-3.1113,-3.1328,-3.0996,-3.0898,-3.0898,-3.0898,-3.0898,-3.0898,-3.0898,-3.0898,-3.0898,-3.0898,-3.0898,-3.0898,-3.0898,-3.0898,-3.0898,-3.0898,-3.0469,-2.996,-2.9601,-2.907,-2.8602,-2.8289,-2.7488,-2.7165,-2.7784,-2.7118,-2.6806,-2.7332,-2.7196,-2.7702,-2.9196,-2.8877,-2.8349,-2.7748,-2.8637,-2.8742,-2.7849,-2.8457,-2.8789,-2.8789,-2.8789,-2.9238,-3.0078,-2.9531,-2.9394,-2.9629,-3.0273,-3.0684,-3.0937,-3.1562,-3.1619,-3.1299,-3.1679,-3.2108,-3.2472,-3.2011,-3.2168,-3.2617,-3.2305,-3.2383,-3.2637,-4.0655,-4.0689,-4.0769,-4.0881,-4.0968,-4.0742,-3.9922,-3.9062,-3.8516,-3.8516,-3.698,-3.6214,-3.7012,-3.62,-3.5605,-3.5595,-3.6209,-3.6308,-3.5558,-3.468,-3.3821,-3.2949,-3.2179,-3.1346,-3.0423,-3.0519,-3.0577,-3.0577,-3.0462,-3.0423,-3.0519,-3.1308,-3.1269,-3.0558,-3.2134,-3.2038,-3.0739,-3.1501,-3.1457,-3.0898,-3.0898,-3.0898,-3.0898,-3.0898,-3.0898,-3.0918,-3.0957,-3.0976,-3.0996,-3.1055,-3.1582,-3.2051,-3.125,-3.1504,-3.1953,-3.1133,-3.0898,-3.0898,-3.0898,-3.0898,-3.0898,-3.0898,-3.0898,-3.0898,-3.0898,-3.0898,-3.0898,-3.0898,-3.0898,-3.0898,-3.0898,-3.0859,-3.0547,-2.9726,-2.9492,-2.916,-2.8418,-2.7559,-2.7554,-2.9041,-2.8571,-2.8084,-2.8033,-2.8766,-2.8681,-2.7362,-2.8691,-2.8863,-2.7238,-2.9392,-2.9585,-2.7168,-2.8711,-2.9629,-2.9687,-2.9687,-3.0098,-3.0898,-3.0898,-3.0488,-2.9746,-3.1367,-3.1699,-3.1074,-3.2637,-3.293,-3.2344,-3.3164,-3.3496,-3.3496,-3.3496,-3.3496,-3.3398,-3.2656,-3.2812,-3.3184,-4.0537,-4.0195,-3.9887,-3.9928,-3.9525,-3.9141,-3.8945,-3.8164,-3.7617,-3.7617,-3.6609,-3.5947,-3.6033,-3.5782,-3.5582,-3.5534,-3.5681,-3.5692,-3.5519,-3.468,-3.3821,-3.2949,-3.2718,-3.1929,-3.0423,-3.1654,-3.2314,-3.2314,-3.1019,-3.0731,-3.141,-3.1602,-3.1583,-3.141,-3.1857,-3.1885,-3.1575,-3.1166,-3.096,-3.0898,-3.0898,-3.0898,-3.0898,-3.0792,-3.0815,-3.0976,-3.1534,-3.1811,-3.1992,-3.2598,-3.2539,-3.2168,-3.1953,-3.1582,-3.1172,-3.0957,-3.0898,-3.0898,-3.0898,-3.0898,-3.0898,-3.0898,-3.0898,-3.0898,-3.0898,-3.0898,-3.0898,-3.0898,-3.0898,-3.0898,-3.0898,-3.0351,-2.9844,-2.9629,-2.8476,-2.7773,-2.8242,-2.7559,-2.7382,-2.8414,-2.8375,-2.8258,-2.8237,-2.7828,-2.8193,-2.9713,-2.9548,-2.9466,-2.9705,-3.087,-3.0408,-2.7994,-2.8969,-2.9875,-3.0586,-3.0586,-3.0703,-3.0898,-3.0898,-3.0781,-3.0605,-3.1016,-3.1465,-3.1914,-3.2305,-3.2715,-3.3184,-3.4043,-3.4394,-3.4394,-3.4394,-3.4394,-3.4375,-3.418,-3.3809,-3.3437,-4.0015,-3.9766,-3.9466,-3.9081,-3.8777,-3.8476,-3.8066,-3.7598,-3.7148,-3.6712,-3.6503,-3.6355,-3.6265,-3.6524,-3.6511,-3.6084,-3.5712,-3.55,-3.55,-3.468,-3.3994,-3.3506,-3.3103,-3.2468,-3.1558,-3.2429,-3.2891,-3.2891,-3.1987,-3.1775,-3.2256,-3.266,-3.2622,-3.2262,-3.2733,-3.2783,-3.2435,-3.1644,-3.1374,-3.1465,-3.1055,-3.0898,-3.0898,-3.0746,-3.0998,-3.1455,-3.1854,-3.2307,-3.2767,-3.3242,-3.3105,-3.2676,-3.2324,-3.1875,-3.1426,-3.1016,-3.0898,-3.0898,-3.0898,-3.0898,-3.0996,-3.1387,-3.1191,-3.0996,-3.1406,-3.1191,-3.0898,-3.0898,-3.0898,-3.0898,-3.0898,-3.0508,-2.9922,-2.9141,-2.9136,-2.8878,-2.7851,-2.8256,-2.8702,-2.8867,-2.8887,-2.9043,-2.9453,-2.9062,-2.9178,-3.0121,-3.0095,-2.9854,-2.9476,-3.0591,-3.0656,-2.9389,-2.9797,-3.0515,-3.1484,-3.1094,-3.0898,-3.0898,-3.0898,-3.0898,-3.0918,-3.1309,-3.1758,-3.2246,-3.3008,-3.3594,-3.4062,-3.4922,-3.5293,-3.5293,-3.5293,-3.5293,-3.5254,-3.4844,-3.4648,-3.4531,-3.9656,-3.9564,-3.9334,-3.8481,-3.8348,-3.8124,-3.7402,-3.7305,-3.7048,-3.6377,-3.6818,-3.7171,-3.7093,-3.763,-3.77,-3.6962,-3.6269,-3.5769,-3.5519,-3.493,-3.4456,-3.4205,-3.3622,-3.3179,-3.291,-3.2891,-3.3026,-3.3295,-3.3026,-3.2968,-3.3103,-3.3859,-3.3814,-3.3146,-3.3977,-3.391,-3.3156,-3.2375,-3.202,-3.1934,-3.1191,-3.0898,-3.0898,-3.0897,-3.1347,-3.203,-3.2258,-3.2845,-3.3523,-3.3706,-3.3691,-3.3457,-3.2637,-3.2305,-3.2031,-3.1152,-3.0898,-3.0898,-3.0898,-3.0898,-3.1113,-3.1973,-3.1543,-3.1094,-3.1836,-3.1523,-3.1094,-3.1094,-3.1094,-3.1094,-3.1094,-3.0996,-3.0488,-2.9237,-3.0448,-3.0708,-2.8277,-2.9391,-3.0342,-3.0039,-2.998,-3.0332,-3.1191,-3.1172,-3.084,-3.0215,-3.0722,-3.0415,-2.8957,-3.0202,-3.0984,-3.1063,-3.0819,-3.1116,-3.1992,-3.1386,-3.0995,-3.0878,-3.0878,-3.0878,-3.0898,-3.1797,-3.2266,-3.2461,-3.4023,-3.4766,-3.4941,-3.5684,-3.5996,-3.5996,-3.5996,-3.5996,-3.5918,-3.5176,-3.5273,-3.5586,-4.0507,-4.0019,-3.9337,-3.8529,-3.779,-3.7325,-3.7304,-3.7305,-3.7478,-3.7954,-3.8068,-3.805,-3.792,-3.7977,-3.795,-3.7815,-3.768,-3.7007,-3.5596,-3.6,-3.568,-3.4263,-3.4776,-3.4404,-3.2929,-3.2891,-3.3622,-3.5096,-3.3622,-3.3276,-3.3994,-3.4148,-3.4165,-3.4095,-3.4345,-3.4026,-3.3236,-3.2493,-3.1757,-3.1094,-3.0957,-3.0898,-3.0956,-3.1501,-3.1836,-3.2175,-3.3479,-3.415,-3.4514,-3.5264,-3.505,-3.4355,-3.3496,-3.2754,-3.2031,-3.1152,-3.0898,-3.0898,-3.0898,-3.0898,-3.1113,-3.1973,-3.1543,-3.0937,-3.1074,-3.1562,-3.1992,-3.1992,-3.1992,-3.1992,-3.1992,-3.1406,-3.1248,-3.2266,-3.104,-3.0481,-3.2028,-3.0806,-3.0253,-3.1621,-3.1797,-3.2129,-3.293,-3.2402,-3.2226,-3.2773,-3.2196,-3.2001,-3.2379,-3.2543,-3.2656,-3.2733,-3.1349,-3.0774,-3.1094,-3.1593,-3.1465,-3.0722,-3.0722,-3.0722,-3.0762,-3.1756,-3.2578,-3.3262,-3.4277,-3.5117,-3.5801,-3.5937,-3.5996,-3.5996,-3.5996,-3.5996,-3.5976,-3.5859,-3.543,-3.4863,-4.0189,-3.9485,-3.885,-3.8454,-3.7735,-3.7397,-3.793,-3.8008,-3.8256,-3.8943,-3.9395,-3.9767,-4.0062,-4.0126,-3.9932,-3.9388,-3.941,-3.8717,-3.6957,-3.675,-3.6346,-3.5584,-3.5519,-3.5115,-3.4308,-3.4288,-3.4692,-3.55,-3.4692,-3.4507,-3.4891,-3.4949,-3.4715,-3.4289,-3.3991,-3.365,-3.3227,-3.2008,-3.1543,-3.1601,-3.1601,-3.1601,-3.1679,-3.2386,-3.2935,-3.344,-3.4155,-3.4743,-3.5256,-3.5736,-3.5379,-3.4551,-3.3672,-3.2851,-3.2031,-3.1152,-3.123,-3.1601,-3.1601,-3.1914,-3.2344,-3.2754,-3.2539,-3.2246,-3.2246,-3.2559,-3.2851,-3.2851,-3.2851,-3.2851,-3.2851,-3.2168,-3.1835,-3.2547,-3.2034,-3.1798,-3.2563,-3.2424,-3.2567,-3.3437,-3.3555,-3.3887,-3.4726,-3.4043,-3.3691,-3.4062,-3.3228,-3.2851,-3.3177,-3.2667,-3.2561,-3.3035,-3.2364,-3.1607,-3.0793,-3.1556,-3.151,-3.0655,-3.1154,-3.1145,-3.0755,-3.2185,-3.3047,-3.3457,-3.4316,-3.5195,-3.5996,-3.5996,-3.5996,-3.5996,-3.5996,-3.5996,-3.5996,-3.5996,-3.5742,-3.5391,-4.0032,-3.9424,-3.8949,-3.8786,-3.8253,-3.8163,-3.9062,-3.9179,-3.9472,-4.0369,-4.0997,-4.1549,-4.204,-4.2196,-4.1865,-4.0889,-4.0891,-4.0281,-3.8695,-3.7601,-3.6934,-3.6719,-3.5923,-3.55,-3.55,-3.55,-3.55,-3.55,-3.55,-3.5405,-3.5213,-3.5262,-3.4856,-3.4053,-3.3534,-3.3191,-3.2986,-3.1932,-3.1758,-3.2226,-3.2402,-3.248,-3.2558,-3.3324,-3.3979,-3.4526,-3.469,-3.515,-3.5686,-3.5805,-3.5467,-3.4822,-3.3965,-3.3281,-3.2617,-3.1738,-3.2109,-3.2773,-3.2773,-3.3086,-3.3457,-3.3652,-3.3555,-3.3398,-3.3398,-3.3555,-3.3691,-3.3691,-3.3691,-3.3691,-3.3691,-3.3027,-3.2597,-3.2985,-3.3145,-3.3196,-3.3061,-3.3731,-3.4354,-3.4668,-3.4707,-3.5039,-3.5918,-3.5391,-3.5,-3.5,-3.4321,-3.3867,-3.3784,-3.3083,-3.2774,-3.2997,-3.3122,-3.248,-3.0989,-3.1782,-3.1737,-3.0886,-3.1807,-3.1798,-3.1033,-3.2843,-3.3691,-3.375,-3.4629,-3.5371,-3.5996,-3.5996,-3.5996,-3.5996,-3.5996,-3.5996,-3.5996,-3.5996,-3.5996,-3.5996,-4.0912,-4.0855,-4.0599,-3.9901,-3.9636,-3.9861,-4.0859,-4.0904,-4.1381,-4.2914,-4.3066,-4.3021,-4.3014,-4.3006,-4.2659,-4.1777,-4.1708,-4.1312,-4.0381,-3.8852,-3.7616,-3.6738,-3.5923,-3.55,-3.55,-3.55,-3.55,-3.55,-3.55,-3.5111,-3.4389,-3.4385,-3.4019,-3.3368,-3.3317,-3.2913,-3.2324,-3.2949,-3.2812,-3.2266,-3.3008,-3.3301,-3.3398,-3.4199,-3.4499,-3.4597,-3.5276,-3.5568,-3.5626,-3.5682,-3.5766,-3.5678,-3.4862,-3.4551,-3.4336,-3.3476,-3.3828,-3.4512,-3.4512,-3.3965,-3.3594,-3.4394,-3.4004,-3.3398,-3.3398,-3.4023,-3.4609,-3.4609,-3.4609,-3.4609,-3.4609,-3.3906,-3.3806,-3.5289,-3.4323,-3.3881,-3.5326,-3.4344,-3.3789,-3.4609,-3.4707,-3.5039,-3.5918,-3.5937,-3.5898,-3.5898,-3.5787,-3.5646,-3.5516,-3.5391,-3.4618,-3.3055,-3.3122,-3.2746,-3.1812,-3.261,-3.2574,-3.1727,-3.2541,-3.2528,-3.1868,-3.368,-3.4557,-3.4648,-3.5527,-3.5937,-3.5996,-3.5996,-3.5996,-3.5996,-3.5996,-3.5996,-3.5996,-3.5996,-3.5996,-3.5996,-4.0401,-4.0326,-4.0231,-3.9941,-3.9861,-4.0133,-4.1054,-4.1547,-4.2195,-4.3257,-4.3749,-4.4167,-4.4592,-4.4309,-4.3936,-4.3503,-4.2629,-4.1703,-4.0745,-3.9651,-3.8132,-3.6109,-3.5736,-3.5534,-3.55,-3.55,-3.55,-3.55,-3.55,-3.5341,-3.5052,-3.5093,-3.4721,-3.4049,-3.409,-3.3677,-3.2969,-3.3262,-3.3223,-3.3027,-3.3867,-3.4219,-3.4297,-3.5153,-3.5371,-3.5288,-3.5566,-3.5639,-3.5611,-3.5671,-3.5797,-3.5754,-3.4959,-3.4707,-3.4629,-3.4297,-3.4434,-3.4824,-3.5351,-3.5254,-3.4961,-3.4746,-3.4863,-3.4863,-3.4336,-3.4883,-3.5664,-3.6191,-3.5879,-3.5664,-3.6211,-3.5156,-3.4589,-3.5735,-3.449,-3.3984,-3.5695,-3.492,-3.4531,-3.5391,-3.5508,-3.5644,-3.5976,-3.5996,-3.5996,-3.5996,-3.5944,-3.5841,-3.571,-3.56,-3.4731,-3.2995,-3.2998,-3.2387,-3.1041,-3.2413,-3.2666,-3.1814,-3.3281,-3.3556,-3.2822,-3.4634,-3.5193,-3.4746,-3.5625,-3.5996,-3.5996,-3.5996,-3.5996,-3.5996,-3.5996,-3.5996,-3.5996,-3.5996,-3.5996,-3.5996,-4.041,-4.0312,-4.0312,-4.0312,-4.0312,-4.0586,-4.1445,-4.218,-4.2926,-4.3715,-4.44,-4.5048,-4.5535,-4.5273,-4.4902,-4.4537,-4.3354,-4.2117,-4.0883,-3.9555,-3.7972,-3.612,-3.5766,-3.5582,-3.5528,-3.5508,-3.55,-3.55,-3.55,-3.5373,-3.5111,-3.5165,-3.4796,-3.4082,-3.3846,-3.3602,-3.3375,-3.3376,-3.3534,-3.3887,-3.4766,-3.5117,-3.5176,-3.5762,-3.5875,-3.5707,-3.5707,-3.5633,-3.5588,-3.5659,-3.5761,-3.5754,-3.5251,-3.5117,-3.5117,-3.5117,-3.5117,-3.5234,-3.584,-3.5996,-3.5859,-3.5254,-3.5566,-3.5918,-3.5586,-3.5976,-3.666,-3.7539,-3.7226,-3.6992,-3.7598,-3.6504,-3.5801,-3.668,-3.5586,-3.5039,-3.623,-3.5898,-3.5644,-3.5957,-3.5996,-3.5996,-3.5996,-3.5996,-3.5996,-3.5996,-3.5944,-3.5831,-3.5687,-3.5562,-3.4827,-3.3353,-3.3314,-3.2661,-3.1336,-3.2507,-3.2938,-3.2608,-3.4197,-3.4511,-3.3764,-3.5285,-3.5643,-3.5137,-3.5742,-3.5996,-3.5996,-3.5996,-3.5996,-3.5996,-3.5996,-3.5996,-3.5996,-3.5996,-3.5996,-3.5996,-4.1191,-4.1191,-4.1191,-4.1191,-4.1191,-4.1465,-4.2266,-4.2966,-4.3703,-4.4587,-4.522,-4.5594,-4.5594,-4.573,-4.5454,-4.4583,-4.3826,-4.2649,-4.0898,-3.8477,-3.706,-3.7,-3.6105,-3.5591,-3.5611,-3.5534,-3.5481,-3.55,-3.5481,-3.5078,-3.4307,-3.4307,-3.391,-3.3154,-3.2305,-3.243,-3.3301,-3.3311,-3.3857,-3.4785,-3.5644,-3.5996,-3.5996,-3.5996,-3.5875,-3.5707,-3.5707,-3.5616,-3.5515,-3.5655,-3.5703,-3.5735,-3.5931,-3.5996,-3.5996,-3.5996,-3.5996,-3.5996,-3.5996,-3.5996,-3.5996,-3.5996,-3.5996,-3.623,-3.7109,-3.7305,-3.7559,-3.8437,-3.8594,-3.8594,-3.8613,-3.7891,-3.7598,-3.8457,-3.7871,-3.7305,-3.7305,-3.7305,-3.6992,-3.6113,-3.6016,-3.6016,-3.6016,-3.5996,-3.5996,-3.5996,-3.5942,-3.5811,-3.5606,-3.554,-3.5096,-3.4244,-3.4205,-3.3843,-3.3131,-3.3112,-3.3514,-3.4299,-3.5255,-3.5326,-3.4644,-3.5515,-3.5942,-3.5996,-3.6016,-3.6016,-3.5996,-3.5996,-3.5996,-3.5996,-3.5996,-3.5996,-3.5996,-3.5996,-3.5996,-3.5996,-4.041,-4.0781,-4.1016,-4.0391,-4.0781,-4.1249,-4.1391,-4.2542,-4.3461,-4.3621,-4.4793,-4.5594,-4.5594,-4.5764,-4.5531,-4.471,-4.4014,-4.2368,-3.9458,-3.7415,-3.6322,-3.6295,-3.5981,-3.5735,-3.5591,-3.4988,-3.4928,-3.55,-3.4891,-3.4456,-3.423,-3.423,-3.3834,-3.3113,-3.2865,-3.3253,-3.415,-3.4199,-3.4725,-3.557,-3.5877,-3.5996,-3.5996,-3.5996,-3.5875,-3.5707,-3.5707,-3.5616,-3.5515,-3.5591,-3.5667,-3.5735,-3.5931,-3.5996,-3.5996,-3.5996,-3.5996,-3.5996,-3.5996,-3.5996,-3.5996,-3.5996,-3.5996,-3.623,-3.7109,-3.7305,-3.7715,-3.9219,-3.9023,-3.8789,-3.9394,-3.8809,-3.8301,-3.8555,-3.8379,-3.8203,-3.8203,-3.8203,-3.8125,-3.7851,-3.7285,-3.6914,-3.6914,-3.6367,-3.5996,-3.5996,-3.5841,-3.5712,-3.5621,-3.554,-3.5385,-3.5122,-3.4526,-3.4403,-3.486,-3.433,-3.4228,-3.4516,-3.5462,-3.5793,-3.5603,-3.6482,-3.6561,-3.6035,-3.6641,-3.6562,-3.5996,-3.5996,-3.5996,-3.5996,-3.5996,-3.5996,-3.5996,-3.5996,-3.5996,-3.5996,-4.0527,-4.084,-4.1035,-4.0508,-4.0818,-4.1083,-4.1,-4.2319,-4.3289,-4.3221,-4.46,-4.5629,-4.5673,-4.5811,-4.5585,-4.4805,-4.3498,-4.1543,-3.8789,-3.7285,-3.6367,-3.6016,-3.5951,-3.5875,-3.5714,-3.4792,-3.4717,-3.5547,-3.4642,-3.4379,-3.4718,-3.4718,-3.4295,-3.355,-3.355,-3.3886,-3.4471,-3.4187,-3.4789,-3.5907,-3.5604,-3.5684,-3.5996,-3.5996,-3.5688,-3.5299,-3.56,-3.5417,-3.509,-3.5463,-3.5686,-3.5807,-3.5923,-3.5975,-3.5996,-3.5996,-3.5996,-3.5996,-3.5996,-3.5996,-3.6074,-3.6426,-3.6504,-3.6738,-3.7617,-3.8086,-3.873,-4.0137,-4.0,-3.9785,-4.0312,-3.9707,-3.9238,-3.957,-3.9336,-3.9101,-3.9101,-3.9101,-3.8984,-3.8633,-3.8125,-3.7676,-3.7324,-3.7148,-3.6854,-3.6427,-3.6284,-3.6028,-3.5574,-3.583,-3.5827,-3.5519,-3.4988,-3.5005,-3.5624,-3.5192,-3.5012,-3.5128,-3.572,-3.5996,-3.6016,-3.6543,-3.6699,-3.6543,-3.707,-3.6992,-3.6543,-3.6894,-3.6621,-3.6035,-3.6387,-3.6309,-3.6035,-3.6387,-3.6504,-3.6562,-4.1191,-4.1191,-4.1191,-4.1172,-4.108,-4.0992,-4.0981,-4.2232,-4.3202,-4.3189,-4.4604,-4.566,-4.5783,-4.5802,-4.5492,-4.4755,-4.2473,-4.041,-3.8828,-3.7832,-3.6953,-3.6152,-3.6035,-3.5973,-3.5908,-3.478,-3.4657,-3.5611,-3.4518,-3.441,-3.5269,-3.5192,-3.4737,-3.3975,-3.3898,-3.4088,-3.4435,-3.3563,-3.4287,-3.5918,-3.5137,-3.5293,-3.5996,-3.5996,-3.5463,-3.48,-3.546,-3.515,-3.4545,-3.5334,-3.5741,-3.5877,-3.59,-3.5947,-3.6016,-3.6094,-3.6055,-3.6016,-3.6094,-3.6113,-3.6309,-3.7109,-3.7422,-3.7734,-3.8535,-3.9336,-4.0156,-4.1016,-4.1191,-4.1191,-4.1191,-4.0547,-4.0273,-4.1074,-4.0527,-4.0019,-4.0019,-4.0019,-3.9726,-3.8926,-3.8769,-3.8398,-3.7617,-3.8184,-3.8194,-3.7199,-3.7124,-3.6711,-3.5797,-3.6418,-3.6442,-3.5635,-3.5673,-3.5742,-3.582,-3.5882,-3.5925,-3.5908,-3.5973,-3.5996,-3.6016,-3.6152,-3.6621,-3.7305,-3.7461,-3.748,-3.748,-3.8262,-3.7617,-3.6191,-3.6992,-3.6777,-3.6113,-3.6973,-3.7305,-3.7422,-4.1191,-4.1191,-4.1171,-4.1055,-4.1023,-4.0944,-4.0786,-4.2152,-4.3182,-4.3135,-4.4581,-4.566,-4.5783,-4.5292,-4.4651,-4.3914,-4.1614,-4.0019,-3.9648,-3.8164,-3.7226,-3.7031,-3.6367,-3.5996,-3.5975,-3.4308,-3.4144,-3.5611,-3.3342,-3.266,-3.3449,-3.2814,-3.2429,-3.2218,-3.1525,-3.2386,-3.4287,-3.3524,-3.4248,-3.5918,-3.5779,-3.582,-3.5996,-3.5996,-3.5834,-3.5621,-3.5677,-3.5542,-3.5354,-3.5528,-3.5655,-3.5764,-3.5871,-3.5947,-3.6133,-3.6816,-3.6523,-3.6152,-3.6836,-3.7012,-3.7051,-3.7246,-3.832,-3.9394,-3.957,-3.9766,-4.0156,-4.1016,-4.1191,-4.1191,-4.1191,-4.1055,-4.0976,-4.1172,-4.1035,-4.0918,-4.0918,-4.0918,-4.0859,-4.0664,-4.0039,-3.9531,-3.9355,-3.8887,-3.8453,-3.812,-3.8043,-3.7909,-3.7641,-3.7687,-3.7334,-3.6462,-3.7103,-3.7216,-3.6722,-3.7396,-3.7135,-3.5975,-3.5996,-3.5996,-3.6055,-3.7402,-3.7773,-3.7383,-3.873,-3.8945,-3.832,-3.8516,-3.7988,-3.7031,-3.7226,-3.6777,-3.6113,-3.6973,-3.7305,-3.7422,-4.1191,-4.1191,-4.1151,-4.1025,-4.0952,-4.0866,-4.0713,-4.2099,-4.2992,-4.2536,-4.3932,-4.4901,-4.468,-4.4302,-4.3796,-4.3088,-4.1111,-3.9726,-3.9316,-3.8047,-3.7109,-3.6699,-3.623,-3.5996,-3.5996,-3.4604,-3.4447,-3.5642,-3.3807,-3.3314,-3.4141,-3.3712,-3.3295,-3.2878,-3.2444,-3.3064,-3.4353,-3.3571,-3.4296,-3.5909,-3.5527,-3.5625,-3.5996,-3.5996,-3.5721,-3.5377,-3.5685,-3.573,-3.5642,-3.5642,-3.5712,-3.5883,-3.6364,-3.6571,-3.6719,-3.7168,-3.7266,-3.7246,-3.7285,-3.7556,-3.7943,-3.8418,-3.9177,-3.9818,-3.9883,-4.0215,-4.0644,-4.1113,-4.1191,-4.1191,-4.1191,-4.1191,-4.1171,-4.1106,-4.1104,-4.108,-4.1021,-4.1056,-4.1104,-4.1104,-4.076,-4.0527,-4.0527,-3.9726,-3.931,-3.9535,-3.9893,-3.9718,-3.8775,-3.9008,-3.8623,-3.7353,-3.7757,-3.7849,-3.7534,-3.8031,-3.7904,-3.7158,-3.7206,-3.7246,-3.7266,-3.8184,-3.8574,-3.8594,-3.9492,-3.9648,-3.9219,-3.9156,-3.8605,-3.7822,-3.7824,-3.755,-3.7258,-3.8202,-3.8809,-3.9238,-4.1191,-4.1191,-4.115,-4.0992,-4.087,-4.0775,-4.0686,-4.1916,-4.2624,-4.1885,-4.3143,-4.3916,-4.3441,-4.3303,-4.2946,-4.2265,-4.0781,-3.959,-3.8867,-3.7871,-3.6973,-3.625,-3.6074,-3.5996,-3.5996,-3.5223,-3.5104,-3.5707,-3.4563,-3.4443,-3.5269,-3.5135,-3.4751,-3.4212,-3.4135,-3.4329,-3.4687,-3.3873,-3.4479,-3.5937,-3.5215,-3.5351,-3.5996,-3.5996,-3.5547,-3.5019,-3.5663,-3.5809,-3.5707,-3.5707,-3.5797,-3.6058,-3.6937,-3.7256,-3.7363,-3.7656,-3.8144,-3.8476,-3.787,-3.8169,-3.8814,-3.964,-3.9884,-3.999,-4.025,-4.0761,-4.1191,-4.1191,-4.1191,-4.1191,-4.1191,-4.1308,-4.1342,-4.1236,-4.1337,-4.1368,-4.1256,-4.1214,-4.1198,-4.1228,-4.1204,-4.1191,-4.1191,-4.0663,-4.051,-4.1029,-4.1816,-4.1609,-4.0044,-4.0589,-4.0169,-3.8469,-3.8565,-3.8535,-3.831,-3.8741,-3.8916,-3.8846,-3.9116,-3.9023,-3.8613,-3.875,-3.9219,-3.9902,-4.0059,-4.0117,-4.0076,-3.996,-3.9392,-3.8617,-3.8612,-3.8537,-3.852,-3.9529,-4.0449,-4.1191,-4.1191,-4.1191,-4.1126,-4.087,-4.0809,-4.0747,-4.0554,-4.1351,-4.1923,-4.1808,-4.2643,-4.3299,-4.3383,-4.2871,-4.2225,-4.1426,-4.0469,-3.9844,-3.9726,-3.8203,-3.7246,-3.7129,-3.6406,-3.5996,-3.5996,-3.5825,-3.5721,-3.5707,-3.4044,-3.3636,-3.4359,-3.3603,-3.3625,-3.4249,-3.3563,-3.4174,-3.5641,-3.4793,-3.5029,-3.5996,-3.5879,-3.5898,-3.5996,-3.5996,-3.5937,-3.5839,-3.5878,-3.5809,-3.5707,-3.5707,-3.5797,-3.6058,-3.6937,-3.7256,-3.7598,-3.9101,-3.9101,-3.871,-3.9237,-3.9456,-3.9538,-3.962,-4.0237,-4.1037,-4.1805,-4.1575,-4.1191,-4.1191,-4.1191,-4.1191,-4.1191,-4.1727,-4.2149,-4.2124,-4.2653,-4.3078,-4.3046,-4.2416,-4.1993,-4.2115,-4.1574,-4.1191,-4.1191,-4.1666,-4.2009,-4.2091,-4.2699,-4.293,-4.2692,-4.2718,-4.195,-4.0227,-4.0893,-4.0617,-3.9237,-4.079,-4.1279,-4.0664,-4.148,-4.0723,-3.8633,-3.9375,-3.9785,-3.9941,-4.0703,-4.0953,-4.0849,-4.0824,-4.0279,-3.9438,-3.9509,-3.906,-3.852,-3.9529,-4.0449,-4.1191,-4.1191,-4.1191,-4.1149,-4.0952,-4.0854,-4.0761,-4.063,-4.1289,-4.1643,-4.1143,-4.1412,-4.1542,-4.1298,-4.0677,-4.0332,-4.0469,-3.9238,-3.8457,-3.8457,-3.7266,-3.6562,-3.6562,-3.6211,-3.5996,-3.5996,-3.5973,-3.5917,-3.5807,-3.4936,-3.4632,-3.493,-3.4526,-3.4565,-3.4948,-3.4201,-3.4584,-3.5744,-3.4982,-3.5174,-3.5996,-3.5996,-3.5996,-3.5996,-3.5996,-3.5996,-3.5996,-3.5972,-3.5924,-3.5931,-3.644,-3.6625,-3.6926,-3.8275,-3.8729,-3.8906,-3.9668,-3.9919,-3.993,-3.9835,-4.0033,-4.0287,-4.0354,-4.0983,-4.1684,-4.2193,-4.2417,-4.2549,-4.2597,-4.2207,-4.2012,-4.2519,-4.2037,-4.1878,-4.2773,-4.2756,-4.2757,-4.317,-4.2928,-4.2781,-4.3007,-4.2766,-4.2577,-4.2546,-4.325,-4.3652,-4.3534,-4.4236,-4.4414,-4.3836,-4.3789,-4.3201,-4.1989,-4.2335,-4.2183,-4.1463,-4.2364,-4.2654,-4.2341,-4.2861,-4.201,-3.9968,-4.0428,-4.0584,-4.0534,-4.0925,-4.1054,-4.0953,-4.0347,-4.0148,-4.0175,-3.971,-3.9659,-3.9927,-4.0427,-4.0879,-4.1191]},{"header":{"parameterUnit":"m.s-1","parameterCategory":1,"la1":30.6,"la2":28.766,"lo1":-90.7593,"lo2":-88.6598,"dy":0.0162,"dx":0.0183,"nx":116,"ny":114,"refTime":"2023-07-01T18:00:00:Z","depth":0,"parameterNumber":3,"parameterNumberName":"V-component_of_WINDS"},"data":[0.0,0.0,0.0,0.0,0.0,0.0,0.0,0.0,0.0,0.0,0.0,0.0,0.0,0.0,0.0,0.0,0.0,0.0,0.0,0.0,0.0,0.0,0.0,0.0,0.0,0.0,0.0,0.0,0.0,0.0,0.0,0.0,0.0,0.0,0.0,0.0,0.0,0.0,0.0,0.0,0.0,0.0,0.0,0.0,0.0,0.0,0.0,0.0,0.0,0.0,0.0,0.0,0.0,0.0,0.0,0.0,0.0,0.0,0.0,0.0,0.0,0.0,0.0,0.0,0.0,0.0,0.0,0.0,0.0,0.0,0.0,0.0,0.0,0.0,0.0,0.0,0.0,0.0,0.0,0.0,0.0,0.0,0.0,0.0,0.0,0.0,0.0,0.0,0.0,0.0,0.0,0.0,0.0,0.0,0.0,0.0,0.0,0.0,0.0,0.0,0.0,0.0,0.0,0.0,0.0,0.0,0.0,0.0,0.0,0.0,0.0,0.0,0.0,0.0,0.0,0.0,0.0,0.0,0.0,0.0,0.0,0.0,0.0,0.0,0.0,0.0,0.0,0.0,0.0,0.0,0.0,0.0,0.0,0.0,0.0,0.0,0.0,0.0,0.0,0.0,0.0,0.0,0.0,0.0,0.0,0.0,0.0,0.0,0.0,0.0,0.0,0.0,0.0,0.0,0.0,0.0,0.0,0.0,0.0,0.0,0.0,0.0,0.0,0.0,0.0,0.0,0.0,0.0,0.0,0.0,0.0,0.0,0.0,0.0,0.0,0.0,0.0,0.0,0.0,0.0,0.0,0.0,0.0,0.0,0.0,0.0,0.0,0.0,0.0,0.0,0.0,0.0,0.0,0.0,0.0,0.0,0.0,0.0,0.0,0.0,0.0,0.0,0.0,0.0,0.0,0.0,0.0,0.0,0.0,0.0,0.0,0.0,0.0,0.0,0.0,0.0,0.0,0.0,0.0,0.0,0.0,0.0,0.0,0.0,0.0,0.0,0.0,0.0,0.0,0.0,0.0,0.0,0.0,0.0,0.0,0.0,0.0,0.0,0.0,0.0,0.0,0.0,0.0,0.0,0.0,0.0,0.0,0.0,0.0,0.0,0.0,0.0,0.0,0.0,0.0,0.0,0.0,0.0,0.0,0.0,0.0,0.0,0.0,0.0,0.0,0.0,0.0,0.0,0.0,0.0,0.0,0.0,0.0,0.0,0.0,0.0,0.0,0.0,0.0,0.0,0.0,0.0,0.0,0.0,0.0,0.0,0.0,0.0,0.0,0.0,0.0,0.0,0.0,0.0,0.0,0.0,0.0,0.0,0.0,0.0,0.0,0.0,0.0,0.0,0.0,0.0,0.0,0.0,0.0,0.0,0.0,0.0,0.0,0.0,0.0,0.0,0.0,0.0,0.0,0.0,0.0,0.0,0.0,0.0,0.0,0.0,0.0,0.0,0.0,0.0,0.0,0.0,0.0,0.0,0.0,0.0,0.0,0.0,0.0,0.0,0.0,0.0,0.0,0.0,0.0,0.0,0.0,0.0,0.0,0.0,0.0,0.0,0.0,0.0,0.0,0.0,0.0,0.0,0.0,0.0,0.0,0.0,0.0,0.0,0.0,0.0,0.0,0.0,0.0,0.0,0.0,0.0,0.0,0.0,0.0,0.0,0.0,0.0,0.0,0.0,0.0,0.0,0.0,0.0,0.0,0.0,0.0,0.0,0.0,0.0,0.0,0.0,0.0,0.0,0.0,0.0,0.0,0.0,0.0,0.0,0.0,0.0,0.0,0.0,0.0,0.0,0.0,0.0,0.0,0.0,0.0,0.0,0.0,0.0,0.0,0.0,0.0,0.0,0.0,0.0,0.0,0.0,0.0,0.0,0.0,0.0,0.0,0.0,0.0,0.0,0.0,0.0,0.0,0.0,0.0,0.0,0.0,0.0,0.0,0.0,0.0,0.0,0.0,0.0,0.0,0.0,0.0,0.0,0.0,0.0,0.0,0.0,0.0,0.0,0.0,0.0,0.0,0.0,0.0,0.0,0.0,0.0,0.0,0.0,0.0,0.0,0.0,0.0,0.0,0.0,0.0,0.0,0.0,0.0,0.0,0.0,0.0,0.0,0.0,0.0,0.0,0.0,0.0,0.0,0.0,0.0,0.0,0.0,0.0,0.0,0.0,0.0,0.0,0.0,0.0,0.0,0.0,0.0,0.0,0.0,0.0,0.0,0.0,0.0,0.0,0.0,0.0,0.0,0.0,0.0,0.0,0.0,0.0,0.0,0.0,0.0,0.0,0.0,0.0,0.0,0.0,0.0,0.0,0.0,0.0,0.0,0.0,0.0,0.0,0.0,0.0,0.0,0.0,0.0,0.0,0.0,0.0,0.0,0.0,0.0,0.0,0.0,0.0,0.0,0.0,0.0,0.0,0.0,0.0,0.0,0.0,0.0,0.0,0.0,0.0,0.0,0.0,0.0,0.0,0.0,0.0,0.0,0.0,0.0,0.0,0.0,0.0,0.0,0.0,0.0,0.0,0.0,0.0,0.0,0.0,0.0,0.0,0.0,0.0,0.0,0.0,0.0,0.0,0.0,0.0,0.0,0.0,0.0,0.0,0.0,0.0,0.0,0.0,0.0,0.0,0.0,0.0,0.0,0.0,0.0,0.0,0.0,0.0,0.0,0.0,0.0,0.0,0.0,0.0,0.0,0.0,0.0,0.0,0.0,0.0,0.0,0.0,0.0,0.0,0.0,0.0,0.0,0.0,0.0,0.0,0.0,0.0,0.0,0.0,0.0,0.0,0.0,0.0,0.0,0.0,0.0,0.0,0.0,0.0,0.0,0.0,0.0,0.0,0.0,0.0,0.0,0.0,0.0,0.0,0.0,0.0,0.0,0.0,0.0,0.0,0.0,0.0,0.0,0.0,0.0,0.0,0.0,0.0,0.0,0.0,0.0,0.0,0.0,0.0,0.0,0.0,0.0,0.0,0.0,0.0,0.0,0.0,0.0,0.0,0.0,0.0,0.0,0.0,0.0,0.0,0.0,0.0,0.0,0.0,0.0,0.0,0.0,0.0,0.0,0.0,0.0,0.0,0.0,0.0,0.0,0.0,0.0,0.0,0.0,0.0,0.0,0.0,0.0,0.0,0.0,0.0,0.0,0.0,0.0,0.0,0.0,0.0,0.0,0.0,0.0,0.0,0.0,0.0,0.0,0.0,0.0,0.0,0.0,0.0,0.0,0.0,0.0,0.0,0.0,0.0,0.0,0.0,0.0,0.0,0.0,0.0,0.0,0.0,0.0,0.0,0.0,0.0,0.0,0.0,0.0,0.0,0.0,0.0,0.0,0.0,0.0,0.0,0.0,0.0,0.0,0.0,0.0,0.0,0.0,0.0,0.0,0.0,0.0,0.0,0.0,0.0,0.0,0.0,0.0,0.0,0.0,0.0,0.0,0.0,0.0,0.0,0.0,0.0,0.0,0.0,0.0,0.0,0.0,0.0,0.0,0.0,0.0,0.0,0.0,0.0,0.0,0.0,0.0,0.0,0.0,0.0,0.0,0.0,0.0,0.0,0.0,0.0,0.0,0.0,0.0,0.0,0.0,0.0,0.0,0.0,0.0,0.0,0.0,0.0,0.0,0.0,0.0,0.0,0.0,0.0,0.0,0.0,0.0,0.0,0.0,0.0,0.0,0.0,0.0,0.0,0.0,0.0,0.0,0.0,0.0,0.0,0.0,0.0,0.0,0.0,0.0,0.0,0.0,0.0,0.0,0.0,0.0,0.0,0.0,0.0,0.0,0.0,0.0,0.0,0.0,0.0,0.0,0.0,0.0,0.0,0.0,0.0,0.0,0.0,0.0,0.0,0.0,0.0,0.0,0.0,0.0,0.0,0.0,0.0,0.0,0.0,0.0,0.0,0.0,0.0,0.0,0.0,0.0,0.0,0.0,0.0,0.0,0.0,0.0,0.0,0.0,0.0,0.0,0.0,0.0,0.0,0.0,0.0,0.0,0.0,0.0,0.0,0.0,0.0,0.0,0.0,0.0,0.0,0.0,0.0,0.0,0.0,0.0,0.0,0.0,0.0,0.0,0.0,0.0,0.0,0.0,0.0,0.0,0.0,0.0,0.0,0.0,0.0,0.0,0.0,0.0,0.0,0.0,0.0,0.0,0.0,0.0,0.0,0.0,0.0,0.0,0.0,0.0,0.0,0.0,0.0,0.0,0.0,0.0,0.0,0.0,0.0,0.0,0.0,0.0,0.0,0.0,0.0,0.0,0.0,0.0,0.0,0.0,0.0,0.0,0.0,0.0,0.0,0.0,0.0,0.0,0.0,0.0,0.0,0.0,0.0,0.0,0.0,0.0,0.0,0.0,0.0,0.0,0.0,0.0,0.0,0.0,0.0,0.0,0.0,0.0,0.0,0.0,0.0,0.0,0.0,0.0,0.0,0.0,0.0,0.0,0.0,0.0,0.0,0.0,0.0,0.0,0.0,0.0,0.0,0.0,0.0,0.0,0.0,0.0,0.0,0.0,0.0,0.0,0.0,0.0,0.0,0.0,0.0,0.0,0.0,0.0,0.0,0.0,0.0,0.0,0.0,0.0,0.0,0.0,0.0,0.0,0.0,0.0,0.0,0.0,0.0,0.0,0.0,0.0,0.0,0.0,0.0,0.0,0.0,0.0,0.0,0.0,0.0,0.0,0.0,0.0,0.0,0.0,0.0,0.0,0.0,0.0,0.0,0.0,0.0,0.0,0.0,0.0,0.0,0.0,0.0,0.0,0.0,0.0,0.0,0.0,0.0,0.0,0.0,0.0,0.0,0.0,0.0,0.0,0.0,0.0,0.0,0.0,0.0,0.0,0.0,0.0,0.0,0.0,0.0,0.0,0.0,0.0,0.0,0.0,0.0,0.0,0.0,0.0,0.0,0.0,0.0,0.0,0.0,0.0,0.0,0.0,0.0,0.0,0.0,0.0,0.0,0.0,0.0,0.0,0.0,0.0,0.0,0.0,0.0,0.0,0.0,0.0,0.0,0.0,0.0,0.0,0.0,0.0,0.0,0.0,0.0,0.0,0.0,0.0,0.0,0.0,0.0,0.0,0.0,0.0,0.0,0.0,0.0,0.0,0.0,0.0,0.0,0.0,0.0,0.0,0.0,0.0,0.0,0.0,0.0,0.0,0.0,0.0,0.0,0.0,0.0,0.0,0.0,0.0,0.0,0.0,0.0,0.0,0.0,0.0,0.0,0.0,0.0,0.0,0.0,0.0,0.0,0.0,0.0,0.0,0.0,0.0,0.0,0.0,0.0,0.0,0.0,0.0,0.0,0.0,0.0,0.0,0.0,0.0,0.0,0.0,0.0,0.0,0.0,0.0,0.0,0.0,0.0,0.0,0.0,0.0,0.0,0.0,0.0,0.0,0.0,0.0,0.0,0.0,0.0,0.0,0.0,0.0,0.0,0.0,0.0,0.0,0.0,0.0,0.0,0.0,0.0,0.0,0.0,0.0,0.0,0.0,0.0,0.0,0.0,0.0,0.0,0.0,0.0,0.0,0.0,0.0,0.0,0.0,0.0,0.0,0.0,0.0,0.0,0.0,0.0,0.0,0.0,0.0,0.0,0.0,0.0,0.0,0.0,0.0,0.0,0.0,0.0,0.0,0.0,0.0,0.0,0.0,0.0,0.0,0.0,0.0,0.0,0.0,0.0,0.0,0.0,0.0,0.0,0.0,0.0,0.0,0.0,0.0,0.0,0.0,0.0,0.0,0.0,0.0,0.0,0.0,0.0,0.0,0.0,0.0,0.0,0.0,0.0,0.0,0.0,0.0,0.0,0.0,0.0,0.0,0.0,0.0,0.0,0.0,0.0,0.0,0.0,0.0,0.0,0.0,0.0,0.0,0.0,0.0,0.0,0.0,0.0,0.0,0.0,0.0,0.0,0.0,0.0,0.0,0.0,0.0,0.0,0.0,0.0,0.0,0.0,0.0,0.0,0.0,0.0,0.0,0.0,0.0,0.0,0.0,0.0,0.0,0.0,0.0,0.0,0.0,0.0,0.0,0.0,0.0,0.0,0.0,0.0,0.0,0.0,0.0,0.0,0.0,0.0,0.0,0.0,0.0,-0.8545,-0.7071,0.0,0.0,0.0,0.0,0.0,0.0,0.0,0.0,0.0,0.0,0.0,0.0,0.0,0.0,0.0,0.0,0.0,0.0,0.0,0.0,0.0,0.0,0.0,0.0,0.0,0.0,0.0,0.0,0.0,0.0,0.0,0.0,0.0,0.0,0.0,0.0,0.0,0.0,0.0,0.0,0.0,0.0,0.0,0.0,0.0,0.0,0.0,0.0,0.0,0.0,0.0,0.0,0.0,0.0,0.0,0.0,0.0,0.0,0.0,0.0,0.0,0.0,0.0,0.0,0.0,0.0,0.0,0.0,0.0,0.0,0.0,0.0,0.0,0.0,0.0,0.0,0.0,0.0,0.0,0.0,0.0,0.0,0.0,0.0,0.0,0.0,0.0,0.0,0.0,0.0,0.0,0.0,0.0,0.0,0.0,0.0,0.0,0.0,0.0,0.0,0.0,0.0,0.0,0.0,0.0,0.0,0.0,0.0,0.0,0.0,0.0,0.0,0.0,0.0,-0.9782,-0.8756,0.0,0.0,0.0,0.0,0.0,0.0,0.0,0.0,0.0,0.0,0.0,0.0,0.0,0.0,0.0,0.0,0.0,0.0,0.0,0.0,0.0,0.0,0.0,0.0,0.0,0.0,0.0,0.0,0.0,0.0,0.0,0.0,0.0,0.0,0.0,0.0,0.0,0.0,0.0,0.0,0.0,0.0,0.0,0.0,0.0,0.0,0.0,0.0,0.0,0.0,0.0,0.0,0.0,0.0,0.0,0.0,0.0,0.0,0.0,0.0,0.0,0.0,0.0,0.0,0.0,0.0,0.0,0.0,0.0,0.0,0.0,0.0,0.0,0.0,0.0,0.0,0.0,0.0,0.0,0.0,0.0,0.0,0.0,0.0,0.0,0.0,0.0,0.0,0.0,0.0,0.0,0.0,0.0,0.0,0.0,0.0,0.0,0.0,0.0,0.0,0.0,0.0,0.0,0.0,0.0,0.0,0.0,0.0,-1.1234,-1.1285,-1.1234,-1.1812,-1.2284,-1.2516,-1.0915,-1.063,-1.1164,-0.9272,0.0,0.0,0.0,0.0,0.0,0.0,0.0,0.0,0.0,0.0,0.0,0.0,0.0,0.0,0.0,0.0,0.0,0.0,0.0,0.0,0.0,-0.4249,-0.4726,-0.4462,-0.4849,-0.508,0.0,0.0,0.0,0.0,0.0,0.0,0.0,0.0,0.0,0.0,0.0,0.0,-0.9582,-0.97,-0.9665,-0.9459,-0.7998,0.0,0.0,0.0,0.0,0.0,0.0,0.0,0.0,0.0,0.0,0.0,0.0,0.0,0.0,0.0,0.0,0.0,0.0,0.0,0.0,0.0,0.0,0.0,0.0,0.0,0.0,0.0,0.0,0.0,0.0,0.0,0.0,0.0,0.0,0.0,0.0,0.0,0.0,0.0,0.0,0.0,0.0,0.0,-0.75,-0.8424,0.0,0.0,0.0,0.0,0.0,0.0,0.0,0.0,0.0,0.0,0.0,0.0,0.0,-1.0636,-1.1003,-1.1912,-1.2487,-1.2779,-1.269,-1.3004,-1.3611,-1.3032,-1.3168,-1.3847,-1.3595,0.0,-1.1749,-1.1051,0.0,0.0,0.0,0.0,0.0,0.0,0.0,0.0,0.0,0.0,0.0,0.0,0.0,0.0,0.0,0.0,0.0,0.0,0.0,0.0,0.0,-0.4685,-0.5122,-0.5139,-0.565,-0.5777,-0.5305,0.0,0.0,0.0,0.0,0.0,0.0,0.0,0.0,0.0,-0.8803,-0.9808,-1.0473,-1.0719,-1.1007,-1.1236,-1.0339,-0.8944,-0.7193,-0.6296,0.0,0.0,0.0,0.0,0.0,0.0,0.0,0.0,0.0,0.0,0.0,0.0,0.0,0.0,0.0,0.0,0.0,0.0,0.0,0.0,0.0,0.0,0.0,0.0,0.0,0.0,0.0,0.0,0.0,0.0,0.0,0.0,0.0,0.0,0.0,0.0,0.0,0.0,0.0,-0.6973,-0.7581,-0.7341,-0.6726,-0.6219,0.0,0.0,0.0,0.0,0.0,0.0,0.0,0.0,0.0,-1.1048,-1.146,-1.1797,-1.214,-1.3292,-1.3699,-1.3402,-1.4026,-1.4382,-1.4484,-1.4649,-1.4764,-1.4835,-1.5107,-1.4858,-1.4136,-1.2492,-1.134,-1.0491,0.0,0.0,0.0,0.0,-0.9691,-1.0376,0.0,0.0,0.0,0.0,0.0,0.0,0.0,0.0,0.0,0.0,0.0,0.0,-0.4381,-0.5033,-0.5465,-0.5644,-0.6175,-0.6215,-0.5575,-0.5683,0.0,0.0,0.0,0.0,0.0,0.0,0.0,-0.8848,-0.9758,-1.0465,-1.0984,-1.1261,-1.1569,-1.1836,-1.1621,-1.0166,-0.783,-0.7337,-0.6109,0.0,0.0,0.0,0.0,0.0,0.0,0.0,0.0,0.0,0.0,0.0,0.0,0.0,0.0,0.0,0.0,0.0,0.0,0.0,0.0,0.0,0.0,0.0,0.0,0.0,0.0,0.0,0.0,0.0,0.0,0.0,0.0,0.0,0.0,0.0,0.0,0.0,0.0,-0.7656,-0.8112,-0.7145,-0.7398,-0.7216,0.0,0.0,0.0,0.0,0.0,0.0,-1.0056,-1.0376,-1.1096,-1.2282,-1.259,-1.286,-1.3074,-1.4077,-1.4355,-1.3934,-1.469,-1.5153,-1.5303,-1.5747,-1.5863,-1.5742,-1.6094,-1.6261,-1.6073,-1.3858,-1.2752,-1.2295,-1.0885,-1.0386,-1.0507,-1.0838,-1.143,-1.2253,0.0,0.0,0.0,0.0,0.0,0.0,0.0,0.0,0.0,0.0,0.0,-0.3434,-0.4058,-0.5062,-0.5634,-0.5512,-0.5956,-0.6127,-0.5893,-0.5413,-0.5103,-0.5016,0.0,0.0,0.0,0.0,0.0,-0.9273,-0.9709,-1.0352,-1.1183,-1.096,-1.0847,-1.0881,-1.1187,-1.1405,-1.1383,-0.9227,-0.7947,-0.7165,0.0,0.0,0.0,0.0,0.0,0.0,0.0,0.0,0.0,0.0,0.0,0.0,0.0,0.0,0.0,0.0,0.0,0.0,0.0,0.0,0.0,0.0,0.0,0.0,0.0,0.0,0.0,0.0,0.0,0.0,0.0,0.0,0.0,0.0,0.0,0.0,0.0,0.0,0.0,-0.9826,-1.0213,0.0,0.0,0.0,0.0,-0.9723,-0.9955,-1.0705,-1.2172,-1.232,-1.2859,-1.3946,-1.3947,-1.3805,-1.3571,-1.3825,-1.4253,-1.4816,-1.4375,-1.5,-1.6568,-1.5871,-1.5944,-1.6638,-1.6658,-1.6668,-1.656,-1.5235,-1.3915,-1.2699,-1.2064,-1.1574,-1.135,-1.2183,-1.3063,-1.4007,0.0,0.0,0.0,0.0,0.0,0.0,0.0,0.0,0.0,-0.2663,-0.3273,-0.3947,-0.4725,-0.5541,-0.6041,-0.6084,-0.6538,-0.6548,-0.5881,-0.5943,-0.5829,0.0,0.0,0.0,0.0,0.0,-0.8585,-1.0129,-1.0108,-1.0381,-1.0945,-1.0831,-1.1061,-1.1506,-1.1354,-1.1358,-1.1364,-0.9908,-0.8234,-0.6501,-0.5651,-0.4651,0.0,0.0,0.0,0.0,0.0,0.0,0.0,0.0,0.0,0.0,0.0,0.0,0.0,0.0,0.0,0.0,0.0,0.0,0.0,0.0,0.0,0.0,0.0,0.0,0.0,0.0,0.0,0.0,0.0,0.0,0.0,0.0,0.0,0.0,0.0,0.0,0.0,-0.9919,-1.0906,0.0,-0.9743,-1.0691,-1.14,-1.1385,-1.2136,-1.2847,-1.3393,-1.3138,-1.3118,-1.3502,-1.3783,-1.3636,-1.3044,-1.3858,-1.4169,-1.3879,-1.4202,-1.5,-1.6178,-1.5896,-1.6276,-1.7168,-1.7432,-1.7525,-1.7467,-1.6768,-1.5504,-1.3969,-1.3449,-1.2776,-1.227,-1.3501,-1.4173,-1.4666,0.0,0.0,0.0,0.0,0.0,0.0,0.0,0.0,0.0,-0.2759,-0.3354,-0.4113,-0.5092,-0.5702,-0.6124,-0.631,-0.6555,-0.6444,-0.5832,-0.5962,-0.5973,0.0,-0.6167,0.0,0.0,-0.7997,-0.8743,-1.0225,-0.9993,-1.0081,-1.0466,-1.0327,-1.0524,-1.0976,-1.0928,-1.0844,-1.0733,-1.0156,-0.8752,-0.6914,-0.6464,-0.5762,-0.4907,0.0,0.0,0.0,0.0,0.0,0.0,0.0,0.0,0.0,0.0,0.0,0.0,0.0,0.0,0.0,0.0,0.0,0.0,0.0,0.0,0.0,0.0,0.0,0.0,0.0,0.0,0.0,0.0,0.0,0.0,0.0,0.0,0.0,0.0,-1.0021,-1.1081,-1.0101,-1.1649,-1.2227,-1.0742,-1.191,-1.2819,-1.3025,-1.3467,-1.3795,-1.3955,-1.3627,-1.3437,-1.3437,-1.3553,-1.3318,-1.2721,-1.34,-1.3602,-1.3294,-1.3917,-1.4895,-1.6136,-1.628,-1.68,-1.7617,-1.8037,-1.8144,-1.7988,-1.7705,-1.6703,-1.5285,-1.4715,-1.4188,-1.3832,-1.4812,-1.5373,-1.5802,0.0,0.0,0.0,0.0,0.0,0.0,0.0,-0.1787,-0.2269,-0.3,-0.3283,-0.3873,-0.505,-0.5471,-0.5814,-0.6151,-0.5861,-0.5703,-0.5781,-0.5424,-0.5429,0.0,0.0,0.0,-0.6959,-0.7588,-0.8446,-0.9498,-0.9283,-0.9389,-0.9758,-0.9391,-0.9224,-0.9264,-0.983,-0.9967,-0.9755,-1.0,-0.9626,-0.8685,-0.7038,-0.6585,-0.6716,0.0,0.0,0.0,0.0,0.0,0.0,0.0,0.0,0.0,0.0,0.0,0.0,0.0,0.0,0.0,0.0,0.0,0.0,0.0,0.0,0.0,0.0,0.0,0.0,0.0,0.0,0.0,0.0,0.0,0.0,0.0,0.0,0.0,-0.9001,-1.0335,-1.1166,-1.0655,-1.2614,-1.364,-1.2705,-1.266,-1.3215,-1.4564,-1.3754,-1.3429,-1.3891,-1.3874,-1.3882,-1.3891,-1.3382,-1.2989,-1.2713,-1.2476,-1.2651,-1.3297,-1.3546,-1.4689,-1.6594,-1.6973,-1.7497,-1.8076,-1.8442,-1.8393,-1.8047,-1.8037,-1.7495,-1.6591,-1.5836,-1.5689,-1.588,-1.6057,-1.6684,-1.7461,0.0,0.0,0.0,0.0,0.0,0.0,0.0,-0.1898,-0.2487,-0.2837,-0.3516,-0.4186,-0.4699,-0.5061,-0.534,-0.5535,-0.5153,-0.5035,-0.5345,-0.5438,-0.5837,0.0,0.0,0.0,-0.8336,-0.8338,-0.8794,-0.972,-0.9172,-0.9062,-0.9357,-0.9254,-0.9437,-0.985,-1.0047,-1.0194,-1.0345,-1.0174,-0.995,-0.965,-0.8547,-0.774,-0.7097,0.0,0.0,0.0,0.0,0.0,0.0,0.0,0.0,0.0,0.0,0.0,0.0,0.0,0.0,0.0,0.0,0.0,0.0,0.0,0.0,0.0,0.0,0.0,0.0,0.0,0.0,0.0,0.0,0.0,0.0,0.0,-0.8389,-0.9207,-0.9587,-1.1399,-1.262,-1.2461,-1.3339,-1.3761,-1.3293,-1.3689,-1.4064,-1.4328,-1.3858,-1.3724,-1.4103,-1.347,-1.3179,-1.3381,-1.3251,-1.3144,-1.3061,-1.2995,-1.2959,-1.2954,-1.3227,-1.4298,-1.6022,-1.6331,-1.7385,-1.8945,-1.9062,-1.9043,-1.8916,-1.8594,-1.8466,-1.84,-1.6904,-1.5928,-1.5461,-1.6189,-1.7048,-1.7852,0.0,0.0,0.0,0.0,0.0,0.0,0.0,-0.1913,-0.2466,-0.2831,-0.3309,-0.3797,-0.4293,-0.4526,-0.4669,-0.4751,-0.4559,-0.4575,-0.4935,-0.5574,0.0,0.0,0.0,-0.7573,-0.8452,-0.8463,-0.8771,-0.9387,-0.8982,-0.8865,-0.9038,-0.9284,-0.9606,-0.9947,-1.0194,-1.0432,-1.0579,-1.0374,-1.0234,-1.0074,-0.9559,-0.8852,-0.8018,-0.7381,-0.7023,-0.68,-0.6403,-0.6158,-0.5984,-0.5637,0.0,0.0,0.0,0.0,0.0,0.0,0.0,0.0,0.0,0.0,0.0,0.0,0.0,0.0,0.0,0.0,0.0,0.0,0.0,0.0,0.0,0.0,0.0,0.0,-0.9543,-1.0343,-1.0826,-1.2168,-1.314,-1.332,-1.373,-1.4009,-1.3963,-1.385,-1.3945,-1.4327,-1.3731,-1.347,-1.376,-1.3242,-1.3026,-1.3206,-1.3213,-1.3213,-1.3213,-1.3213,-1.312,-1.2985,-1.3126,-1.4171,-1.5968,-1.6324,-1.7261,-1.8655,-1.8825,-1.8527,-1.7925,-1.8153,-1.8392,-1.8543,0.0,0.0,0.0,0.0,-1.7907,-1.8496,0.0,0.0,0.0,0.0,0.0,0.0,0.0,-0.1865,-0.23,-0.2859,-0.2869,-0.3104,-0.3805,-0.3903,-0.388,-0.3821,-0.3956,-0.4201,-0.4614,-0.5651,0.0,-0.613,-0.7007,-0.7641,-0.7952,-0.827,-0.855,-0.8804,-0.8804,-0.8824,-0.8871,-0.9426,-0.9699,-0.9753,-1.0345,-1.0613,-1.064,-1.0606,-1.0459,-1.0214,-1.018,-0.9784,-0.9169,-0.8346,-0.8127,-0.8157,-0.7416,-0.7126,-0.702,-0.6667,0.0,0.0,0.0,0.0,0.0,0.0,0.0,0.0,0.0,0.0,0.0,0.0,0.0,0.0,0.0,0.0,0.0,0.0,0.0,0.0,0.0,0.0,0.0,0.0,-1.1081,-1.2067,-1.2358,-1.27,-1.3075,-1.3433,-1.3828,-1.4197,-1.4443,-1.3502,-1.3299,-1.4411,-1.3456,-1.2971,-1.324,-1.326,0.0,0.0,0.0,-1.3327,-1.336,-1.3327,-1.3293,-1.326,-1.3293,-1.4359,-1.6294,-1.6743,-1.7334,-1.805,-1.8281,-1.7595,-1.6382,-1.7247,-1.7651,-1.7849,-1.8438,-1.8945,-1.9238,-1.8763,-1.8916,-1.917,0.0,0.0,0.0,0.0,0.0,0.0,0.0,-0.1744,-0.2198,-0.2485,-0.2828,-0.3076,-0.3185,-0.3293,-0.3181,-0.2745,-0.2881,-0.3509,-0.4764,0.0,-0.5872,-0.6848,-0.7279,-0.7759,-0.8301,-0.8577,-0.8751,-0.8804,-0.8804,-0.8898,-0.9138,-0.9519,-0.9813,-1.0047,-1.0432,-1.072,-1.0895,-1.0693,-1.0693,-1.0802,-1.06,-1.0151,-0.9566,-0.9126,-0.8843,-0.8639,-0.8273,-0.813,-0.8053,-0.7592,-0.7466,-0.7357,-0.675,0.0,0.0,0.0,0.0,0.0,0.0,0.0,0.0,0.0,0.0,0.0,0.0,0.0,0.0,0.0,0.0,0.0,0.0,0.0,0.0,-1.0878,-1.1738,-1.2405,-1.2959,-1.3088,-1.3176,-1.3253,-1.3354,-1.351,-1.3763,-1.3373,-1.3319,-1.377,-1.336,-1.3253,-1.35,-1.352,-1.3733,-1.4249,-1.4041,-1.4028,-1.4269,-1.4035,-1.3794,-1.3527,-1.3808,0.0,-1.6799,-1.7093,-1.8232,-2.0005,-1.9206,-1.8716,-1.8342,-1.7307,-1.7381,-1.8247,-1.8914,-1.9209,-1.9238,-1.8763,-1.8916,-1.9209,0.0,0.0,0.0,0.0,0.0,0.0,0.0,-0.153,-0.2005,-0.2312,-0.2503,-0.2655,-0.2785,-0.2717,-0.2566,-0.237,-0.2816,-0.3522,0.0,-0.5155,-0.5845,-0.661,-0.7315,-0.7909,-0.8389,-0.8657,-0.8804,-0.8804,-0.8804,-0.8858,-0.9004,-0.9472,-0.976,-0.992,-1.0392,-1.0754,-1.0975,-1.0713,-1.076,-1.0955,-1.0514,-1.016,-0.9866,-0.9573,-0.9251,-0.8958,-0.8697,-0.8591,-0.8565,-0.8326,-0.8286,-0.829,-0.7916,-0.6801,-0.5763,0.0,0.0,0.0,0.0,0.0,0.0,0.0,0.0,0.0,0.0,0.0,0.0,0.0,0.0,-0.861,0.0,0.0,-1.1019,-1.2138,-1.2671,-1.3126,-1.3587,-1.3647,-1.3594,-1.3407,-1.3387,-1.35,-1.3834,-1.3601,-1.3547,-1.3841,-1.3553,-1.3513,-1.3848,-1.3868,-1.4068,-1.4502,-1.4382,-1.4449,-1.4736,-1.464,-1.4449,-1.4309,-1.4456,-1.5532,-1.7342,-1.7705,-1.8689,-2.0026,-1.8963,-1.8181,-1.7565,-1.6596,-1.6814,-1.7847,-1.8163,-1.8984,-1.9891,-1.9199,-1.9365,-1.9805,0.0,0.0,0.0,0.0,0.0,0.0,0.0,0.0,-0.1741,-0.2115,-0.2082,-0.2133,-0.2408,-0.2264,-0.2232,-0.2439,-0.2999,0.0,0.0,-0.5168,-0.587,-0.6251,-0.7159,-0.7811,-0.8188,-0.8281,-0.8423,-0.8593,-0.8593,-0.8672,-0.8818,-0.9352,-0.9539,-0.946,-1.0012,-1.0335,-1.0501,-1.0386,-1.0464,-1.0627,-1.0234,-0.999,-0.9783,-0.9502,-0.9332,-0.9143,-0.8771,-0.8659,-0.8705,-0.8653,-0.8699,-0.8791,-0.8711,-0.7585,-0.6411,-0.6861,-0.5606,0.0,0.0,0.0,0.0,0.0,0.0,0.0,0.0,0.0,-0.6544,-0.7083,-0.8398,-0.9758,-1.0748,-1.1541,-1.2356,-1.3214,-1.3633,-1.3919,-1.4142,-1.4168,-1.4062,-1.3726,-1.3686,-1.378,-1.4062,-1.3868,-1.3828,-1.4068,-1.3868,-1.3854,-1.4155,-1.4168,-1.4329,-1.4683,-1.4636,-1.475,-1.5089,-1.5035,-1.5008,-1.5008,-1.5008,-1.5914,-1.7572,-1.7897,-1.8506,-1.928,-1.8188,-1.7051,-1.5911,-1.5612,-1.6087,-1.6968,-1.6968,-1.8221,-1.9906,-1.9314,-1.9742,-2.0439,0.0,0.0,0.0,0.0,0.0,0.0,0.0,0.0,0.0,-0.1637,-0.1716,-0.1777,-0.1877,-0.2123,-0.2478,-0.2961,0.0,0.0,-0.4313,-0.4985,-0.5708,-0.6526,-0.6671,-0.6954,-0.7406,-0.6925,-0.7041,-0.783,-0.783,-0.8156,-0.8818,-0.9111,-0.8988,-0.8551,-0.8866,-0.8888,-0.8712,-0.9244,-0.9452,-0.9516,-0.994,-0.9565,-0.8745,-0.848,-0.8701,-0.9088,-0.8296,-0.8183,-0.8406,-0.8095,-0.8368,-0.8745,-0.8386,-0.7554,-0.6677,-0.6387,0.0,-0.3749,-0.41,-0.377,-0.3451,-0.4045,-0.4324,-0.465,0.0,0.0,-0.7285,-0.836,-0.9581,-1.0789,-1.1898,-1.2796,-1.3519,-1.3935,-1.4456,-1.4736,-1.4502,-1.4476,-1.4362,-1.4075,-1.4041,-1.4048,-1.4082,-1.4055,-1.4048,-1.4082,-1.4055,-1.4162,-1.4456,-1.4476,-1.4723,-1.5277,-1.505,-1.5102,-1.5344,-1.5142,-1.5008,-1.5008,-1.5008,-1.5592,-1.6754,-1.6792,-1.7352,-1.8314,-1.7234,-1.5951,-1.4683,-1.4649,-1.5142,-1.5861,-1.5861,-1.6593,-1.7728,-1.8219,-1.9323,-2.0527,0.0,0.0,0.0,0.0,0.0,0.0,0.0,0.0,0.0,0.0,-0.1524,-0.1683,-0.1784,-0.1989,-0.2325,-0.2827,0.0,0.0,-0.3994,-0.4427,-0.4945,-0.5578,-0.5843,-0.609,-0.6371,-0.6398,-0.6581,-0.6942,-0.7031,-0.7208,-0.7515,-0.7843,-0.7847,-0.7666,-0.7936,-0.8146,-0.8298,-0.8263,-0.8419,-0.866,-0.8441,-0.8103,-0.7675,-0.7296,-0.7271,-0.7421,-0.7217,-0.7233,0.0,0.0,-0.7652,-0.7827,-0.788,-0.7043,-0.6034,-0.6071,-0.4949,0.0,-0.4116,-0.4039,-0.4012,0.0,-0.5019,-0.5469,-0.5825,-0.6878,-0.7879,-0.8458,-0.958,-1.0633,-1.1216,-1.2141,-1.2952,0.0,-1.3913,-1.4409,-1.4289,-1.4269,-1.4155,-1.3868,-1.3828,-1.3901,-1.4068,-1.4088,-1.4088,-1.4088,-1.4088,-1.4215,-1.4502,-1.4522,-1.479,-1.5378,-1.5277,-1.5351,-1.5645,-1.5524,-1.5471,-1.5471,-1.5471,-1.5954,-1.6832,-1.7131,-1.7379,-1.7575,-1.713,-1.6021,-1.4522,-1.4522,-1.4593,-1.4776,-1.4776,-1.5421,-1.6431,-1.7111,-1.8323,-1.9582,0.0,0.0,0.0,0.0,0.0,0.0,0.0,0.0,0.0,0.0,0.0,-0.1514,-0.1779,-0.1897,-0.2161,0.0,0.0,0.0,0.0,-0.3878,-0.4227,-0.4626,-0.4887,-0.5114,-0.5289,-0.55,-0.5772,-0.6098,-0.6202,-0.6367,-0.662,-0.6837,-0.6887,-0.6753,-0.6934,-0.7113,-0.7275,-0.7194,-0.7294,-0.7514,-0.7226,-0.6893,-0.65,-0.6179,-0.5799,-0.5542,-0.6005,-0.6283,0.0,0.0,-0.6785,-0.6865,-0.6987,-0.623,-0.5372,-0.5489,-0.4753,-0.3958,-0.4142,-0.4327,0.0,-0.5046,-0.5665,-0.6175,-0.6284,-0.711,-0.8034,-0.851,-0.9602,-1.0472,-1.0518,-1.1858,-1.285,-1.2742,-1.361,-1.4329,-1.4329,-1.4188,-1.3975,-1.364,-1.3533,-1.3607,-1.3821,-1.3921,-1.3968,-1.3968,-1.4115,-1.4335,-1.4629,-1.4716,-1.4997,-1.5498,-1.5518,-1.5618,-1.5778,-1.5784,-1.5784,-1.5784,-1.5784,-1.6128,-1.6677,-1.7015,-1.704,-1.68,-1.68,-1.6014,-1.4763,-1.4763,-1.4543,-1.4215,-1.4295,-1.4774,-1.544,-1.593,-1.7346,-1.8951,0.0,0.0,0.0,0.0,0.0,0.0,0.0,0.0,0.0,0.0,0.0,0.0,0.0,0.0,-0.2058,0.0,0.0,0.0,0.0,-0.3432,-0.3739,-0.4022,-0.3911,-0.3968,-0.4238,-0.3886,-0.4228,-0.5328,-0.5336,-0.5773,-0.6588,-0.662,-0.635,-0.5829,-0.5834,-0.5541,-0.505,-0.5902,-0.6096,-0.5941,-0.6782,-0.6313,-0.5166,-0.5153,-0.4533,-0.3802,-0.48,0.0,-0.5947,-0.5507,-0.5737,-0.6115,-0.5474,-0.5101,0.0,-0.4454,-0.4264,-0.4183,-0.4184,0.0,-0.4851,-0.5596,-0.6115,-0.6573,-0.697,-0.7119,-0.7517,-0.8833,-0.9879,-1.0545,-1.0417,-1.2595,-1.4104,-1.3129,-1.4116,-1.4981,-1.4981,-1.4486,-1.3975,-1.364,-1.3353,-1.3227,-1.324,-1.3453,-1.362,-1.362,-1.4139,-1.4636,-1.4981,-1.5217,-1.5504,-1.5758,-1.5764,-1.5771,-1.5784,-1.5784,-1.5784,-1.5784,-1.5784,-1.5825,-1.5859,-1.5872,-1.5872,-1.5859,-1.5859,-1.5645,-1.5371,-1.5371,-1.503,-1.4536,-1.4867,-1.48,-1.4546,-1.4583,-1.6434,-1.8997,0.0,0.0,0.0,0.0,0.0,0.0,0.0,0.0,0.0,0.0,0.0,0.0,0.0,0.0,0.0,0.0,0.0,0.0,0.0,-0.3015,-0.3016,-0.3517,-0.3154,-0.3025,-0.3204,-0.315,-0.3373,-0.3839,-0.4066,-0.4375,-0.4755,-0.4825,-0.4783,-0.4606,-0.4606,-0.4542,-0.4439,-0.4654,-0.4747,-0.475,-0.4863,-0.4636,-0.4221,-0.4034,-0.3825,-0.3641,0.0,0.0,-0.4702,-0.4859,-0.4886,-0.4857,-0.4717,-0.4379,-0.3988,-0.3828,-0.3925,-0.4227,-0.4637,0.0,-0.5843,-0.64,-0.6805,-0.716,-0.7506,-0.7512,-0.755,-0.8012,-0.8213,-0.8426,-0.8742,-0.9751,-1.0826,-1.1784,-1.2596,-1.337,-1.4269,-1.4208,-1.3901,-1.3414,-1.34,-1.3227,-1.2665,-1.306,-1.34,-1.3586,-1.4008,-1.4449,-1.4981,-1.5237,-1.5531,-1.5771,-1.5784,-1.5784,-1.5784,-1.5784,-1.5784,-1.5784,-1.5784,-1.5784,-1.5784,-1.5784,-1.5784,-1.5784,-1.5784,-1.5665,-1.5398,-1.5398,-1.517,-1.4823,-1.4968,-1.5417,-1.6046,-1.6046,-1.7632,-1.961,0.0,0.0,0.0,0.0,0.0,0.0,0.0,0.0,0.0,0.0,0.0,0.0,0.0,0.0,0.0,0.0,0.0,0.0,0.0,0.0,-0.2449,-0.2824,-0.2621,-0.2533,-0.2586,-0.2766,-0.2968,-0.3174,-0.3367,-0.3527,-0.3668,-0.3681,-0.3631,-0.3543,-0.3708,-0.3761,-0.3748,-0.3748,-0.3752,-0.3708,-0.3502,-0.3316,-0.3132,-0.2997,-0.3041,0.0,0.0,0.0,-0.3722,-0.4268,-0.4273,-0.4072,-0.4103,-0.3862,-0.3582,-0.3713,-0.4069,-0.4557,-0.5185,-0.5885,-0.657,-0.7031,-0.735,-0.758,-0.7767,-0.7658,-0.7472,-0.7312,-0.7433,-0.7496,-0.7358,-0.836,-0.9547,-1.0399,-1.1267,-1.2277,-1.3515,-1.3537,-1.3454,-1.35,-1.3553,-1.342,-1.2986,-1.3293,-1.3514,-1.3453,-1.4148,-1.4676,-1.4995,-1.5337,-1.5638,-1.5771,-1.5784,-1.5784,-1.5784,-1.5784,-1.5784,-1.5784,-1.5784,-1.5784,-1.5784,-1.5784,-1.5784,-1.5784,-1.5784,-1.5678,-1.5551,-1.5551,-1.5378,-1.513,-1.5237,-1.569,-1.629,-1.629,-1.7722,-1.9573,0.0,0.0,0.0,0.0,0.0,0.0,0.0,0.0,0.0,0.0,0.0,0.0,0.0,0.0,0.0,0.0,0.0,0.0,0.0,0.0,0.0,-0.2036,-0.2316,-0.2441,-0.2383,-0.2639,-0.2923,-0.3237,-0.319,-0.3222,-0.3356,-0.3151,-0.291,-0.2685,-0.3113,-0.3132,-0.2861,-0.3118,-0.3071,-0.2811,-0.2698,-0.2357,-0.1975,-0.2029,0.0,0.0,0.0,0.0,0.0,-0.3734,-0.3887,-0.3767,-0.369,-0.3599,-0.3649,-0.4126,-0.4638,-0.5196,-0.5876,-0.6485,-0.7075,-0.7503,-0.7719,-0.7811,-0.7801,-0.756,-0.7214,-0.678,-0.7431,-0.7687,0.0,0.0,-1.0073,-0.9223,-1.0363,-1.1719,-1.2795,-1.2634,-1.2828,0.0,0.0,0.0,0.0,0.0,-1.3915,-1.332,-1.4583,-1.5257,-1.5042,-1.5524,-1.5784,-1.5784,-1.5784,-1.5784,-1.5784,-1.5784,-1.5784,-1.5784,-1.5784,-1.5784,-1.5784,-1.5784,-1.5784,-1.5784,-1.5784,-1.5784,-1.5784,-1.5784,-1.5665,-1.5444,-1.5718,-1.5658,-1.551,-1.551,-1.6934,-1.8922,0.0,0.0,0.0,0.0,0.0,0.0,0.0,0.0,0.0,0.0,0.0,0.0,0.0,0.0,0.0,0.0,0.0,0.0,0.0,0.0,0.0,0.0,0.0,0.0,0.0,0.0,0.0,-0.2473,-0.2553,-0.2647,-0.2729,-0.2473,-0.2289,-0.2184,-0.2097,-0.201,-0.193,-0.2115,-0.2094,-0.1913,0.0,-0.161,-0.1408,0.0,0.0,0.0,0.0,0.0,0.0,0.0,0.0,0.0,0.0,-0.4276,-0.4287,-0.498,-0.5503,-0.604,-0.6634,-0.7174,-0.7641,-0.783,-0.7868,-0.7784,-0.7678,-0.7248,-0.6807,-0.6576,-0.6484,-0.6481,0.0,0.0,0.0,-1.0101,-1.0384,0.0,-1.3461,-1.3693,0.0,-1.4068,0.0,-1.4242,-1.4102,-1.4683,-1.4816,-1.4229,-1.4736,-1.5182,-1.5277,-1.5631,-1.5784,-1.5784,-1.5784,-1.5784,-1.5784,-1.5784,-1.5784,-1.5784,-1.5784,-1.5784,-1.5784,-1.5784,-1.5784,-1.5784,-1.5784,-1.5784,-1.5784,-1.5784,-1.5738,-1.5678,-1.5751,-1.6337,-1.7101,-1.7101,-1.8049,-1.929,0.0,0.0,0.0,0.0,0.0,0.0,0.0,0.0,0.0,0.0,0.0,0.0,0.0,0.0,0.0,0.0,0.0,0.0,0.0,0.0,0.0,0.0,0.0,0.0,0.0,0.0,0.0,0.0,0.0,0.0,-0.2091,-0.1746,-0.148,-0.1294,-0.1197,-0.1121,-0.1043,-0.1276,0.0,0.0,0.0,0.0,0.0,0.0,0.0,0.0,0.0,0.0,0.0,0.0,0.0,-0.403,-0.4574,-0.4795,-0.5008,-0.5683,0.0,-0.6711,-0.7197,-0.7587,-0.7884,-0.7968,-0.7879,-0.7614,-0.7263,-0.6718,-0.6165,-0.5754,-0.5489,0.0,-0.5857,-0.5919,0.0,0.0,0.0,0.0,-1.2845,-1.335,-1.3727,0.0,-1.4616,0.0,-1.4843,-1.5297,-1.5451,-1.5117,-1.5251,-1.5357,-1.5391,-1.5671,-1.5784,-1.5784,-1.5784,-1.5784,-1.5784,-1.5784,-1.5784,-1.5784,-1.5784,-1.5784,-1.5784,-1.5784,-1.5784,-1.5784,-1.5784,-1.5784,-1.5784,-1.5784,-1.5784,-1.5784,-1.5784,-1.6251,-1.685,-1.685,-1.763,-1.861,0.0,0.0,0.0,0.0,0.0,0.0,0.0,0.0,0.0,0.0,0.0,0.0,0.0,0.0,0.0,0.0,0.0,0.0,0.0,0.0,0.0,0.0,0.0,0.0,0.0,0.0,0.0,0.0,0.0,0.0,0.0,0.0,0.0,0.0,0.0,0.0,0.0,0.0,0.0,0.0,0.0,0.0,0.0,0.0,0.0,0.0,0.0,0.0,0.0,0.0,-0.394,-0.4537,-0.4924,-0.5325,-0.5784,-0.636,-0.6853,-0.725,-0.7564,-0.7845,-0.7988,-0.7988,-0.7787,-0.7366,-0.6666,-0.61,-0.5458,-0.4695,0.0,-0.4665,-0.4732,-0.5374,-0.6331,-0.7645,0.0,-0.9912,-1.1884,-1.2586,-1.3406,-1.4819,-1.5042,-1.5237,-1.5724,-1.5784,-1.5784,-1.5784,-1.5784,-1.5718,-1.5471,-1.5691,-1.5784,-1.5784,-1.5784,-1.5784,-1.5784,-1.5784,-1.5784,-1.5784,-1.5784,-1.5784,-1.5784,-1.5784,-1.5784,-1.5784,-1.5784,-1.5784,-1.5784,-1.5784,-1.5784,-1.5784,-1.5784,-1.5784,-1.5784,-1.5784,-1.648,-1.7271,0.0,0.0,0.0,0.0,0.0,0.0,0.0,0.0,0.0,0.0,0.0,0.0,0.0,0.0,0.0,0.0,0.0,0.0,0.0,0.0,0.0,0.0,0.0,0.0,0.0,0.0,0.0,0.0,-0.156,0.0,0.0,0.0,0.0,0.0,0.0,0.0,0.0,0.0,0.0,0.0,0.0,0.0,0.0,0.0,0.0,0.0,0.0,0.0,0.0,0.0,-0.3821,-0.4928,-0.5604,-0.6106,-0.6581,-0.7085,-0.7351,-0.757,-0.784,-0.7951,-0.7988,-0.7988,-0.758,-0.701,-0.629,-0.5553,0.0,0.0,-0.4276,-0.4433,-0.4857,-0.5243,-0.6213,-0.8335,0.0,0.0,0.0,0.0,-1.4156,0.0,-1.5223,-1.5451,-1.5751,-1.5784,-1.5784,-1.5784,-1.5784,-1.5758,-1.5711,-1.5751,-1.5784,-1.5784,-1.5784,-1.5784,-1.5784,-1.5784,-1.5784,-1.5784,-1.5784,-1.5784,-1.5784,-1.5784,-1.5784,-1.5784,-1.5784,-1.5784,-1.5784,-1.5784,-1.5784,-1.5784,-1.5784,-1.5784,-1.5784,-1.5784,-1.592,-1.6109,0.0,0.0,0.0,0.0,0.0,0.0,0.0,0.0,0.0,0.0,0.0,0.0,0.0,0.0,0.0,0.0,0.0,0.0,0.0,0.0,0.0,0.0,0.0,0.0,0.0,-0.0579,-0.0653,-0.0616,0.0,-0.0912,-0.0664,-0.0234,-0.002,0.0084,0.0713,0.0933,0.0,0.0,0.0,0.0,0.0783,0.0,0.0,0.0,0.0,0.0,0.0,0.0,0.0,0.0,-0.3098,-0.4078,-0.4849,-0.5061,-0.5165,-0.5443,-0.6117,-0.6789,-0.693,-0.7484,-0.7971,-0.7891,-0.7411,-0.6619,-0.5598,0.0,0.0,0.0,-0.3637,-0.394,-0.4493,0.0,0.0,0.0,0.0,0.0,0.0,0.0,0.0,0.0,-1.4715,-1.5344,0.0,-1.5784,-1.5784,-1.5784,-1.5784,-1.5784,-1.5784,-1.5784,-1.5784,-1.5784,-1.5784,-1.5784,-1.5784,-1.5784,-1.5784,-1.5784,-1.5784,-1.5784,-1.5784,-1.5784,-1.5784,-1.5784,-1.5784,-1.5784,-1.5784,-1.5784,-1.5784,-1.5784,-1.5784,-1.5784,-1.5784,-1.5784,-1.5784,-1.5784,0.0,0.0,0.0,0.0,0.0,0.0,0.0,0.0,0.0,0.0,0.0,0.0,0.0,0.0,0.0,0.0,0.0,0.0,0.0,0.0,0.0,0.0,0.0,0.0,0.0,0.0,0.0,0.0165,-0.0247,0.0,0.0,0.0,0.0,0.0,0.0942,0.1179,0.108,0.1218,0.0,0.0,0.0,0.1077,0.0,0.0,0.0,0.0,0.0,0.0,0.0,0.0,-0.1998,-0.2502,-0.3183,-0.3562,-0.3724,-0.3767,-0.4676,-0.5673,-0.5955,-0.676,-0.7601,-0.7751,-0.7227,-0.6325,-0.5018,-0.4238,0.0,0.0,-0.3004,-0.3489,-0.3963,0.0,-0.5185,0.0,-0.7494,0.0,0.0,0.0,0.0,0.0,0.0,0.0,-1.5738,-1.5784,-1.5784,-1.5784,-1.5784,-1.5784,-1.5784,-1.5784,-1.5784,-1.5784,-1.5784,-1.5784,-1.5784,-1.5784,-1.5784,-1.5784,-1.5784,-1.5784,-1.5784,-1.5784,-1.5784,-1.5784,-1.5784,-1.5784,-1.5784,-1.5784,-1.5784,-1.5784,-1.5784,-1.5784,-1.5784,-1.5784,-1.5784,-1.5784,0.0,0.0,0.0,0.0,0.0,0.0,0.0,0.0,0.0,0.0,0.0,0.0,0.0,0.0,0.0,0.0,0.0,0.0,0.0,0.0,0.0,0.0,0.0,0.0,0.0,0.0,0.0,0.0725,0.0031,0.0,0.0,0.0,0.0,0.0,0.0,0.1646,0.1626,0.1587,0.0,0.0,0.0,0.0,0.0,0.0,0.0,0.0,0.0,0.0,0.0,0.0,0.0,-0.0178,-0.0687,-0.2335,-0.4002,-0.3842,0.0,0.0,-0.5721,-0.6101,-0.6451,-0.7505,-0.7146,-0.6175,-0.4822,0.0,0.0,-0.2201,-0.2604,-0.3214,-0.3519,-0.4191,-0.506,-0.6096,0.0,-0.7669,0.0,0.0,0.0,0.0,0.0,0.0,-1.5676,-1.5784,-1.5784,-1.5784,-1.5784,-1.5784,-1.5784,-1.5784,-1.5784,-1.5784,-1.5784,-1.5784,-1.5784,-1.5784,-1.5784,-1.5784,-1.5784,-1.5784,-1.5784,-1.5784,-1.5784,-1.5784,-1.5784,-1.5784,-1.5784,-1.5784,-1.5784,-1.5784,-1.5784,-1.5784,-1.5784,-1.5784,-1.5784,-1.5784,0.0,0.0,0.0,0.0,0.0,0.0,0.0,0.0,0.0,0.0,0.0,0.0,0.0,0.0,0.0,0.0,0.0,0.0,0.0,0.0,0.0,0.0,0.0,0.0,0.0,0.0,0.1437,0.1651,0.0736,0.0,0.0,0.0,0.0,0.0,0.0,0.1713,0.1826,0.1879,0.0,0.0,0.0,0.0,0.0,0.0,0.0,0.0,0.0,0.0,0.0,0.0,0.0,0.0,0.0196,-0.0576,0.0,0.0,-0.2041,-0.2922,-0.346,-0.4174,-0.4872,-0.5289,-0.4851,-0.4089,-0.3183,0.0,-0.2196,-0.1766,-0.2248,-0.2923,-0.3524,-0.392,-0.4501,-0.5557,-0.5952,0.0,-0.7172,0.0,0.0,0.0,-1.146,0.0,0.0,-1.3451,-1.3451,-1.3451,-1.422,-1.4657,-1.4657,-1.5391,-1.5784,-1.5784,-1.5784,-1.5784,-1.5784,-1.5784,-1.5784,-1.5784,-1.5784,-1.5784,-1.5784,-1.5784,-1.5784,-1.5784,-1.5784,-1.5784,-1.5784,-1.5784,-1.5784,-1.5784,-1.5784,-1.5784,-1.5784,-1.5784,-1.5784,-1.5784,0.0,0.0,0.0,0.0,0.0,0.0,0.0,0.0,0.0,0.0,0.0,0.0,0.0,0.0,0.0,0.0,0.0,0.0,0.0,0.0,0.0,0.0,0.0,0.0,0.0,0.0,0.212,0.2377,0.1268,0.1028,0.0,0.0,0.069,0.1094,0.0,0.0,0.0,0.0,0.0,0.0,0.0,0.0,0.0,0.0,0.0,0.0,0.0,0.0,0.0,0.0,0.0,0.0,0.0,0.0,0.0,0.0,-0.0514,-0.1395,-0.1882,-0.2678,-0.3454,-0.3727,-0.3361,-0.2738,0.0,0.0,-0.1452,-0.1321,-0.1884,-0.2604,-0.3255,-0.3579,-0.4017,-0.4905,0.0,-0.5395,-0.5801,0.0,0.0,0.0,0.0,-1.0627,-1.1628,-1.1834,-1.1896,-1.1896,-1.2764,-1.3494,-1.3878,-1.4752,-1.5391,-1.5778,-1.5784,-1.5784,-1.5784,-1.5784,-1.5784,-1.5784,-1.5784,-1.5784,-1.5784,-1.5784,-1.5784,-1.5784,-1.5784,-1.5784,-1.5784,-1.5784,-1.5784,-1.5784,-1.5784,-1.5784,-1.5784,-1.5784,-1.5784,-1.5784,0.0,0.0,0.0,0.0,0.0,0.0,0.0,0.0,0.0,0.0,0.0,0.0,0.0,0.0,0.0,0.0,0.0,0.0,0.0,0.0,0.0,0.0,0.0,0.0,0.0,0.0,0.2389,0.2787,0.145,0.118,0.188,0.1065,0.0973,0.1527,0.0,0.0,0.0,0.0,0.0,0.0,0.0,0.0,0.0,0.0,0.0,0.0,0.0,0.0,0.0,0.0,0.0,0.0,0.0,0.0,0.0,0.0,0.0107,-0.0306,-0.1643,-0.2005,-0.2306,-0.3521,-0.3365,-0.2706,0.0,-0.1637,-0.1379,-0.0895,-0.1545,-0.2289,-0.2566,-0.3145,-0.3732,-0.4136,-0.4487,0.0,-0.5259,0.0,0.0,0.0,0.0,-0.9562,-1.1146,-1.1655,-1.1896,-1.1896,-1.1901,-1.2479,-1.3824,-1.3926,-1.4507,-1.5778,-1.5784,-1.5784,-1.5784,-1.5784,-1.5784,-1.5784,-1.5784,-1.5784,-1.5784,-1.5784,-1.5784,-1.5784,-1.5784,-1.5784,-1.5784,-1.5784,-1.5784,-1.5784,-1.5784,-1.5784,-1.5784,-1.5784,-1.5784,-1.5784,0.0,0.0,0.0,0.0,0.0,0.0,0.0,0.0,0.0,0.0,0.0,0.0,0.0,0.0,0.0,0.0,0.0,0.0,0.0,0.0,0.0,0.0,0.0,0.0,0.0,0.0,0.2761,0.2941,0.1681,0.1399,0.2016,0.1173,0.1244,0.2124,0.2407,0.2802,0.0,0.0,0.0,0.0,0.0,0.0,0.0,0.0,0.0,0.0,0.0,0.0,0.0,0.0,0.0,0.0,0.0,0.0,0.0,0.0,0.0,0.0,0.0036,-0.0077,-0.0199,-0.0615,-0.0465,-0.023,-0.0185,-0.0188,-0.0261,-0.0475,-0.1126,-0.1855,-0.2478,-0.2934,-0.3408,-0.4036,-0.4257,0.0,0.0,0.0,0.0,-0.6849,-0.7745,-0.8475,-0.9008,-0.9168,-0.9213,-0.9213,-1.0096,-1.1165,-1.2479,-1.2528,-1.3542,-1.573,-1.5784,-1.5784,-1.5784,-1.5784,-1.5784,-1.5784,-1.5784,-1.5784,-1.5784,-1.5784,-1.5784,-1.5784,-1.5784,-1.5784,-1.5784,-1.5784,-1.5784,-1.5784,-1.5784,-1.5784,-1.5784,-1.5784,-1.5784,-1.5784,0.0,0.0,0.0,0.0,0.0,0.0,0.0,0.0,0.0,0.0,0.0,0.0,0.0,0.0,0.0,0.0,0.0,0.0,0.0,0.0,0.0,0.0,0.0,0.0,0.0,0.2902,0.2818,0.2887,0.1807,0.1554,0.2084,0.134,0.1433,0.227,0.2762,0.3164,0.0,0.0,0.0,0.0,0.0,0.0,0.2781,0.0,0.0,0.0,0.0,0.0,0.0,0.0,0.0,0.0,0.0,0.0,0.0,0.0,0.1533,0.128,0.0,0.096,0.0925,0.0874,0.099,0.0,0.0,0.0532,0.027,-0.0182,-0.085,-0.1558,-0.2207,-0.2635,-0.3097,-0.3735,-0.399,0.0,0.0,0.0,0.0,-0.6501,0.0,-0.7811,-0.7868,-0.7924,-0.7988,-0.7988,-0.8775,-0.9801,-1.1121,-1.117,-1.2377,-1.4997,-1.5092,-1.5289,-1.5784,-1.5784,-1.5784,-1.5784,-1.5784,-1.5784,-1.5784,-1.5784,-1.5784,-1.5784,-1.5784,-1.5784,0.0,-1.5784,-1.5784,-1.5784,-1.5784,-1.5784,-1.5784,-1.5784,-1.5784,-1.5784,0.0,0.0,0.0,0.0,0.0,0.0,0.0,0.0,0.0,0.0,0.0,0.0,0.0,0.0,0.0,0.0,0.0,0.0,0.0,0.0,0.0,0.0,0.0,0.0,0.0,0.2761,0.2593,0.2649,0.1837,0.167,0.2115,0.1602,0.1635,0.214,0.3148,0.3564,0.3546,0.3511,0.336,0.3114,0.2927,0.2841,0.0,0.0,0.0,0.0,0.0,0.0,0.0,0.0,0.0,0.0,0.0,0.0,0.0,0.0,0.0,0.0,0.0,0.0,0.0,0.0,0.0,0.0,0.0915,0.0633,0.0,-0.0021,-0.0735,-0.1406,-0.1827,-0.2334,-0.2851,-0.3307,-0.3704,0.0,0.0,-0.5454,0.0,0.0,-0.7231,-0.7465,-0.7587,-0.7816,-0.7988,-0.7988,-0.7988,-0.8577,-0.9948,-0.9899,-1.1068,-1.3686,-1.368,-1.4316,-1.5778,-1.5784,-1.5784,-1.5784,-1.5784,-1.5784,-1.5784,-1.5784,-1.5784,-1.5784,-1.5784,-1.5784,-1.5784,-1.5784,-1.5784,-1.5784,-1.5784,-1.5784,-1.5784,-1.5784,-1.5784,-1.5784,0.0,0.0,0.0,0.0,0.0,0.0,0.0,0.0,0.0,0.0,0.0,0.0,0.0,0.0,0.0,0.0,0.0,0.0,0.0,0.0,0.0,0.0,0.0,0.0,0.0,0.2338,0.2198,0.2166,0.1954,0.2029,0.2324,0.2202,0.245,0.2999,0.3309,0.3673,0.4012,0.3649,0.3498,0.347,0.3384,0.3303,0.0,0.0,0.0,0.0,0.274,0.2615,0.0,0.0,0.0,0.0,0.0,0.0,0.0,0.0,0.2465,0.2452,0.2305,0.0,0.1883,0.1873,0.1723,0.1539,0.0,0.0936,0.0511,0.0,0.0,0.0,-0.1806,-0.2302,-0.2773,-0.3182,0.0,0.0,-0.4437,0.0,0.0,-0.6994,-0.7533,-0.7707,-0.7422,-0.7768,-0.7988,-0.7988,-0.7988,-0.8577,-0.9948,-0.9019,-0.9653,-1.2285,-1.1409,-1.2474,-1.5784,-1.5784,-1.5784,-1.5784,-1.5784,-1.5784,-1.5784,-1.5784,-1.5784,-1.5784,-1.5784,-1.5784,-1.5784,-1.5784,-1.5784,-1.5784,-1.5784,-1.5784,-1.5784,-1.5784,-1.5784,-1.5784,0.0,0.0,0.0,0.0,0.0,0.0,0.0,0.0,0.0,0.0,0.0,0.0,0.0,0.0,0.0,0.0,0.0,0.0,0.0,0.0,0.0,0.0,0.0,0.3001,0.2542,0.2188,0.2026,0.2044,0.2077,0.2179,0.2362,0.2352,0.2622,0.3135,0.3516,0.3887,0.4222,0.3718,0.3453,0.336,0.3196,0.0,0.0,0.0,0.0,0.0,0.3022,0.2989,0.0,0.2761,0.2808,0.2903,0.0,0.0,0.0,0.0,0.2889,0.2932,0.2965,0.2706,0.2383,0.223,0.2043,0.1798,0.1431,0.0,0.0,0.0,0.0,0.0,0.0,0.0,0.0,0.0,-0.3565,0.0,0.0,0.0,-0.637,-0.6908,-0.7408,-0.7679,-0.7604,-0.7845,-0.7988,-0.7988,-0.7988,-0.8333,-0.9019,-0.8382,-0.892,-1.0974,-1.0342,-1.1599,-1.4902,-1.4949,-1.4949,-1.4949,-1.4949,-1.4609,-1.4034,-1.4657,-1.4949,-1.4949,-1.554,-1.5784,-1.5784,-1.5784,-1.5784,-1.5784,-1.5784,-1.5784,-1.5784,-1.5784,-1.5784,-1.5784,0.0,0.0,0.0,0.0,0.0,0.0,0.0,0.0,0.0,0.0,0.0,0.0,0.0,0.0,0.0,0.0,0.0,0.0,0.0,0.0,0.0,0.0,0.0,0.2885,0.254,0.2046,0.1858,0.1972,0.2129,0.2284,0.2389,0.2473,0.2676,0.3037,0.368,0.4053,0.416,0.3667,0.3338,0.3117,0.2886,0.0,0.0,0.0,0.0,0.0,0.0,0.0,0.0,0.3079,0.3227,0.3413,0.3211,0.0,0.0,0.0,0.0,0.0,0.3452,0.3139,0.2746,0.2503,0.2254,0.1945,0.1438,0.0,0.0,0.0,0.0,0.0,0.0,0.0,0.0,0.0,0.0,0.0,-0.5538,-0.5779,-0.6138,-0.6797,-0.7182,-0.7551,-0.7851,-0.7961,-0.7988,-0.7988,-0.7988,-0.7988,-0.7988,-0.7988,-0.8531,-0.9657,-0.9706,-1.0858,-1.3239,-1.3711,-1.3776,-1.3584,-1.3776,-1.3199,-1.1945,-1.306,-1.3584,-1.368,-1.4949,-1.5486,-1.5534,-1.573,-1.5784,-1.5784,-1.5784,-1.5784,-1.5778,-1.5731,-1.5643,-1.5486,0.0,0.0,0.0,0.0,0.0,0.0,0.0,0.0,0.0,0.0,0.0,0.0,0.0,0.0,0.0,0.0,0.0,0.0,0.0,0.0,0.0,0.0,0.3463,0.2514,0.1789,0.1469,0.134,0.1417,0.2006,0.2455,0.2823,0.3212,0.344,0.3502,0.3728,0.3786,0.3688,0.3442,0.331,0.3268,0.3228,0.0,0.0,0.0,0.0,0.0,0.0,0.0,0.0,0.3257,0.3428,0.3624,0.3418,0.0,0.0,0.0,0.0,0.0,0.3742,0.3283,0.284,0.3025,0.2538,0.192,0.1564,0.0,0.0,0.0,0.0,0.0,0.0,-0.2154,-0.2475,0.0,0.0,-0.5129,0.0,-0.6796,-0.7134,-0.7206,-0.7607,-0.7742,-0.7444,-0.7742,-0.7988,-0.7988,-0.7988,-0.7988,-0.7988,-0.7988,-0.8088,-0.8283,-0.8283,-0.9,-1.0423,-1.2752,-1.3343,-1.2237,-1.3343,-1.3199,-1.1901,-1.2091,-1.2188,-1.2285,-1.359,-1.4166,-1.4268,-1.5343,-1.5784,-1.5784,-1.5784,-1.5784,-1.5751,-1.5558,-1.4942,-1.4022,0.0,0.0,0.0,0.0,0.0,0.0,0.0,0.0,0.0,0.0,0.0,0.0,0.0,0.0,0.0,0.0,0.0,0.0,0.0,0.0,0.0,0.5056,0.4184,0.3281,0.2328,0.2011,0.1822,0.1794,0.2251,0.2629,0.2966,0.3593,0.3968,0.4129,0.3855,0.3749,0.374,0.3429,0.3294,0.3319,0.0,0.0,0.0,0.0,0.0,0.0,0.0,0.0,0.0,0.0,0.3906,0.4098,0.3851,0.0,0.0,0.0,0.0,0.0,0.4224,0.3748,0.315,0.3055,0.2237,0.1378,0.1091,0.0,0.0,0.0,0.0,0.0,0.0,0.0,-0.3261,-0.4549,0.0,-0.5372,-0.6219,-0.649,-0.6681,-0.6974,-0.738,-0.7614,-0.7686,-0.7861,-0.7988,-0.7988,-0.7988,-0.7988,-0.7988,-0.7911,-0.7916,-0.7916,-0.7841,-0.8051,-0.8591,-1.0537,-1.1257,-1.0759,-1.1375,-1.1003,-0.9801,-1.0534,-1.0877,-1.0974,-1.3006,-1.3926,-1.4022,-1.5289,-1.5784,-1.5784,-1.5784,-1.5784,-1.5697,-1.4793,-1.372,-1.2522,0.0,0.0,0.0,0.0,0.0,0.0,0.0,0.0,0.0,0.0,0.0,0.0,0.0,0.0,0.0,0.0,0.0,0.0,0.0,0.0,0.5693,0.5463,0.4964,0.4173,0.3069,0.2663,0.2357,0.2129,0.2403,0.277,0.3224,0.3913,0.4388,0.4641,0.4055,0.3911,0.4076,0.3566,0.3468,0.3661,0.0,0.0,0.0,0.0,0.0,0.0,0.0,0.0,0.0,0.0,0.0,0.0,0.0,0.0,0.0,0.5049,0.4774,0.4461,0.4845,0.423,0.3384,0.3074,0.2167,0.1213,0.0728,0.0558,0.0,0.0,0.0,0.0,0.0,-0.2968,0.0,-0.54,-0.5525,-0.5686,-0.642,-0.6395,-0.6493,-0.7015,-0.7297,-0.7581,-0.7917,-0.7968,-0.7961,-0.7891,-0.7917,-0.7921,-0.7887,-0.7824,-0.7763,-0.7763,-0.7655,-0.7584,-0.7546,-0.8502,-0.9092,-0.9275,-0.9603,-0.9108,-0.7936,-0.8992,-0.9494,-0.9641,-1.2302,-1.344,-1.3542,-1.5146,-1.5744,-1.5684,-1.546,-1.5111,-1.4641,-1.3537,-1.2253,-1.0909,0.0,0.0,0.0,0.0,0.0,0.0,0.0,0.0,0.0,0.0,0.0,0.0,0.0,0.0,0.0,0.0,0.0,0.0,0.0,0.0,0.5852,0.5339,0.5275,0.4682,0.3487,0.2952,0.2423,0.1919,0.2179,0.2843,0.3854,0.439,0.4731,0.4854,0.4314,0.4323,0.4683,0.3843,0.3955,0.4658,0.4173,0.0,0.0,0.0,0.0,0.0,0.0,0.0,0.0,0.0,0.0,0.0,0.0,0.0,0.5559,0.5688,0.5485,0.5278,0.5629,0.4534,0.3308,0.3285,0.2817,0.0,0.0949,0.0771,0.0,-0.1114,0.0,0.0,0.0,-0.331,-0.3895,-0.4508,-0.531,-0.626,-0.7359,-0.7489,-0.7601,-0.7858,-0.7951,-0.7911,-0.7838,-0.7907,-0.7877,-0.7651,-0.7753,-0.777,-0.7638,-0.7621,-0.7614,-0.7614,-0.7604,-0.7533,-0.7436,-0.752,-0.76,-0.7755,-0.8944,-0.8859,-0.7634,-0.7863,-0.7969,-0.8122,-1.0838,-1.2042,-1.2237,-1.4758,-1.5671,-1.5358,-1.4409,-1.3067,-1.1605,-1.1497,-1.0534,-0.915,0.0,0.0,0.0,0.0,0.0,0.0,0.0,0.0,0.0,0.0,0.0,0.0,0.0,0.0,0.0,0.0,0.0,0.0,0.0,0.0,0.6367,0.6117,0.5835,0.5279,0.4452,0.387,0.3184,0.2389,0.2992,0.3686,0.4461,0.462,0.4745,0.4795,0.3931,0.3686,0.3886,0.3271,0.3556,0.4419,0.4294,0.4542,0.0,0.0,0.0,0.0,0.0,0.0,0.0,0.0,0.5559,0.5556,0.5705,0.5914,0.6127,0.626,0.5971,0.5611,0.5606,0.4545,0.3354,0.3121,0.2558,0.0,0.0,0.0632,0.0329,-0.0623,-0.0861,0.0,0.0,0.0,-0.4393,-0.4964,-0.5871,-0.6724,-0.74,-0.7539,-0.7675,-0.7875,-0.7896,-0.7875,-0.7818,-0.7784,-0.7719,-0.7607,-0.7648,-0.7655,-0.7604,-0.7509,-0.7458,-0.7458,-0.7366,-0.7285,-0.7227,-0.7938,-0.837,-0.8391,-0.8269,-0.8009,-0.7729,-0.7695,-0.778,-0.8048,-0.9793,-1.066,-1.0867,-1.256,-1.3208,-1.3128,-1.3608,-1.2725,-1.1176,-1.1359,-1.049,-0.9058,0.0,0.0,0.0,0.0,0.0,0.0,0.0,0.0,0.0,0.0,0.0,0.0,0.0,0.0,0.0,0.0,0.0,0.0,0.7266,0.695,0.6664,0.6449,0.6116,0.5571,0.4826,0.4515,0.3838,0.2788,0.3489,0.4132,0.4673,0.4665,0.4717,0.4755,0.3759,0.3424,0.3557,0.2995,0.3382,0.4369,0.4594,0.5012,0.0,0.0,0.0,0.0,0.0,0.0,0.0,0.0,0.612,0.6132,0.6348,0.6562,0.6769,0.6859,0.6389,0.5851,0.583,0.4813,0.3626,0.0,0.0,0.0,0.0893,0.0631,0.0315,-0.0524,-0.0735,-0.1032,-0.1863,0.0,-0.4372,-0.4831,-0.569,-0.6589,-0.7284,-0.6805,-0.6726,-0.763,-0.7401,-0.7289,-0.7628,-0.7628,-0.756,-0.7461,-0.7499,-0.7506,-0.7458,-0.7356,-0.7299,-0.7299,-0.7149,-0.7095,-0.7095,-0.7929,-0.8321,-0.8324,-0.7647,-0.7587,-0.811,-0.7736,-0.7665,-0.7944,-0.916,-0.9779,-1.0042,-1.1171,-1.1407,-1.112,-1.2316,-1.1629,-1.0071,-1.0546,-0.9893,-0.8555,0.0,0.0,0.0,0.0,0.0,0.0,0.0,0.0,0.0,0.0,0.0,0.0,0.0,0.0,0.0,0.0,0.0,0.0,0.7635,0.7168,0.6663,0.6121,0.6031,0.5496,0.4426,0.4724,0.4262,0.3004,0.3471,0.3934,0.4392,0.4533,0.4668,0.4751,0.3952,0.3743,0.3947,0.3215,0.3588,0.4727,0.5131,0.5736,0.6467,0.0,0.0,0.0,0.0,0.0,0.0,0.0,0.6616,0.6577,0.6977,0.7295,0.7509,0.7516,0.6794,0.6077,0.6407,0.5424,0.0,0.0,0.0,0.0,0.0977,0.079,0.0478,-0.0971,-0.146,-0.1573,-0.1574,-0.2677,-0.3616,-0.3762,-0.4513,-0.5616,-0.7141,-0.5291,-0.473,-0.7245,-0.6496,-0.6208,-0.7289,-0.7506,-0.7468,-0.7115,-0.7278,-0.7299,-0.7098,-0.7092,-0.7095,-0.7095,-0.7095,-0.7095,-0.7095,-0.7095,-0.7095,-0.7095,-0.7095,-0.7753,-0.8855,-0.7836,-0.7455,-0.7691,-0.8924,-0.958,-0.9888,-1.0988,-1.0665,-0.954,-1.0445,-0.9503,-0.7714,-0.8728,-0.8397,-0.7415,0.0,0.0,0.0,0.0,0.0,0.0,0.0,0.0,0.0,0.0,0.0,0.0,0.0,0.0,0.0,0.0,0.0,0.0,0.7695,0.7317,0.6856,0.6269,0.5908,0.5365,0.4625,0.4237,0.3899,0.3566,0.3752,0.4009,0.432,0.4277,0.4201,0.406,0.3166,0.2956,0.3266,0.2815,0.3263,0.4295,0.4457,0.5105,0.6008,0.0,0.0,0.0,0.0,0.0,0.0,0.0,0.0,0.0,0.7237,0.7588,0.7896,0.7802,0.7397,0.6891,0.6405,0.4979,0.0,0.3133,0.0,0.0,0.0,0.0606,0.0,0.0,-0.0513,-0.0619,-0.0679,-0.1509,-0.2289,-0.256,-0.3347,-0.4099,-0.4658,-0.4196,-0.4064,-0.4815,-0.5344,-0.5764,-0.5961,-0.6751,-0.7109,-0.6854,-0.6973,-0.6993,-0.6841,-0.6889,-0.695,-0.695,-0.7045,-0.7095,-0.7095,-0.7929,-0.8364,-0.8364,-0.8364,-0.817,-0.784,-0.7372,-0.7353,-0.7594,-0.7894,-0.8116,-0.8259,-0.8502,-0.8314,-0.7942,-0.9221,-0.9253,-0.858,-0.9045,-0.898,-0.8468,0.0,0.0,0.0,0.0,0.0,0.0,0.0,0.0,0.0,0.0,0.0,0.0,0.0,0.0,0.0,0.0,0.0,0.0,0.0,0.7409,0.6958,0.679,0.6017,0.529,0.4633,0.401,0.3783,0.3955,0.3967,0.4095,0.4328,0.4139,0.389,0.354,0.2828,0.2548,0.2595,0.2526,0.3014,0.3862,0.4266,0.5021,0.5899,0.0,0.0,0.0,0.0,0.0,0.0,0.0,0.0,0.0,0.7449,0.0,0.8006,0.7699,0.7424,0.7002,0.6093,0.0,0.0,0.289,0.1889,0.0983,0.0532,0.0,0.0,0.0,-0.0077,-0.0115,-0.0157,-0.0952,-0.1686,-0.1942,-0.2377,-0.2919,-0.3495,-0.2853,-0.2658,-0.3615,-0.3921,-0.4416,-0.5188,-0.5915,-0.6416,-0.667,-0.6787,-0.6797,-0.6705,-0.679,-0.6865,-0.6883,-0.691,-0.6977,-0.7095,-0.7714,-0.81,-0.8189,-0.8123,-0.7834,-0.7278,-0.7139,-0.7275,-0.7502,-0.7456,-0.7387,-0.7411,-0.7319,-0.7224,-0.72,-0.8155,-0.8429,-0.8306,-0.8501,-0.8491,-0.8283,0.0,0.0,0.0,0.0,0.0,0.0,0.0,0.0,0.0,0.0,0.0,0.0,0.0,0.0,0.0,0.0,0.0,0.0,0.0,0.0,0.7131,0.7428,0.6202,0.5198,0.4537,0.4005,0.3903,0.4192,0.412,0.4191,0.4385,0.4107,0.3695,0.3188,0.2807,0.241,0.2054,0.2349,0.2808,0.3433,0.4337,0.5198,0.5974,0.6481,0.0,0.0,0.0,0.0,0.0,0.0,0.0,0.0,0.7594,0.7872,0.7913,0.7422,0.7125,0.6706,0.5677,0.0,0.0,0.2724,0.2207,0.0,0.0309,0.0,0.0,0.0,0.0,0.0,0.0,-0.0788,-0.1508,-0.1616,-0.1542,-0.188,-0.3084,-0.1382,-0.0796,-0.3008,-0.2386,-0.2594,-0.4587,-0.497,-0.551,-0.6452,-0.663,-0.6675,-0.6661,-0.6671,-0.6742,-0.6839,-0.6766,-0.6827,-0.7055,-0.6834,-0.6834,-0.7055,-0.6927,-0.694,-0.7078,-0.7092,-0.7217,-0.7395,-0.7395,-0.7272,-0.7095,-0.7082,-0.7085,-0.7109,-0.7282,-0.7374,-0.7374,-0.7374,-0.7374,-0.7309,0.0,0.0,0.0,0.0,0.0,0.0,0.0,0.0,0.0,0.0,0.0,0.0,0.0,0.0,0.0,0.0,0.0,0.0,0.0,0.0,0.8106,0.7008,0.5582,0.4772,0.4665,0.4292,0.4124,0.4197,0.3971,0.4023,0.4313,0.3997,0.3612,0.316,0.2461,0.2175,0.2233,0.2262,0.2552,0.3061,0.3741,0.4528,0.5323,0.5531,0.6124,0.0,0.0,0.0,0.0,0.0,0.0,0.0,0.7335,0.7725,0.8056,0.8,0.7536,0.6935,0.633,0.5204,0.0,0.0,0.2276,0.1115,0.0197,0.0,0.0,0.0,0.0,0.0,0.0,-0.0205,-0.0372,-0.0367,-0.0366,-0.0448,-0.0736,-0.0328,-0.0205,-0.0696,-0.137,-0.1957,-0.2333,-0.4016,-0.511,-0.5131,-0.6011,-0.6511,-0.6402,-0.6501,-0.6536,-0.6569,-0.6654,-0.6729,-0.6793,-0.6732,-0.6732,-0.6797,-0.6763,-0.6827,-0.6933,-0.7045,-0.7112,-0.7146,-0.7146,-0.7125,-0.7088,-0.6977,-0.6997,-0.7088,-0.7011,-0.7024,-0.7024,-0.7024,-0.7024,-0.7,0.0,0.0,0.0,0.0,0.0,0.0,0.0,0.0,0.0,0.0,0.0,0.0,0.0,0.0,0.0,0.0,0.0,0.0,0.0,0.0,0.7451,0.6132,0.5339,0.4775,0.4421,0.427,0.4202,0.4195,0.4091,0.4128,0.4292,0.4027,0.3643,0.318,0.2637,0.23,0.2157,0.2249,0.2552,0.2972,0.3321,0.4028,0.4872,0.4935,0.548,0.6286,0.6989,0.0,0.0,0.0,0.0,0.0,0.0,0.0,0.7759,0.7734,0.7516,0.7064,0.0,0.0,0.0,0.3678,0.0,0.0995,0.061,0.027,0.0,0.0,0.0,0.0,0.0,0.0,0.0,0.0,0.0,0.0,0.0,0.0,0.0,0.0,-0.055,-0.1094,-0.1545,-0.2725,-0.376,-0.4533,-0.5188,-0.5695,-0.6044,-0.6179,-0.6295,-0.6409,-0.6487,-0.6559,-0.6698,-0.6559,-0.6563,-0.6698,-0.6627,-0.6671,-0.6827,-0.6997,-0.7058,-0.6997,-0.6997,-0.6953,-0.6922,-0.6851,-0.6861,-0.6922,-0.6848,-0.682,-0.682,-0.682,-0.682,-0.6807,0.0,0.0,0.0,0.0,0.0,0.0,0.0,0.0,0.0,0.0,0.0,0.0,0.0,0.0,0.0,0.0,0.0,0.0,0.0,0.0,0.0,0.562,0.5322,0.4842,0.4127,0.4239,0.4238,0.409,0.4222,0.4223,0.0,0.4016,0.3678,0.3151,0.2855,0.2439,0.1991,0.22,0.2507,0.2876,0.2954,0.3529,0.4342,0.4432,0.5037,0.5881,0.6262,0.6562,0.6799,0.6979,0.0,0.0,0.0,0.0,0.7411,0.7305,0.7343,0.7083,0.0,0.0,0.5132,0.3747,0.2334,0.0,0.1123,0.0543,0.0,0.0,0.0,0.0,0.0,0.0,0.0,0.0,0.0,0.0,0.0,0.0,0.0,0.0,0.0,-0.0364,-0.1236,-0.1491,-0.225,-0.3876,-0.4311,-0.4817,-0.5545,-0.5808,-0.6051,-0.6214,-0.6221,-0.6351,-0.6583,-0.6315,-0.6371,-0.6624,-0.6538,-0.6542,-0.6634,-0.6875,-0.691,-0.6849,-0.6849,-0.6817,-0.6698,-0.6671,-0.6675,-0.6698,-0.6671,-0.6661,-0.6661,-0.6661,-0.6661,-0.6658,0.0,0.0,0.0,0.0,0.0,0.0,0.0,0.0,0.0,0.0,0.0,0.0,0.0,0.0,0.0,0.0,0.0,0.0,0.8324,0.0,0.0,0.6691,0.5405,0.4537,0.4192,0.4531,0.4374,0.3684,0.4041,0.0,0.0,0.0,0.0,0.3003,0.2572,0.2199,0.1902,0.1831,0.1986,0.2313,0.2441,0.2822,0.3342,0.375,0.4282,0.4898,0.5694,0.6118,0.6388,0.6981,0.7099,0.0,0.0,0.0,0.7586,0.7625,0.7314,0.6867,0.0,0.0,0.4718,0.0,0.2666,0.1879,0.0,0.0,0.0,0.0,0.0,0.0,0.0,0.0,0.0,0.0,0.0,0.0,0.0,0.0,0.0,0.0,0.0,-0.0073,-0.0182,-0.1054,-0.1709,-0.1962,-0.3551,-0.4565,-0.4673,-0.5417,-0.584,-0.5861,-0.5864,-0.5945,-0.6081,-0.5949,-0.6017,-0.6358,-0.6337,-0.6337,-0.6361,-0.6402,-0.6508,-0.6729,-0.6729,-0.6719,-0.6692,-0.6559,-0.658,-0.6685,-0.6556,-0.6542,-0.6542,-0.6542,-0.6542,-0.6525,0.0,0.0,0.0,0.0,0.0,0.0,0.0,0.0,0.0,0.0,0.0,0.0,0.0,0.0,0.0,0.7628,0.7701,0.7648,0.7362,0.6748,0.6293,0.6076,0.5123,0.4458,0.4148,0.4166,0.4022,0.371,0.0,0.0,0.0,0.339,0.3079,0.0,0.0,0.0,0.2057,0.1838,0.1881,0.2078,0.1986,0.2187,0.2593,0.3064,0.3414,0.3771,0.4674,0.5185,0.5503,0.6095,0.6535,0.6892,0.7296,0.0,0.0,0.0,0.7157,0.0,0.6261,0.5487,0.4745,0.0,0.3072,0.211,0.1797,0.0821,0.0,0.0,0.0,0.0,0.0,0.0,0.0,0.0,0.0,0.0,0.0,0.0,0.0,0.0,0.0,0.0,0.0,-0.0413,-0.0891,-0.1389,-0.2221,-0.3155,-0.4161,-0.4644,-0.5147,-0.5684,-0.5759,-0.5833,-0.5901,-0.5833,-0.5867,-0.6003,-0.6003,-0.6003,-0.6003,-0.5513,-0.574,-0.6487,-0.6363,-0.6373,-0.648,-0.6288,-0.6315,-0.6487,-0.6419,-0.6395,-0.6395,-0.6395,-0.6395,-0.6385,0.0,0.0,0.0,0.0,0.0,0.0,0.0,0.0,0.0,0.0,0.0,0.0,0.0,0.0,0.0,0.0,0.7288,0.7039,0.6629,0.6242,0.5834,0.5396,0.4912,0.4485,0.4138,0.3961,0.3858,0.0,0.0,0.0,0.3625,0.3044,0.2646,0.0,0.2496,0.2377,0.0,0.0,0.0,0.1778,0.1498,0.1563,0.184,0.2304,0.2521,0.2708,0.3632,0.4246,0.4696,0.5305,0.5974,0.661,0.7113,0.7398,0.0,0.0,0.0,0.0,0.0,0.0,0.4837,0.4654,0.3575,0.2509,0.0,0.0,0.0233,0.0029,0.0,0.0,0.0,0.0,0.0,0.0,0.0,0.0,0.0,0.0,0.0,0.0,0.0,0.0,0.0,0.0,-0.0257,-0.0918,-0.1182,-0.1967,-0.354,-0.3971,-0.4546,-0.544,-0.5613,-0.5708,-0.5745,-0.5783,-0.5783,-0.5749,-0.5749,-0.5639,-0.5383,-0.4667,-0.4773,-0.5434,-0.5554,-0.5847,-0.6173,-0.602,-0.604,-0.6187,-0.6224,-0.6242,-0.6242,-0.6242,-0.6242,-0.6242,0.0,0.0,0.0,0.0,0.0,0.0,0.0,0.0,0.0,0.0,0.0,0.0,0.7538,0.7453,0.7429,0.7488,0.7495,0.7225,0.6634,0.628,0.5861,0.533,0.4972,0.0,0.4207,0.4312,0.4174,0.0,0.0,0.0,0.2946,0.2589,0.2312,0.2136,0.2328,0.2166,0.1715,0.0,0.0,0.0,0.0,0.0,0.0,0.1415,0.1643,0.1879,0.2754,0.349,0.4169,0.5028,0.5769,0.6422,0.7029,0.7419,0.7565,0.0,0.0,0.0,0.0,0.5023,0.0,0.487,0.4236,0.0,0.0,0.0,0.0841,0.014,0.0,0.0,0.0,0.0,0.0,0.0,0.0,0.0,0.0,0.0,0.0,0.0,0.0,0.0,0.0,0.0,-0.0031,-0.0062,-0.0836,-0.1668,-0.2532,-0.3488,-0.4347,-0.5091,-0.5304,-0.5487,-0.5599,-0.5735,-0.5735,-0.5599,-0.5599,-0.5142,-0.4261,-0.4118,-0.3687,-0.3128,-0.4135,-0.5051,-0.5823,-0.5817,-0.5817,-0.584,-0.5983,-0.6003,-0.6003,-0.6003,-0.6003,-0.6003,0.0,0.0,0.0,0.0,0.0,0.0,0.0,0.0,0.0,0.0,0.0,0.0,0.0,0.6867,0.6609,0.6719,0.6811,0.6765,0.6553,0.6705,0.6453,0.5659,0.5762,0.536,0.435,0.4461,0.429,0.0,0.0,0.3223,0.3218,0.2699,0.2428,0.2347,0.2335,0.213,0.1748,0.1388,0.0,0.0,0.0,0.0,0.0,0.102,0.1129,0.1179,0.205,0.2799,0.3448,0.4107,0.4982,0.5879,0.6391,0.6931,0.7273,0.0,0.0,0.0,0.0,0.0,0.0,0.489,0.4283,0.3471,0.2527,0.1704,0.0895,0.014,0.0,0.0,0.0,0.0,0.0,0.0,0.0,0.0,0.0,0.0,0.0,0.0,0.0,0.0,0.0,0.0,0.0,0.0,-0.0278,-0.0832,-0.1692,-0.2079,-0.2871,-0.4213,-0.4429,-0.4823,-0.5477,-0.4906,-0.4628,-0.4554,-0.4009,-0.3567,-0.3227,-0.2555,-0.2456,-0.2788,-0.319,-0.3967,-0.4994,-0.5486,-0.5718,-0.5817,-0.5932,-0.5993,-0.5993,-0.5993,-0.6091,-0.6149,0.0,0.0,0.0,0.0,0.0,0.0,0.0,0.0,0.0,0.7266,0.0,0.0,0.0,0.0,0.6195,0.6409,0.6462,0.6458,0.6432,0.6675,0.6514,0.5797,0.6152,0.5878,0.4826,0.4867,0.4665,0.0,0.0,0.0,0.0,0.2927,0.2638,0.2557,0.2351,0.1997,0.0,0.0,0.0,0.0717,0.0,0.0301,0.0391,0.0653,0.0695,0.0674,0.1455,0.2004,0.2459,0.3044,0.3821,0.4687,0.5439,0.6112,0.0,0.0,0.0,0.0,0.4519,0.0,0.0,0.0,0.0,0.3818,0.2659,0.1915,0.1185,0.0196,0.0,0.0,0.0,0.0196,0.0283,0.0029,0.0,0.0,0.0,0.0,0.0,0.0,0.0,0.0,0.0,0.0,0.0,0.0,0.0,-0.0359,-0.1194,-0.1536,-0.2353,-0.3768,-0.3872,-0.4129,-0.4483,-0.3882,-0.3564,-0.3563,-0.2965,-0.2531,-0.2213,-0.1568,-0.1475,-0.1811,-0.211,-0.3039,-0.4404,-0.5202,-0.5569,-0.5674,-0.5874,-0.5888,-0.5888,-0.5899,-0.6017,-0.6108,0.0,0.0,0.0,0.0,0.0,0.0,0.0,0.0,0.0,0.5642,0.0,0.0,0.0,0.0,0.0,0.6621,0.65,0.6369,0.6295,0.6197,0.6016,0.5723,0.6103,0.6085,0.5607,0.5529,0.5303,0.0,0.0,0.0,0.0,0.0,0.2911,0.2683,0.2361,0.18,0.1092,0.0,0.0688,0.0375,0.0111,0.0196,0.0479,0.0349,0.03,0.0368,0.095,0.115,0.1197,0.1852,0.2354,0.2933,0.4225,0.5054,0.0,0.0,0.0,0.0,0.0,0.0,0.0,0.0,0.0,0.0,0.2831,0.2327,0.1818,0.0361,0.0056,0.0056,0.0056,0.0643,0.0905,0.0176,0.0057,0.0028,0.0,0.0,0.0,0.0,0.0,0.0,0.0,0.0,0.0,0.0,0.0,-0.0308,-0.1034,-0.196,-0.2863,-0.3705,-0.3746,-0.3411,-0.2709,-0.2676,-0.267,-0.2661,-0.2637,-0.2142,-0.1255,-0.1255,-0.0804,-0.0034,-0.0938,-0.2307,-0.401,-0.4954,-0.5362,-0.5423,-0.5681,-0.5711,-0.5606,-0.5745,-0.5796,-0.5779,0.0,0.0,0.0,0.0,0.0,0.0,0.0,0.0,0.638,0.0,0.0,0.0,0.5649,0.5869,0.5936,0.5709,0.6174,0.6394,0.6233,0.6643,0.6625,0.6018,0.6509,0.6444,0.5685,0.5565,0.5281,0.0,0.0,0.438,0.3916,0.3683,0.0,0.0,0.2431,0.1746,0.0868,0.0798,0.0,0.0229,0.0056,0.0057,0.0145,0.02,0.0172,0.0115,0.0371,0.0774,0.1181,0.1337,0.2106,0.3231,0.455,0.0,0.0,0.0,0.0,0.0,0.4609,0.0,0.0,0.0,0.0,0.0,0.3516,0.313,0.2733,0.1797,0.1592,0.1591,0.1591,0.1758,0.182,0.1639,0.1153,0.0618,0.0085,0.0,0.0,0.0,0.0,0.0,0.0,0.0,0.0,0.0,0.0,-0.0084,-0.028,-0.1068,-0.1644,-0.1989,-0.2541,-0.2799,-0.2709,-0.2037,-0.1685,-0.1672,-0.1048,-0.0597,-0.0375,-0.0346,-0.0221,-0.0063,-0.0937,-0.1594,-0.2182,-0.3751,-0.4788,-0.5416,-0.5572,-0.5627,-0.5596,-0.5633,-0.5715,-0.5779,0.0,0.0,0.0,0.0,0.0,0.0,0.0,0.5907,0.5621,0.0,0.0,0.0,0.5208,0.5486,0.5586,0.5405,0.5937,0.6262,0.6199,0.669,0.6749,0.6203,0.6717,0.663,0.5839,0.5804,0.5564,0.5097,0.5047,0.4747,0.4208,0.4018,0.3615,0.0,0.0,0.0,0.0,0.0,0.055,0.0294,0.0085,0.0144,0.0329,0.0261,0.0202,0.0146,0.0201,0.0434,0.0702,0.0651,0.1468,0.2645,0.3397,0.392,0.0,0.4368,0.0,0.0,0.0,0.0,0.0,0.0,0.0,0.0,0.3777,0.3471,0.3125,0.2359,0.2201,0.2202,0.2202,0.2454,0.2565,0.2259,0.2093,0.1647,0.0615,0.0448,0.0336,0.0028,0.0,0.0,0.0,0.0,0.0,0.0,0.0,-0.014,-0.0448,-0.0854,-0.1322,-0.1782,-0.1878,-0.1996,-0.2108,-0.1208,-0.0769,-0.0759,-0.0249,0.0,0.0,0.0,0.0,-0.0031,-0.0534,-0.0949,-0.1392,-0.2441,-0.3638,-0.4837,-0.4974,-0.5236,-0.5535,-0.5566,-0.5393,-0.5156,0.0,0.0,0.0,0.0,0.0,0.0,0.0,0.502,0.4807,0.0,0.4791,0.4787,0.4685,0.493,0.5163,0.5359,0.5694,0.5945,0.6083,0.6397,0.6471,0.6244,0.6641,0.6623,0.6055,0.6139,0.5972,0.556,0.5386,0.505,0.4545,0.4311,0.3918,0.3366,0.0,0.0,0.0,0.0,0.065,0.0502,0.0172,0.0323,0.0708,0.0417,0.0299,0.0274,0.0266,0.0176,0.0029,0.0085,0.0769,0.161,0.1662,0.2636,0.3725,0.344,0.3691,0.0,0.0,0.0,0.0,0.432,0.4524,0.0,0.3879,0.3645,0.336,0.2605,0.2479,0.2518,0.2518,0.3075,0.3331,0.2671,0.3094,0.2968,0.1451,0.1146,0.0866,0.0196,0.0056,0.0,0.0,0.0,0.0,0.0,0.0,-0.028,-0.095,-0.1066,-0.1443,-0.2197,-0.1479,-0.111,-0.1167,-0.0392,0.0,0.0,0.0,0.0,0.0,0.0,0.0,0.0,0.0,-0.0429,-0.1164,-0.1169,-0.2286,-0.4005,-0.4144,-0.4676,-0.5412,-0.5549,-0.497,-0.4293,0.6847,0.0,0.0,0.0,0.0,0.0,0.0,0.4915,0.4499,0.496,0.4622,0.4229,0.394,0.421,0.4429,0.453,0.4992,0.531,0.5382,0.5667,0.5817,0.5817,0.6003,0.6182,0.6328,0.6131,0.5998,0.5898,0.5968,0.5608,0.482,0.4821,0.432,0.3373,0.0,0.0,0.0,0.0,0.0808,0.0734,0.0486,0.0397,0.04,0.0328,0.0204,0.0057,0.0057,0.0144,0.0294,0.0614,0.0813,0.1036,0.182,0.2219,0.2479,0.3016,0.342,0.3728,0.3885,0.4184,0.4548,0.4919,0.4969,0.0,0.4628,0.4673,0.4591,0.4001,0.418,0.4458,0.4458,0.4845,0.5073,0.4826,0.4761,0.4091,0.2249,0.148,0.1034,0.0895,0.0364,0.0,0.0,0.0,0.0,0.0,0.0,-0.0056,-0.0196,-0.0775,-0.0907,-0.0505,-0.0872,-0.0835,-0.026,-0.0097,0.0,0.0,0.0,0.0,0.0,0.0,0.0,0.0,0.0,-0.0089,-0.0268,-0.0244,-0.1726,-0.4011,-0.4035,-0.4581,-0.5399,-0.5429,-0.4828,-0.4092,0.6419,0.0,0.0,0.0,0.0,0.0,0.0,0.0,0.414,0.451,0.4045,0.362,0.3418,0.3763,0.3965,0.3856,0.4379,0.4736,0.4797,0.5212,0.5526,0.5695,0.5727,0.5793,0.5893,0.5804,0.5714,0.5649,0.5892,0.565,0.4996,0.4862,0.4424,0.3714,0.0,0.0,0.0,0.0,0.1136,0.1007,0.058,0.0362,0.0301,0.0175,0.0085,0.0,0.0,0.0057,0.0172,0.0374,0.0562,0.0765,0.1201,0.1553,0.1879,0.2247,0.2643,0.3002,0.3282,0.3587,0.3969,0.4468,0.4737,0.0,0.0,0.4993,0.5067,0.4562,0.4626,0.4803,0.4803,0.513,0.541,0.541,0.524,0.4848,0.4105,0.2638,0.1507,0.1146,0.0448,0.0,0.0,0.0,0.0,0.0,0.0,0.0,0.0,-0.0341,-0.0752,-0.1233,-0.1151,-0.1147,-0.1259,-0.0776,-0.0367,0.0,0.0,0.0,0.0,0.0,0.0,0.0,0.0,0.0,0.0,0.0,-0.1047,-0.2709,-0.317,-0.3915,-0.4762,-0.5233,-0.4519,-0.342,0.6155,0.0,0.0,0.0,0.0,0.0,0.0,0.0,0.3754,0.3823,0.3459,0.3099,0.2876,0.3254,0.3465,0.3389,0.3934,0.4315,0.4406,0.4862,0.5244,0.5474,0.5419,0.5385,0.5381,0.5452,0.5436,0.5316,0.5645,0.5547,0.5042,0.4713,0.4363,0.0,0.0,0.0,0.0,0.0,0.147,0.1209,0.0576,0.0359,0.0392,0.0174,0.0086,0.0057,0.0,0.0,0.0,0.0028,0.0283,0.0594,0.0562,0.0904,0.1349,0.1457,0.1744,0.2093,0.2422,0.2786,0.3221,0.3773,0.4295,0.4669,0.0,0.0,0.0,0.4693,0.471,0.4802,0.4819,0.5168,0.549,0.5598,0.5475,0.5458,0.5736,0.3891,0.2295,0.1667,0.0777,0.0196,0.0167,0.0168,0.0113,0.0,0.0085,0.0113,0.0,-0.014,-0.0765,-0.1974,-0.1434,-0.1396,-0.201,-0.1257,-0.0591,0.0,0.0,0.0,0.0,0.0,0.0,0.0,0.0,0.0,0.0,0.0,-0.0427,-0.1171,-0.227,-0.321,-0.4083,-0.4997,-0.4216,-0.2755,0.6017,0.57,0.0,0.0,0.0,0.0,0.0,0.0,0.3465,0.3243,0.3141,0.281,0.2032,0.2255,0.2708,0.3251,0.3862,0.4265,0.4393,0.4524,0.4626,0.4722,0.4651,0.4836,0.5295,0.5426,0.5468,0.5384,0.567,0.5462,0.4823,0.4554,0.4129,0.0,0.3182,0.0,0.0,0.0,0.167,0.1085,0.0647,0.0634,0.0793,0.0531,0.0367,0.0244,0.0059,0.0,0.003,0.0148,0.0205,0.0291,0.0594,0.0525,0.045,0.0927,0.1051,0.1175,0.1665,0.2236,0.2816,0.3472,0.4097,0.4517,0.4523,0.0,0.524,0.4709,0.0,0.5525,0.5641,0.0,0.0,0.637,0.6315,0.6119,0.5761,0.4545,0.3608,0.3338,0.1932,0.094,0.0806,0.0736,0.0521,0.0028,0.0432,0.0492,0.0028,-0.0615,-0.0756,-0.031,-0.081,-0.0824,-0.0296,-0.0182,-0.0091,0.0,0.0,0.0,0.0,0.0,0.0,0.0,0.0,0.0,0.0,0.0,-0.0056,-0.0312,-0.2021,-0.3151,-0.3935,-0.4817,-0.403,-0.2542,0.5146,0.5063,0.0,0.0,0.0,0.0,0.0,0.0,0.2958,0.2713,0.2623,0.2417,0.2028,0.2161,0.2457,0.0,0.3218,0.3416,0.3368,0.3676,0.3856,0.3852,0.3923,0.4129,0.4469,0.4839,0.4974,0.4868,0.5194,0.5132,0.4742,0.443,0.4117,0.0,0.3417,0.0,0.2344,0.0,0.1698,0.107,0.0798,0.0755,0.0854,0.0374,0.018,0.012,0.003,0.0,0.0,0.006,0.0179,0.0325,0.0303,0.0303,0.0358,0.0486,0.0569,0.0699,0.1119,0.1441,0.1888,0.2835,0.3441,0.3895,0.424,0.4677,0.4913,0.4649,0.0,0.0,0.0,0.0,0.0,0.0,0.605,0.5937,0.614,0.5128,0.4119,0.3503,0.2293,0.1319,0.0825,0.0501,0.0256,0.0028,0.0199,0.0228,0.0,-0.028,-0.0504,-0.0643,-0.0936,-0.0942,-0.0628,-0.0637,-0.0435,0.0,0.0,0.0,0.0,0.0,0.0,0.0,0.0,0.0,0.0,0.0,0.0,-0.0113,-0.1383,-0.2364,-0.3212,-0.4519,-0.4193,-0.3063,0.4161,0.0,0.0,0.0,0.0,0.0,0.0,0.2948,0.2717,0.249,0.2285,0.2106,0.1965,0.2056,0.2204,0.0,0.278,0.2851,0.2441,0.3005,0.3345,0.3304,0.3237,0.346,0.3932,0.4167,0.4246,0.4265,0.4584,0.4676,0.4501,0.4218,0.4021,0.0,0.0,0.3005,0.2506,0.0,0.1698,0.1231,0.0826,0.0649,0.0605,0.0218,0.006,0.0,0.0,0.0,0.0,0.0031,0.0185,0.0304,0.0126,0.0187,0.0332,0.0239,0.0266,0.0402,0.0744,0.0884,0.1214,0.2172,0.2704,0.3153,0.375,0.4176,0.4442,0.4423,0.4392,0.0,0.0,0.0,0.5461,0.5943,0.0,0.5719,0.6129,0.5343,0.4432,0.3729,0.2699,0.1759,0.106,0.0665,0.0396,0.0253,0.0226,0.0142,0.0,0.0,-0.0252,-0.0783,-0.0811,-0.0811,-0.0811,-0.0811,-0.0532,0.0,0.0,0.0,0.0,0.0,0.0,0.0,0.0,0.0,0.0,0.0,0.0,-0.0084,-0.0928,-0.1614,-0.2323,-0.3941,-0.4148,-0.3498,0.3227,0.3931,0.0,0.0,0.0,0.0,0.2652,0.2887,0.2962,0.263,0.2236,0.1883,0.1561,0.1637,0.1722,0.1739,0.2744,0.2973,0.1976,0.2739,0.3228,0.3287,0.2626,0.2834,0.4065,0.3483,0.3313,0.3641,0.396,0.4094,0.4023,0.3869,0.0,0.0,0.3166,0.3043,0.3011,0.2093,0.1697,0.1594,0.0679,0.0211,0.0062,0.0223,0.0161,0.0,0.0,0.0,0.0033,0.0163,0.0193,0.0192,0.0187,0.0189,0.0192,0.0187,0.0189,0.0252,0.0546,0.0755,0.1045,0.1588,0.1985,0.2388,0.2986,0.3506,0.386,0.3903,0.428,0.4637,0.4771,0.5082,0.5405,0.5755,0.5793,0.0,0.0,0.501,0.4663,0.457,0.3443,0.242,0.1826,0.1694,0.142,0.09,0.0809,0.0551,0.0028,0.0,0.0,-0.0028,-0.0028,-0.0028,-0.0028,-0.0028,-0.0028,0.0,0.0,0.0,0.0,0.0,0.0,0.0,0.0,0.0,0.0,0.0,0.0,-0.0084,-0.0812,-0.1115,-0.135,-0.3022,-0.3619,-0.3456,0.0,0.0,0.0,0.0,0.0,0.24,0.2116,0.2172,0.2352,0.2686,0.2606,0.2756,0.3304,0.2668,0.2363,0.2736,0.2896,0.2845,0.2447,0.295,0.3044,0.2543,0.2192,0.2157,0.2501,0.2782,0.3028,0.3256,0.355,0.3739,0.0,0.0,0.0,0.0,0.0,0.2838,0.0,0.0,0.1499,0.1425,0.0638,0.0248,0.0191,0.0126,0.0063,0.0,0.0,0.0,0.0,0.0065,0.0127,0.0188,0.0093,0.0121,0.0178,0.0092,0.0061,0.0121,0.03,0.0334,0.0489,0.12,0.144,0.174,0.2514,0.2829,0.3048,0.3431,0.3559,0.3722,0.4137,0.4359,0.4681,0.5181,0.494,0.4695,0.0,0.4132,0.3767,0.391,0.321,0.2578,0.2299,0.2035,0.1632,0.0952,0.0962,0.0708,0.0028,0.0,0.0,0.0,0.0,0.0,0.0,0.0,0.0,0.0,0.0,0.0,0.0,0.0,0.0,0.0,0.0,0.034,0.0868,0.0848,0.0857,0.0837,0.0573,-0.0151,-0.1296,-0.2824,-0.3494,-0.3496,0.1859,0.0,0.0,0.0,0.1968,0.1792,0.1633,0.1538,0.1774,0.2638,0.2733,0.3122,0.4232,0.3525,0.3087,0.3351,0.3299,0.2993,0.2492,0.317,0.3129,0.2109,0.2287,0.233,0.2223,0.2613,0.2995,0.3281,0.3343,0.3453,0.0,0.0,0.0,0.0,0.0,0.2809,0.2692,0.165,0.1377,0.1604,0.0607,0.0184,0.0187,0.0061,0.0032,0.01,0.0033,0.0,0.0,0.0,0.0063,0.0125,0.0031,0.006,0.0117,0.0031,0.0,0.0031,0.0092,0.0063,0.016,0.0747,0.0908,0.113,0.1932,0.2159,0.2294,0.2656,0.2812,0.2953,0.3128,0.3565,0.3961,0.4149,0.3991,0.3843,0.0,0.3332,0.3086,0.3451,0.3129,0.2906,0.296,0.2489,0.1942,0.1342,0.112,0.0728,0.0028,0.0,0.0,0.0,0.0,0.0,0.0,0.0,0.0,0.0,0.0,0.0,0.0,0.0,0.0,0.0028,0.034,0.0778,0.1323,0.1654,0.1799,0.1754,0.1416,0.0677,-0.0428,-0.1969,-0.2614,-0.2703,0.0797,0.1089,0.1442,0.1377,0.1137,0.1025,0.1249,0.1067,0.1315,0.2503,0.2604,0.304,0.4274,0.4027,0.3721,0.3584,0.3841,0.3463,0.2202,0.3377,0.3533,0.2161,0.2861,0.3275,0.3184,0.3021,0.3115,0.3574,0.3315,0.0,0.0,0.0,0.0,0.0,0.2607,0.0,0.3472,0.1635,0.1364,0.2022,0.0588,0.0,0.0,0.0,0.0127,0.0277,0.0064,0.0,0.0,0.0,0.0,0.0,0.0,0.0,0.0,0.0,0.0,0.0,0.0,0.0,0.0064,0.0344,0.0403,0.0558,0.1204,0.1479,0.1564,0.1649,0.2073,0.2298,0.189,0.271,0.3273,0.2756,0.302,0.3169,0.2776,0.2566,0.2658,0.3198,0.321,0.3359,0.3739,0.3055,0.2401,0.2009,0.1373,0.0701,0.0028,0.0,0.0,0.0,0.0,0.0,0.0,0.0,0.0,0.0,0.0,0.0,0.0,0.0,0.0,0.0056,0.0926,0.1321,0.1448,0.2377,0.2745,0.2685,0.1728,0.1293,0.101,-0.0535,-0.111,-0.1231,0.0122,-0.017,-0.0025,0.0681,0.0466,0.0388,0.1053,0.0923,0.1054,0.1935,0.2069,0.2723,0.4445,0.3828,0.3588,0.4341,0.4375,0.4179,0.3674,0.4169,0.4174,0.3524,0.335,0.3275,0.3184,0.3054,0.308,0.329,0.3024,0.0,0.2923,0.0,0.0,0.0,0.0,0.27,0.3298,0.2237,0.1666,0.1438,0.0412,0.009,0.0214,0.0061,0.0128,0.0271,0.0065,0.0,0.0,0.0,0.0,0.0,0.0,0.0,0.0,0.0,0.0,0.0,0.0,0.0,0.0067,0.0264,0.033,0.0426,0.0802,0.092,0.1003,0.1223,0.1358,0.1538,0.1748,0.228,0.2615,0.2375,0.2106,0.1825,0.1566,0.1742,0.2061,0.2505,0.2933,0.3307,0.3623,0.353,0.3013,0.1925,0.2097,0.1593,0.0084,0.0196,0.0196,0.0,0.0,0.0,0.0,0.0,0.0,0.0,0.0,0.0,0.0,0.0,0.0,0.0056,0.0819,0.16,0.2404,0.318,0.3588,0.3563,0.2686,0.1174,-0.0536,-0.1059,-0.1192,-0.1143,-0.0422,-0.0948,-0.0897,0.0234,0.0364,0.0437,0.0891,0.0306,0.0251,0.1394,0.1463,0.2224,0.4284,0.4084,0.4185,0.5176,0.5196,0.4964,0.452,0.4847,0.4652,0.3721,0.4039,0.3994,0.3486,0.3564,0.3569,0.3462,0.3121,0.2868,0.2704,0.0,0.0,0.0,0.0,0.2532,0.2915,0.2116,0.1469,0.095,0.0276,0.0062,0.0,0.0031,0.0063,0.0162,0.0032,0.0,0.0,0.0,0.0,0.0,0.0,0.0,0.0,0.0,0.0,0.0,0.0,0.0,0.0034,0.0135,0.0169,0.0235,0.0463,0.0489,0.0548,0.0706,0.0837,0.0931,0.1016,0.158,0.1975,0.1757,0.1346,0.1012,0.0943,0.1009,0.136,0.2128,0.2269,0.2537,0.3064,0.3534,0.3284,0.2065,0.2432,0.2012,0.0392,0.0449,0.0393,0.0084,0.0028,0.0,0.0,0.0,0.0,0.0,0.0,0.0,0.0,0.0,0.0,0.0056,0.1221,0.2085,0.2801,0.3895,0.4469,0.4499,0.32,0.1335,-0.0635,-0.0705,-0.0895,-0.1117,-0.0706,-0.1375,-0.1363,-0.0091,0.0365,0.0605,0.0682,-0.0219,-0.0412,0.1053,0.0922,0.1585,0.3899,0.4376,0.4936,0.5957,0.6016,0.571,0.5074,0.5396,0.4994,0.3665,0.4742,0.4938,0.4006,0.4227,0.4175,0.3781,0.3319,0.2928,0.0,0.0,0.0,0.0,0.0,0.0,0.0,0.1743,0.1155,0.0645,0.0194,0.0,0.0,0.0,0.0,0.0,0.0,0.0,0.0,0.0,0.0,0.0,0.0,0.0,0.0,0.0,0.0,0.0,0.0,0.0,0.0,0.0,0.0,0.0034,0.0235,0.023,0.0195,0.0233,0.0451,0.0501,0.0096,0.0798,0.1371,0.1248,0.092,0.0754,0.0924,0.0806,0.1052,0.1967,0.1721,0.0,0.2291,0.3128,0.3218,0.2206,0.2432,0.2068,0.0729,0.0673,0.0533,0.0196,0.0058,0.0,0.0,0.0,0.0,0.0,0.0,0.0,0.0,0.0,0.0,0.0084,0.1757,0.2552,0.2785,0.4391,0.5024,0.4854,0.3272,0.1534,-0.014,-0.0028,-0.0456,-0.1076,-0.0334,-0.1368,-0.1776,-0.0454,-0.0444,-0.043,0.0081,0.0644,0.1149,0.1491,0.0733,0.1002,0.3248,0.3437,0.4192,0.6238,0.6173,0.5942,0.5804,0.5668,0.5486,0.5202,0.5153,0.5059,0.4874,0.4412,0.3988,0.3628,0.3282,0.2884,0.2525,0.2576,0.0,0.0,0.0,0.0,0.2459,0.1887,0.1457,0.1095,0.0323,0.0,0.0,0.0,0.0,0.0,0.0,0.0,0.0,0.0,0.0,0.0,0.0,0.0,0.0,0.0,0.0,0.0,0.0,0.0,0.0,0.0,0.0,0.0,0.0033,0.0032,0.0032,0.0065,0.0097,0.0128,0.0161,0.0307,0.0754,0.169,0.1476,0.1442,0.223,0.2645,0.2647,0.2083,0.2473,0.2436,0.1602,0.2256,0.2447,0.1761,0.2069,0.1764,0.0505,0.0617,0.0505,0.0056,0.0,0.0,0.0,0.0,0.0,0.0,0.0,0.0,0.0,0.0,0.0,0.0084,0.1601,0.2352,0.2663,0.4163,0.4065,0.297,0.2672,0.1126,-0.0838,-0.0224,-0.0478,-0.1018,-0.0964,-0.199,-0.2436,-0.1227,-0.0601,0.0,0.0735,0.1304,0.1374,0.0666,0.0043,0.0303,0.2006,0.2786,0.3861,0.5431,0.5986,0.6193,0.6003,0.5823,0.5667,0.5593,0.5372,0.5213,0.51,0.4778,0.4272,0.3589,0.3422,0.3021,0.2397,0.2401,0.2319,0.2178,0.0,0.1909,0.2104,0.1301,0.0976,0.0874,0.0266,0.0,0.0,0.0,0.0,0.0,0.0,0.0,0.0,0.0,0.0,0.0,0.0,0.0,0.0,0.0,0.0,0.0,0.0,0.0,0.0,0.0,0.0,0.0,0.0,0.0,0.0,0.0,0.0,0.0033,0.0162,0.0187,0.0538,0.1529,0.1499,0.163,0.2486,0.2316,0.206,0.1922,0.1605,0.1253,0.087,0.1121,0.1484,0.1874,0.2099,0.1875,0.1176,0.0925,0.0589,0.0112,0.0029,0.0,0.0,0.0,0.0,0.0,0.0,0.0,0.0,0.0,0.0,0.0084,0.1563,0.2303,0.2613,0.4177,0.3897,0.2492,0.2492,0.1265,-0.0476,-0.014,-0.0227,-0.0489,-0.1343,-0.2288,-0.272,-0.1654,-0.0514,0.0441,0.1078,0.1321,0.109,0.0132,-0.0311,-0.0089,0.118,0.2518,0.3707,0.4666,0.5777,0.6315,0.601,0.5884,0.5739,0.5596,0.5477,0.532,0.5103,0.5069,0.4624,0.3756,0.3677,0.323,0.2479,0.2263,0.2092,0.1876,0.1462,0.1386,0.1492,0.0709,0.0419,0.0451,0.0136,0.0,0.0,0.0,0.0,0.0,0.0,0.0,0.0,0.0,0.0,0.0,0.0,0.0,0.0,0.0,0.0,0.0,0.0,0.0,0.0,0.0,0.0,0.0,0.0,0.0,0.0,0.0,0.0,0.0033,0.013,0.0159,0.0498,0.1506,0.1681,0.1939,0.2709,0.2085,0.1596,0.1688,0.075,0.017,0.0312,0.0253,0.0646,0.1725,0.1967,0.1903,0.1483,0.1156,0.0737,0.017,0.0058,0.0,0.0,0.0,0.0,0.0,0.0,0.0,0.0,0.0,0.0,0.0084,0.1396,0.2236,0.2791,0.4234,0.3873,0.2433,0.2433,0.1445,0.0,0.0,0.0,0.0,-0.0445,-0.1444,-0.1948,-0.0888,-0.0498,-0.0322,-0.0231,0.0,0.045,0.1295,0.0538,0.0404,0.1607,0.2673,0.3731,0.4772,0.575,0.621,0.6003,0.5884,0.5739,0.5596,0.5477,0.532,0.5103,0.4975,0.4728,0.4323,0.3885,0.3466,0.3025,0.2384,0.1921,0.1546,0.1511,0.1203,0.0691,0.0602,0.038,0.0068,0.0,0.0,0.0,0.0,0.0,0.0,0.0,0.0,0.0,0.0,0.0,0.0,0.0,0.0,0.0,0.0,0.0,0.0,0.0,0.0,0.0,0.0,0.0,0.0,0.0,0.0,0.0,0.0,0.0,0.0,0.0032,0.0033,0.0595,0.2302,0.2564,0.2869,0.3737,0.3774,0.3109,0.1536,0.1223,0.0877,0.0117,0.0143,0.0312,0.0554,0.1251,0.1287,0.0392,0.0922,0.0878,0.0059,0.0,0.0,0.0,0.0,0.0,0.0,0.0,0.0,0.0,0.0,0.0,0.0056,0.0866,0.1984,0.3304,0.4188,0.363,0.2227,0.2227,0.1318,0.0,0.0,0.0,0.0,0.0175,-0.121,-0.2107,-0.1252,-0.103,-0.08,-0.0235,-0.0092,0.0135,0.0592,0.0271,0.0179,0.0661,0.2378,0.359,0.379,0.5476,0.6424,0.6183,0.6023,0.5871,0.5725,0.5576,0.546,0.5274,0.5213,0.499,0.4535,0.4064,0.3593,0.3165,0.2972,0.2962,0.3024,0.2049,0.1564,0.1384,0.0588,0.0136,0.0,0.0,0.0,0.0,0.0,0.0,0.0,0.0,0.0,0.0,0.0,0.0,0.0,0.0,0.0,0.0,0.0,0.0,0.0,0.0,0.0,0.0,0.0,0.0,0.0,0.0,0.0,0.0,0.0,0.0,0.0,0.0,-0.0066,0.0493,0.24,0.2618,0.2919,0.3872,0.3542,0.2741,0.1448,0.0766,0.0259,-0.0088,-0.0143,-0.0143,-0.009,0.0519,0.0621,0.0058,0.0409,0.0353,-0.0294,-0.0118,0.0,0.0,0.0,0.0,0.0,0.0,0.0,0.0,0.0,0.0233,0.0683,0.0978,0.2012,0.3455,0.3213,0.284,0.2319,0.1773,0.0921,0.0,0.0,0.0,0.0,0.0965,-0.0417,-0.1357,-0.1045,-0.0995,-0.0755,-0.0094,0.0,0.0,0.0,0.0,0.0,0.0,0.2153,0.3457,0.3131,0.5328,0.6556,0.6213,0.6132,0.5989,0.5749,0.5684,0.5593,0.5399,0.5395,0.5209,0.4831,0.4328,0.3955,0.3618,0.3499,0.3585,0.3734,0.2579,0.199,0.1744,0.0782,0.0236,0.0,0.0,0.0,0.0,0.0,0.0,0.0,0.0,0.0,0.0,0.0,0.0,0.0,0.0,0.0,0.0,0.0,0.0,0.0,0.0,0.0,0.0,0.0,0.0,0.0,0.0,0.0,0.0,0.0,0.0,0.0,0.0,-0.0066,0.0394,0.2036,0.2205,0.2386,0.3103,0.2679,0.1794,0.0441,-0.0299,-0.073,-0.0783,-0.0822,-0.0734,-0.0492,0.0,0.0172,-0.0117,0.0237,0.0208,-0.0324,-0.0119,0.0,0.0,0.0,0.0,0.0,0.0,0.0,0.0,0.0,0.0272,0.0801,0.1016,0.1783,0.282,0.2398,0.215,0.2022,0.137,0.0643,0.0,0.0,0.0,0.0,0.1985,0.1359,0.076,0.0095,0.0,0.0,0.0,0.0,0.0,0.0,0.0,0.0,0.0,0.2169,0.3447,0.3128,0.5328,0.6508,0.6023,0.6173,0.6098,0.561,0.5725,0.5661,0.5402,0.5395,0.5395,0.5399,0.4862,0.4578,0.4581,0.3915,0.338,0.3011,0.3002,0.2374,0.129,0.1289,0.0772,0.0,0.0,0.0,0.0,0.0,0.0,0.0,0.0,0.0,0.0,0.0,0.0,0.0,0.0,0.0,0.0,0.0,0.0,0.0,0.0,0.0,0.0,0.0,0.0,0.0,0.0,0.0,0.0,0.0,0.0,0.0,0.0,0.0,0.0303,0.1173,0.1307,0.1307,0.134,0.131,0.044,-0.1891,-0.2002,-0.1954,-0.217,-0.1996,-0.1566,-0.0741,-0.027,-0.0059,-0.0206,0.0605,0.0759,0.0029,0.0,0.0,0.0,0.0,0.0,0.0,0.0,0.0,0.0,0.0,0.0,0.0062,0.077,0.1108,0.12,0.1905,0.1783,0.1126,0.1094,0.0644,0.0,0.0,0.0,0.0,0.4318,0.278,0.1491,0.1259,0.0557,0.0,0.0,0.0,0.0,0.0,0.0,0.0284,0.0994,0.2478,0.3326,0.3133,0.5202,0.6444,0.6203,0.6135,0.5993,0.5745,0.5684,0.5597,0.5399,0.5395,0.5395,0.5395,0.4859,0.4687,0.4802,0.4439,0.4456,0.4731,0.4017,0.3153,0.2204,0.158,0.0806,0.0,0.0,0.0,0.0,0.0,0.0,0.0,0.0,0.0,0.0,0.0,0.0,0.0,0.0,0.0,0.0,0.0,0.0,0.0,0.0,0.0,0.0,0.0,0.0,0.0,0.0,0.0,0.0,0.0,0.0,0.0,0.0,0.0,0.0294,0.1142,0.1315,0.1298,0.1298,0.1315,0.0811,-0.0551,-0.0651,-0.0643,-0.0694,-0.0647,-0.0868,-0.1462,-0.1495,-0.1332,-0.0911,-0.0092,0.0123,-0.0335,-0.0123,0.0,0.0,0.0,0.0,0.0,0.0,0.0,0.0,0.0,0.0,0.0,0.0262,0.0687,0.1208,0.0851,0.0898,0.119,0.0569,0.0202,0.0,0.0,0.0,0.0,0.5496,0.3824,0.2325,0.187,0.0823,0.0,0.0,0.0,0.0,0.0,0.0367,0.0871,0.1539,0.2931,0.3792,0.372,0.5424,0.6453,0.631,0.6115,0.5925,0.581,0.5664,0.5552,0.5399,0.5395,0.5395,0.5395,0.5082,0.4958,0.5072,0.5007,0.5177,0.5504,0.4928,0.3956,0.2679,0.2132,0.1152,0.0,0.0,0.0,0.0,0.0,0.0,0.0,0.0,0.0,0.0,0.0,0.0,0.0,0.0,0.0,0.0,0.0,0.0,0.0,0.0,0.0,0.0,0.0,0.0,0.0,0.0,0.0,0.0,0.0,0.0,0.0,0.0,0.0,0.0163,0.0711,0.0825,0.0811,0.0803,0.081,0.0415,-0.0697,-0.0769,-0.0731,-0.0805,-0.0772,-0.0846,-0.1147,-0.1292,-0.13,-0.1181,-0.0937,-0.0659,-0.0334,-0.0124,0.0,0.0,0.0,0.0,0.0,0.0,0.0,0.0,0.0,0.0,0.0,0.0,0.031,0.0785,0.0207,0.0315,0.0744,0.021,0.0,0.0,0.0,0.0,0.0,0.5714,0.4501,0.3253,0.2142,0.0849,0.0,0.0,0.0,0.0,0.0,0.0928,0.1621,0.1697,0.3486,0.4727,0.4805,0.5856,0.6443,0.631,0.6115,0.5925,0.581,0.5674,0.5562,0.5399,0.5416,0.5426,0.5426,0.5405,0.5399,0.5416,0.5556,0.5549,0.5423,0.5594,0.4574,0.2723,0.2756,0.1717,0.0,0.0,0.0,0.0,0.0067,0.0067,0.0,0.0068,0.0068,0.0,0.0,0.0,0.0,0.0,0.0,0.0,0.0,0.0,0.0,0.0,0.0,0.0,0.0,0.0,0.0,0.0,0.0,0.0,0.0,0.0,0.0,0.0,0.0,0.0,0.0,0.0,0.0,0.0,0.0,-0.0511,-0.1872,-0.1873,-0.1841,-0.2022,-0.1885,-0.1315,-0.0209,-0.0156,-0.0472,-0.1219,-0.1894,-0.1615,-0.0119,-0.0094,-0.0065,0.0,0.0,0.0,0.0,0.0,0.0,0.0,0.0,0.0,0.0,0.0,0.0,0.0,0.0,0.0,0.0,0.0,0.0,0.0,0.0,0.0,0.0,0.6738,0.5024,0.349,0.323,0.1423,0.0,0.0,0.0,0.0,0.0,0.0919,0.1884,0.2678,0.3919,0.504,0.5867,0.6171,0.6334,0.6303,0.6115,0.5925,0.581,0.5769,0.563,0.5399,0.5617,0.5698,0.5698,0.5504,0.5453,0.5538,0.5572,0.5569,0.5538,0.4868,0.395,0.2797,0.2009,0.1014,0.0,0.0,0.0,0.0067,0.0739,0.0572,0.0101,0.0757,0.0555,0.0,0.0,0.0,0.0,0.0,0.0,0.0,0.0,0.0,0.0,0.0,0.0,0.0,0.0,0.0,0.0,0.0,0.0,0.0,0.0,0.0,0.0,0.0,0.0,0.0,0.0,0.0,0.0,0.0,0.0,-0.0119,-0.0465,-0.0464,-0.0462,-0.0524,-0.0486,-0.0738,-0.1395,-0.1581,-0.1964,-0.2664,-0.3006,-0.246,-0.0886,-0.0948,-0.0684,0.0,0.0,0.0,0.0,0.0,0.0,0.0,0.0,0.0,0.0,0.0,0.0,0.0,0.0,0.0,0.0,0.0,0.0,0.0,0.0,0.0,0.0,0.7011,0.5147,0.3583,0.3505,0.1566,0.0,0.0,0.0,0.0162,0.0681,0.1713,0.2821,0.3812,0.493,0.5824,0.6363,0.6337,0.63,0.63,0.6115,0.5956,0.5908,0.5837,0.5725,0.56,0.5718,0.58,0.58,0.564,0.5603,0.5688,0.5759,0.5752,0.5652,0.4819,0.3844,0.2838,0.1866,0.089,0.0,0.0,0.0,0.0101,0.0973,0.1049,0.0789,0.1147,0.1058,0.0643,0.0181,0.0,0.0,0.0,0.0,0.0,0.0,0.0,0.0,0.0,0.0,0.0,0.0,0.0,0.0,0.0,0.0,0.0,0.0,0.0,0.0,0.0,0.0,0.0,0.0,-0.054,-0.0725,-0.0091,-0.0555,-0.072,-0.0063,0.0,0.0,0.0,0.0,-0.0286,-0.0986,-0.115,-0.1695,-0.2806,-0.3047,-0.2547,-0.1219,-0.1268,-0.0866,0.0,0.0,0.0,0.0,0.0,0.0,0.0,0.0,0.0,0.0,0.0,0.0,0.0,0.0,0.0,0.0,0.0,0.0,0.0,0.0,0.0,0.0,0.6681,0.5033,0.3528,0.3197,0.1549,0.0208,0.0041,0.0,0.0404,0.1469,0.2655,0.3784,0.4801,0.6002,0.6647,0.6559,0.6436,0.6347,0.6303,0.6159,0.6037,0.5993,0.5928,0.585,0.5803,0.58,0.5823,0.5871,0.5823,0.5813,0.5837,0.5932,0.5848,0.5584,0.4813,0.3789,0.2646,0.1732,0.0838,0.0,0.0,0.0,0.0101,0.1146,0.1574,0.1609,0.1726,0.1721,0.1464,0.0552,0.0147,0.0,0.0,0.0,0.0,0.0,0.0,0.0,0.0,0.0,0.0,0.0,0.0,0.0,0.0,0.0,0.0,0.0,0.0,0.0,0.0,0.0,-0.0067,-0.0287,-0.113,-0.1441,-0.0463,-0.1155,-0.1325,-0.0131,0.0,0.0,0.0,0.0,0.0,0.0,-0.0134,-0.0929,-0.247,-0.2808,-0.2609,-0.1764,-0.1581,-0.1019,0.0,-0.0137,-0.0203,-0.0202,-0.0202,-0.0202,-0.0202,-0.0069,0.0,0.0,0.0,0.0,0.0,0.0,0.0,0.0,0.0,0.0,0.0,0.0,0.0,0.0,0.5648,0.4515,0.3269,0.223,0.1774,0.1181,0.0163,0.0,0.0409,0.1616,0.2704,0.3831,0.495,0.6057,0.6692,0.6668,0.6644,0.6525,0.6317,0.6388,0.6291,0.6003,0.6132,0.6105,0.5806,0.58,0.5928,0.6228,0.5928,0.5867,0.5956,0.5983,0.5526,0.4678,0.3761,0.279,0.1742,0.0674,0.0139,0.0,0.0,0.0,0.0203,0.1961,0.2226,0.1827,0.3408,0.295,0.1582,0.1424,0.0765,0.0,0.0,0.0,0.0,0.0,0.0,0.0,0.0,0.0,0.0,0.0,0.0,0.0,0.0,0.0,0.0,0.0,0.0,0.0,0.0,0.0,-0.0375,-0.1585,-0.0948,-0.0665,-0.1643,-0.0941,-0.0231,-0.0034,0.0,0.0,0.0,0.0,0.0,0.0,-0.0843,-0.1782,-0.2797,-0.3708,-0.4082,-0.3766,-0.2915,-0.168,0.0,-0.0724,-0.1099,-0.1106,-0.1106,-0.1106,-0.1074,-0.0346,0.0,0.0,0.0,0.0,0.0,0.0,0.0,0.0,0.0,0.0,0.0,0.0,0.0,0.0,0.4401,0.3368,0.2419,0.1805,0.1194,0.0653,0.0083,0.0,0.0668,0.251,0.3274,0.4311,0.6121,0.6221,0.6325,0.6857,0.6374,0.6132,0.6475,0.6521,0.645,0.6274,0.6303,0.6231,0.6088,0.6085,0.6156,0.63,0.6156,0.6084,0.6152,0.5574,0.5033,0.4552,0.2974,0.2021,0.1523,0.0454,0.0,0.0,0.0,0.0,0.0138,0.152,0.2195,0.2522,0.3326,0.3116,0.2311,0.1795,0.0888,0.0,0.0,0.0,0.0,0.0,0.0,0.0,0.0,0.0,0.0,0.0,0.0,0.0,0.0,0.0,0.0,0.0,0.0,0.0,0.0,0.0,-0.0208,-0.0852,-0.1049,-0.1076,-0.0995,-0.1061,-0.0853,-0.0073,0.0,0.0,0.0,0.0,0.0,0.0,-0.0979,-0.1973,-0.2866,-0.383,-0.4359,-0.4349,-0.3366,-0.2141,-0.0706,-0.1688,-0.2134,-0.2043,-0.153,-0.1292,-0.1276,-0.0386,0.0,0.0,0.0,0.0,0.0,0.0,0.0,0.0,0.0,0.0,0.0,0.0,0.0,0.0,0.3151,0.2325,0.1658,0.1312,0.0793,0.0333,0.0043,0.0256,0.1249,0.3354,0.3993,0.5056,0.7224,0.6636,0.635,0.7118,0.6385,0.611,0.6736,0.6419,0.6263,0.6474,0.6375,0.63,0.63,0.63,0.63,0.63,0.63,0.6163,0.5893,0.5073,0.4434,0.3917,0.2308,0.1449,0.1188,0.0348,0.0,0.0,0.0,0.0,0.0107,0.1018,0.2078,0.3135,0.3264,0.3385,0.3318,0.2308,0.1239,0.0342,0.0074,0.0,0.0,0.0,0.0,0.0,0.0,0.0,0.0,0.0,0.0,0.0,0.0,0.0,0.0,0.0,0.0,0.0,0.0,0.0,-0.0107,-0.0432,-0.1121,-0.1341,-0.0577,-0.1141,-0.12,-0.0113,0.0,0.0,0.0,0.0,0.0,0.0,-0.1011,-0.1997,-0.2881,-0.3806,-0.4388,-0.4491,-0.3445,-0.2521,-0.1692,-0.2676,-0.3161,-0.3042,-0.2364,-0.191,-0.1592,-0.0752,-0.0221,0.0,0.0,0.0,0.0,0.0,0.0,0.0,0.0,0.0,0.0,0.0,0.0,0.0,0.192,0.1873,0.1462,0.0305,0.0995,0.1305,0.0178,0.1071,0.2305,0.3613,0.4859,0.6142,0.7439,0.7486,0.7426,0.7366,0.7307,0.7192,0.7075,0.5893,0.558,0.6478,0.6375,0.63,0.63,0.63,0.63,0.63,0.63,0.5797,0.4833,0.4718,0.3688,0.1822,0.1673,0.1042,0.0106,0.0036,0.0,0.0,0.0,0.0,0.0109,0.1157,0.2223,0.3217,0.4214,0.4564,0.4414,0.3357,0.2305,0.1324,0.0304,0.0,0.0,0.0,0.0,0.0,0.0,0.0,0.0,0.0,0.0,0.0,0.0,0.0,0.0,0.0,0.0,0.0,0.0,0.0,-0.0443,-0.1734,-0.0936,-0.0591,-0.1774,-0.0899,-0.0111,0.0,0.0,0.0,0.0,0.0,0.0,0.0,-0.0976,-0.2024,-0.3029,-0.4071,-0.4596,-0.4499,-0.3445,-0.2865,-0.2783,-0.3643,-0.4108,-0.4107,-0.4212,-0.367,-0.2578,-0.1839,-0.0943,0.0,0.0,0.0,0.0,0.0,0.0,0.0,0.0,0.0,0.0,0.0,0.0,0.0,0.0837,0.0704,0.0527,0.0087,0.0391,0.0525,0.009,0.1133,0.2442,0.3737,0.5081,0.6404,0.7712,0.6375,0.5638,0.6356,0.4904,0.4199,0.4868,0.4474,0.4513,0.5356,0.5341,0.5628,0.63,0.63,0.63,0.63,0.63,0.6073,0.5669,0.501,0.3918,0.2493,0.1861,0.0992,0.0,0.0,0.0,0.0,0.0,0.0,0.0037,0.046,0.166,0.3165,0.3542,0.4139,0.453,0.3474,0.2425,0.1405,0.0343,0.0,0.0,0.0,0.0,0.0,0.0,0.0,0.0,0.0,0.0,0.0,0.0,0.0,0.0,0.0,0.0,0.0,0.0,0.0,-0.0189,-0.0702,-0.0339,-0.0185,-0.074,-0.0343,0.0,0.0,0.0,0.0,0.0,0.0,0.0,0.0,-0.098,-0.2035,-0.3046,-0.4766,-0.5578,-0.53,-0.4895,-0.4336,-0.3605,-0.398,-0.4156,-0.4047,-0.3021,-0.2273,-0.1792,-0.0983,-0.0384,0.0,0.0,0.0,0.0,0.0,0.0,0.0,0.0,0.0,0.0,0.0,0.0,0.0,0.0176,0.0,0.0,0.0,0.0,0.0,0.0,0.1519,0.2955,0.3873,0.555,0.6984,0.7875,0.596,0.4967,0.5715,0.3745,0.276,0.3532,0.3243,0.3406,0.4235,0.455,0.504,0.5786,0.6141,0.63,0.63,0.63,0.6118,0.5797,0.506,0.4118,0.3057,0.233,0.143,0.051,0.0437,0.0256,0.0,0.0,0.0,0.0,0.0,0.1292,0.3085,0.3085,0.4021,0.5002,0.3591,0.2657,0.1835,0.0423,0.0,0.0,0.0,0.0,0.0,0.0,0.0,0.0,0.0,0.0,0.0,0.0,0.0,0.0,0.0,0.0,0.0,0.0,0.0,0.0,0.0,0.0,0.0,0.0,0.0,0.0,0.0,0.0,0.0,0.0,0.0,0.0,0.0,-0.098,-0.2192,-0.3515,-0.5315,-0.618,-0.5881,-0.5874,-0.5283,-0.4091,-0.4171,-0.419,-0.4148,-0.2616,-0.1658,-0.129,-0.0731,-0.0311,0.0,0.0,0.0,0.0,0.0,0.0,0.0,0.0,0.0,0.0,0.0,0.0,0.0,0.0,0.0,0.0,0.0,0.0,0.0,0.0,0.2299,0.4016,0.3999,0.6355,0.7988,0.7988,0.6783,0.5934,0.582,0.4558,0.3731,0.3578,0.2438,0.2267,0.3318,0.4193,0.4686,0.4688,0.5747,0.6296,0.63,0.6296,0.5752,0.4707,0.4707,0.4126,0.3119,0.2968,0.241,0.16,0.1382,0.0813,0.0,0.0,0.0,0.0,0.0,0.1292,0.3085,0.3085,0.4491,0.5983,0.3826,0.3124,0.2734,0.0666,0.0,0.0,0.0,0.0,0.0,0.0,0.0,0.0,0.0,0.0,0.0,0.0,0.0,0.0,0.0,0.0,0.0,0.0,0.0,0.0,0.0,0.0,0.0,0.0,0.0,0.0,0.0,0.0,0.0,0.0,0.0,0.0,0.0,-0.102,-0.2504,-0.4569,-0.5709,-0.6228,-0.6,-0.5993,-0.5436,-0.4215,-0.4212,-0.4301,-0.4477,-0.3511,-0.2432,-0.1285,-0.1512,-0.102,0.0,0.0,0.0,0.0,0.0,0.0,0.0,0.0,0.0,0.0,0.0,0.0,0.0,0.0,0.0,0.0,0.0,0.0,0.027,0.1129,0.2835,0.4281,0.5163,0.6844,0.7988,0.7988,0.5974,0.4585,0.4551,0.2451,0.1109,0.1076,0.0735,0.0674,0.099,0.1964,0.3205,0.4686,0.4917,0.5454,0.63,0.6152,0.5921,0.5613,0.5613,0.4981,0.3883,0.3817,0.3312,0.2463,0.1643,0.1213,0.1048,0.0313,0.0,0.0,0.0,0.1292,0.3085,0.3085,0.4491,0.6103,0.4686,0.3709,0.2734,0.0666,0.0,0.0,0.0,0.0,0.0,0.0,0.0,0.0,0.0,0.0,0.0,0.0,0.0,0.0,0.0,0.0,0.0,0.0,0.0,0.0,0.0,0.0,0.0,0.0,0.0,0.0,0.0,0.0,0.0,0.0,0.0,0.0,0.0,-0.1643,-0.3242,-0.4611,-0.5709,-0.6279,-0.6193,-0.6088,-0.5526,-0.4551,-0.3722,-0.2957,-0.2262,-0.1355,-0.0742,-0.0388,-0.0438,-0.0319,0.0,0.0,0.0,0.0,0.0,0.0,0.0,0.0,0.0,0.0,0.0,0.0,0.0,0.0,0.0,0.0,0.0,0.0401,0.0941,0.17,0.347,0.498,0.569,0.7064,0.7789,0.7285,0.527,0.3788,0.3231,0.1234,0.0,0.0,0.0,0.0,0.0,0.0628,0.1762,0.3439,0.4156,0.4879,0.567,0.5875,0.6023,0.6122,0.6122,0.5701,0.4902,0.4902,0.4161,0.2864,0.2203,0.1557,0.0901,0.0272,0.0,0.0,0.0,0.1051,0.2546,0.2958,0.4192,0.5558,0.4905,0.3711,0.2268,0.1019,0.0353,0.0,0.0,0.0,0.0,0.0,0.0,0.0,0.0,0.0,0.0,0.0,0.0,0.0,0.0,0.0,0.0,0.0,0.0,0.0,0.0,0.0,0.0,0.0,0.0,0.0,0.0,0.0,0.0,0.0,0.0,-0.0322,-0.1153,-0.2458,-0.3826,-0.5237,-0.5996,-0.6358,-0.6303,-0.6169,-0.5466,-0.4098,-0.335,-0.2448,-0.1419,-0.0468,0.0,0.0,0.0,0.0,0.0,0.0,0.0,0.0,0.0,0.0,0.0,0.0,0.0,0.0,0.0,0.0,0.0,0.0,0.0,0.0045,0.0135,0.1076,0.1879,0.2103,0.4206,0.5832,0.5926,0.7164,0.7487,0.6129,0.4814,0.348,0.2101,0.0788,0.0,0.0,0.0,0.0,0.0,0.0,0.0471,0.145,0.3349,0.4447,0.4688,0.5544,0.6067,0.6259,0.6245,0.6125,0.5952,0.5939,0.4867,0.3051,0.2936,0.1834,0.0118,0.0038,0.0,0.0,0.0,0.0658,0.1748,0.2752,0.3772,0.4701,0.4691,0.3363,0.1723,0.1646,0.0863,0.0,0.0,0.0,0.0,0.0,0.0,0.0,0.0,0.0,0.0,0.0,0.0,0.0,0.0,0.0,0.0,0.0,0.0,0.0,0.0,0.0,0.0,0.0,0.0,0.0,0.0,0.0,0.0,0.0,0.0,-0.0833,-0.2805,-0.3248,-0.4223,-0.6071,-0.638,-0.6467,-0.6323,-0.633,-0.5302,-0.3134,-0.31,-0.2552,-0.145,-0.0471,0.0,0.0,0.0,0.0,0.0,0.0,0.0,0.0,0.0,0.0,0.0,0.0,0.0,0.0,0.0,0.0,0.0,0.0,0.0,0.0314,0.1254,0.1612,0.2415,0.4332,0.5269,0.6117,0.7073,0.766,0.7487,0.6129,0.481,0.3465,0.2109,0.0772,0.0,0.0,0.0,0.0,0.0,0.0,0.0118,0.0353,0.2136,0.3626,0.4688,0.5355,0.5759,0.5898,0.5786,0.5718,0.5681,0.5559,0.5021,0.4096,0.3154,0.217,0.1176,0.0351,0.0,0.0,0.0,0.0665,0.175,0.273,0.3775,0.4694,0.4717,0.3826,0.2618,0.1841,0.0863,0.0,0.0,0.0,0.0,0.0,0.0,0.0,0.0,0.0,0.0,0.0,0.0,0.0,0.0,0.0,0.0,0.0,0.0,0.0,0.0,0.0,0.0,0.0,0.0,0.0,0.0,0.0,0.0,0.0,0.0,-0.0545,-0.1831,-0.2785,-0.3859,-0.5123,-0.6138,-0.6583,-0.647,-0.6542,-0.5479,-0.3132,-0.3272,-0.2312,-0.0353,-0.0118,0.0,0.0,0.0,0.0,0.0,0.0,0.0,0.0,0.0,0.0,0.0,0.0,0.0,0.0,0.0,0.0,0.0,0.0,0.0,0.0359,0.1567,0.2281,0.3261,0.5134,0.6104,0.6857,0.7452,0.7746,0.7162,0.5189,0.4315,0.3111,0.1222,0.0404,0.0,0.0,0.0,0.0,0.0,0.0,0.0,0.0,0.1322,0.2673,0.3943,0.5166,0.5874,0.602,0.5982,0.5871,0.576,0.5284,0.4573,0.3686,0.2605,0.1647,0.0784,0.0233,0.0,0.0,0.0,0.0351,0.0965,0.2026,0.3047,0.3943,0.3943,0.3242,0.2313,0.1747,0.0878,0.0,0.0,0.0,0.0,0.0,0.041,0.0704,0.0126,0.0427,0.0695,0.0131,0.0,0.0,0.0,0.0,0.0,0.0,0.0,-0.018,-0.0762,-0.0852,-0.1076,-0.1657,-0.121,-0.0852,-0.0852,-0.0356,0.0,0.0,0.0,-0.0729,-0.2418,-0.3183,-0.4218,-0.5752,-0.6528,-0.681,-0.6586,-0.6658,-0.5868,-0.4069,-0.362,-0.2526,-0.0851,-0.0284,0.0,0.0,0.0,0.0,0.0,0.0,0.0,-0.0043,-0.0555,-0.08,-0.0867,-0.0784,-0.0819,-0.0772,-0.0208,0.0,0.0,0.0,0.0,0.0449,0.1879,0.2948,0.4061,0.5492,0.678,0.7516,0.7433,0.7607,0.6759,0.4087,0.3408,0.2298,0.0184,0.0,0.0,0.0,0.0,0.0,0.0,0.0,0.0,0.0,0.0884,0.1917,0.3085,0.4857,0.588,0.6259,0.6235,0.6049,0.5725,0.4949,0.3911,0.2616,0.1886,0.0941,0.0,0.0,0.0,0.0,0.0,0.0,0.0153,0.1206,0.2229,0.3085,0.3085,0.2425,0.1614,0.1613,0.0854,0.0,0.0,0.0,0.0042,0.0248,0.1041,0.161,0.0822,0.1219,0.1528,0.0527,0.0133,0.0,0.0,0.0,0.0,0.0,-0.018,-0.0677,-0.1665,-0.2031,-0.253,-0.3519,-0.2792,-0.2069,-0.1845,-0.0764,0.0,0.0,-0.0222,-0.1193,-0.3184,-0.3842,-0.4879,-0.6611,-0.702,-0.7038,-0.6783,-0.68,-0.6276,-0.5129,-0.3986,-0.2892,-0.1781,-0.0597,0.0,0.0,0.0,0.0,0.0,0.0,-0.0131,-0.0393,-0.1265,-0.1806,-0.2066,-0.177,-0.1683,-0.164,-0.0431,0.0,0.0,0.0,0.0,0.0718,0.2948,0.3481,0.4328,0.6514,0.7198,0.7439,0.7419,0.7519,0.6664,0.4082,0.1825,0.0368,0.0045,0.0,0.0,0.0,0.0,0.0,0.0,0.0,0.0,0.0,0.1016,0.2068,0.3085,0.3992,0.4989,0.602,0.5925,0.5439,0.4699,0.4381,0.3328,0.1751,0.1481,0.0841,0.0,0.0,0.0,0.0,0.0,0.0,0.0156,0.1214,0.2229,0.3085,0.3085,0.2425,0.1614,0.1613,0.0854,0.0,0.0,0.0,0.0211,0.1284,0.168,0.2029,0.2901,0.2461,0.1747,0.1597,0.0771,0.0,0.0,0.0,0.0,0.0,-0.0956,-0.1794,-0.1931,-0.2936,-0.3769,-0.3908,-0.3711,-0.3121,-0.2115,-0.0816,0.0,0.0,-0.1046,-0.188,-0.2206,-0.4253,-0.5652,-0.5953,-0.6957,-0.7397,-0.7048,-0.721,-0.6615,-0.5122,-0.4107,-0.2977,-0.1775,-0.0588,0.0,0.0,0.0,0.0,0.0,0.0,-0.0581,-0.156,-0.1693,-0.2419,-0.3234,-0.22,-0.1791,-0.164,-0.0431,0.0,0.0,0.0,0.0,0.0539,0.2281,0.317,0.4194,0.5891,0.6863,0.7343,0.7255,0.7302,0.6394,0.3931,0.1465,0.0,0.0,0.0,0.0,0.0,0.0,0.0,0.0,0.0,0.0,0.0,0.0471,0.1215,0.2268,0.3749,0.506,0.6159,0.6088,0.5862,0.5457,0.4161,0.314,0.2343,0.1107,0.0345,0.0,0.0,0.0,0.0,0.0,0.0,0.0079,0.0549,0.098,0.1372,0.1352,0.1079,0.0725,0.071,0.038,0.0,0.0,0.0479,0.0958,0.0826,0.2273,0.3613,0.2778,0.327,0.3555,0.2119,0.1435,0.0882,0.0139,0.0,0.0,0.0,-0.1055,-0.2149,-0.2897,-0.407,-0.5155,-0.5923,-0.5366,-0.4214,-0.2254,-0.0793,-0.0279,-0.1021,-0.1652,-0.2622,-0.4144,-0.5285,-0.6193,-0.6894,-0.7426,-0.7617,-0.7404,-0.7465,-0.7201,-0.6521,-0.464,-0.3451,-0.2914,-0.0935,-0.0367,-0.1003,-0.0309,-0.0354,-0.1017,-0.1027,-0.1299,-0.1878,-0.3131,-0.4043,-0.4533,-0.3911,-0.2904,-0.1656,-0.0441,0.0,0.0]}]]